     2              OBSERVATION DATA    GPS                 RINEX VERSION / TYPE
teqc 2000Jul20 Karen Wendt 20030414 22:25:47UTC             PGM / RUN BY / DATE
                                                            COMMENT
L2: 1 -> 1; 150 -> 5; 250 -> 9                              COMMENT
L2: 1 -> 1; 150 -> 5; 250 -> 9                              COMMENT
L2: 1 -> 1; 150 -> 5; 250 -> 9                              COMMENT
L2: 1 -> 1; 150 -> 5; 250 -> 9                              COMMENT
L2: 1 -> 1; 150 -> 5; 250 -> 9                              COMMENT
L2: 1 -> 1; 150 -> 5; 250 -> 9                              COMMENT
L2: 1 -> 1; 150 -> 5; 250 -> 9                              COMMENT
L2: 1 -> 1; 150 -> 5; 250 -> 9                              COMMENT
L2: 1 -> 1; 150 -> 5; 250 -> 9                              COMMENT
L2: 1 -> 1; 150 -> 5; 250 -> 9                              COMMENT
L2: 1 -> 1; 150 -> 5; 250 -> 9                              COMMENT
L2: 1 -> 1; 150 -> 5; 250 -> 9                              COMMENT
L2: 1 -> 1; 150 -> 5; 250 -> 9                              COMMENT
L2: 1 -> 1; 150 -> 5; 250 -> 9                              COMMENT
Original Marker Name: pnt2 Point2_stmpd_A_45_Unknown        COMMENT
Campaign Name: USGS 2003                                    COMMENT
4-Character Station Name: PNT2                              COMMENT
6-Character Antenna Code: DMRCHT                            COMMENT
Vertical Measurement Point: BCR                             COMMENT
Vertical Offset to Rinex Ref. Point: 0.0348                 COMMENT
Radial Measurement Point: ECF                               COMMENT
Radial Offset to Rinex Ref. Point: 0.1897                   COMMENT
Antenna Height from Field Measurement: 1.0110 m             COMMENT
Additional Antenna Identification Info.:                    COMMENT
Turborogue and Ashtech Choke Ring                           COMMENT
Original XYZ: -2675226.3426 -4461084.2101 3678464.8272      COMMENT
New XYZ position is based on association with SCEC monument COMMENT
E1F0I7Z2+0011. Position of that monument is believed to be  COMMENT
valid to within 1 m horizontally; vertical accuracy         COMMENT
should be no worse than 3-times this value.                 COMMENT
                                                            COMMENT
Revised Rinex header created by UCSD GPS archive for        COMMENT
GSAC on 17-Jul-2003 (2003:198) 20:59:36 GMT                 COMMENT
For assistance contact dagnew@ucsd.edu                      COMMENT
or anderson@python.ucsd.edu                                 COMMENT
                                                            COMMENT
A 45                                                        MARKER NAME
JMS US GEOLOGICAL SURVEY                                    OBSERVER / AGENCY
LP020000801 ASHTECH Z-XII3 CD00                             REC # / TYPE / VERS
CR620022601 DORNE-MARGOL. TYPE T                            ANT # / TYPE
 -2675246.3425 -4461064.9629  3678459.7183                  APPROX POSITION XYZ
        0.9582        0.0000        0.0000                  ANTENNA: DELTA H/E/N
     1     1     0                                          WAVELENGTH FACT L1/2
     5    C1    L1    L2    P1    P2                        # / TYPES OF OBSERV
    30                                                      INTERVAL
  2003     4    11    15    45   30.000000                  TIME OF FIRST OBS
  2003     4    11    23    27    0.000000                  TIME OF LAST OBS
                                                            END OF HEADER
 03  4 11 15 45 30.0000000  0  2G 4G 9
                     80985.38149     54641.73543
  21184219.347       79179.62149     54597.79748  21184219.110    21184225.801
 03  4 11 15 46  0.0000000  0  5G24G 4G 5G 7G 9
  20935940.863     -117400.64949    -85278.48248  20935940.370    20935948.010
                    115705.678 9     79619.708 1
  22088055.847     -207899.18949   -139071.15647  22088055.248    22088062.404
  23005605.234      214118.70349    155413.11046  23005604.142    23005611.752
  21190785.545      113684.29749     81484.53448  21190785.185    21190791.862
 03  4 11 15 46 30.0000000  0  5G24G 4G 5G 7G 9
  20785019.869     -910496.73549   -703275.40748  20785019.221    20785026.869
  20753476.071     -604863.76149   -561667.10747  20753475.628    20753482.173
  21931552.713    -1030328.35949   -779925.04347  21931552.232    21931559.339
  22875925.355     -467360.76349   -375609.91046  22875922.968    22875930.543
  21053622.058     -607114.25449   -480176.69548  21053621.781    21053628.462
 03  4 11 15 47  0.0000000  0  5G24G 4G 5G 7G 9
  20776581.267     -954841.10249   -737829.43148  20776580.763    20776588.462
  20758849.320     -576626.44749   -539664.01547  20758849.078    20758855.559
  21917464.446    -1104363.50449   -837614.76047  21917463.846    21917470.894
  22888633.551     -400575.58949   -323569.56846  22888631.760    22888639.396
  21058949.540     -579118.67749   -458361.98248  21058949.193    21058955.871
 03  4 11 15 47 30.0000000  0  5G24G 4G 5G 7G 9
  20768243.488     -998655.99449   -771970.88048  20768243.045    20768250.730
  20764333.625     -547805.95949   -517206.50348  20764333.471    20764339.920
  21903408.813    -1178226.96749   -895170.69747  21903408.126    21903415.137
  22901350.044     -333747.99849   -271496.16446  22901348.656    22901356.318
  21064385.455     -550552.70549   -436102.80348  21064385.120    21064391.808
 03  4 11 15 48  0.0000000  0  5G24G 4G 5G 7G 9
  20760006.682    -1041940.70949   -805699.20548  20760006.237    20760013.931
  20769928.572     -518404.28749   -494296.12348  20769928.448    20769934.859
  21889386.006    -1251917.46449   -952591.85647  21889385.314    21889392.288
  22914074.653     -266879.23649   -219390.69346  22914073.406    22914081.054
  21069929.641     -521418.12849   -413400.55848  21069929.291    21069935.982
 03  4 11 15 48 30.0000000  0  5G24G 4G 5G 7G 9
  20751870.793    -1084694.87749   -839014.11748  20751870.369    20751878.065
  20775633.731     -488423.50449   -470934.49248  20775633.628    20775640.037
  21875396.319    -1325434.00349  -1009877.45347  21875395.619    21875402.561
  22926806.955     -199970.42349   -167254.00946  22926805.793    22926813.423
  21075581.690     -491716.70049   -390256.60848  21075581.319    21075588.001
 03  4 11 15 49  0.0000000  0  5G24G 4G 5G 7G 9
  20743836.179    -1126917.30149   -871914.68448  20743835.771    20743843.426
  20781448.850     -457864.86849   -447122.59948  20781448.762    20781455.137
  21861440.148    -1398774.44349  -1067025.84547  21861439.400    21861446.345
  22939546.796     -133021.88549   -115086.37146  22939545.733    22939553.317
  21081341.358     -461449.49749   -366671.80548  21081341.001    21081347.686
 03  4 11 15 49 30.0000000  0  5G24G 4G 5G 7G 9
  20735903.049    -1168606.24449   -904399.54848  20735902.633    20735910.296
  20787373.765     -426729.38349   -422861.19648  20787373.691    20787380.055
  21847517.918    -1471936.59149  -1124035.30047  21847517.179    21847524.073
  22952294.241      -66033.66349    -62887.77646  22952293.199    22952300.815
  21087208.555     -430617.30349   -342646.73548  21087208.209    21087214.900
 03  4 11 15 50  0.0000000  0  5G24G 4G 5G 7G 9
  20728071.695    -1209760.08649   -936467.44848  20728071.275    20728078.956
  20793408.295     -395017.80249   -398150.87948  20793408.213    20793414.603
  21833630.045    -1544918.04849  -1180903.95147  21833629.283    21833636.172
  22965049.223         994.41049    -10658.19346  22965048.248    22965055.916
  21093183.178     -399220.56949   -318181.77048  21093182.813    21093189.514
 03  4 11 15 50 30.0000000  0  5G24G 4G 5G 7G 9
  20720342.338    -1250378.10349   -968117.82348  20720341.936    20720349.596
  20799552.034     -362732.22649   -372993.29948  20799551.960    20799558.386
  21819776.775    -1617717.62849  -1237630.88647  21819776.003    21819782.883
  22977811.638       68061.37649     41601.74346  22977810.712    22977818.422
  21099264.864     -367261.30049   -293278.46648  21099264.503    21099271.220
 03  4 11 15 51  0.0000000  0  5G24G 4G 5G 7G 9
  20712715.416    -1290457.84949   -999348.77048  20712715.036    20712722.678
  20805805.017     -329872.76249   -347388.54048  20805804.961    20805811.399
  21805958.687    -1690332.22549  -1294213.67547  21805957.910    21805964.833
  22990581.674      135168.03749     93892.59946  22990580.702    22990588.462
  21105453.621     -334739.43849   -267936.77648  21105453.249    21105460.000
 03  4 11 15 51 30.0000000  0  5G24G 4G 5G 7G 9
  20705190.698    -1330000.39249  -1030161.12048  20705190.325    20705197.965
  20812166.555     -296442.69349   -321339.14948  20812166.477    20812172.954
  21792175.773    -1762761.80549  -1350652.29547  21792175.031    21792181.974
  23003358.789      202312.01449    146212.53546  23003357.867    23003365.616
  21111748.800     -301658.10049   -242159.13648  21111748.421    21111755.206
 03  4 11 15 52  0.0000000  0  5G24G 4G 5G 7G 9
  20697768.676    -1369003.58049  -1060553.19648  20697768.303    20697775.905
  20818636.577     -262442.72149   -294845.68048  20818636.508    20818642.970
  21778428.609    -1835003.47549  -1406944.49747  21778427.868    21778434.866
  23016143.113      269493.87649    198561.98546  23016142.196    23016149.952
  21118150.449     -268017.48549   -215945.69448  21118150.069    21118156.871
 03  4 11 15 52 30.0000000  0  5G24G 4G 5G 7G 9
  20690449.410    -1407466.73549  -1090524.47048  20690449.010    20690456.604
  20825214.652     -227874.88949   -267909.71948  20825214.594    20825221.026
  21764717.482    -1907055.74049  -1463089.11347  21764716.770    21764723.790
  23028934.555      336712.94449    250940.43246  23028933.651    23028941.354
  21124658.154     -233819.50049   -189297.93648  21124657.764    21124664.540
 03  4 11 15 53  0.0000000  0  6G30G24G 4G 5G 7G 9
  24341984.473    -2333804.86749  -1798809.16245  24341984.514    24341992.119
  20683230.801    -1445400.64749  -1120083.34848  20683230.427    20683238.028
  20831898.360     -192752.21949   -240541.42448  20831898.297    20831904.712
  21751040.598    -1978928.29549  -1519093.68847  21751039.898    21751046.921
  23041730.741      403957.09049    303338.42546  23041729.832    23041737.576
  21131269.449     -199077.08449   -162225.95148  21131269.057    21131275.810
 03  4 11 15 53 30.0000000  0  6G30G24G 4G 5G 7G 9
  24323501.370    -2430933.71549  -1874493.95045  24323501.371    24323509.066
  20676116.527    -1482786.42249  -1149215.10648  20676116.153    20676123.746
  20838690.592     -157058.73649   -212728.33348  20838690.535    20838696.972
  21737401.560    -2050601.89549  -1574943.23647  21737400.861    21737407.895
  23054534.957      471243.47649    355769.31946  23054534.098    23054541.867
  21137987.434     -163774.00549   -134717.08448  21137987.066    21137993.843
 03  4 11 15 54  0.0000000  0  6G30G24G 4G 5G 7G 9
  24305016.605    -2528071.13649  -1950185.45245  24305016.657    24305024.206
  20669106.375    -1519625.18849  -1177920.62348  20669105.986    20669113.574
  20845590.805     -120798.04549   -184473.26148  20845590.738    20845597.189
  21723800.370    -2122076.64549  -1630637.83647  21723799.696    21723806.729
  23067346.738      538569.73049    408231.28446  23067345.888    23067353.645
  21144811.463     -127913.74049   -106774.04848  21144811.092    21144817.881
 03  4 11 15 54 30.0000000  0  6G30G24G 4G 5G 7G 9
  24286530.093    -2625218.84349  -2025884.95245  24286530.205    24286537.635
  20662199.795    -1555919.33249  -1206201.76148  20662199.417    20662206.998
  20852598.028      -83974.96549   -155779.96348  20852597.957    20852604.408
  21710236.849    -2193353.82349  -1686178.48347  21710236.126    21710243.157
  23080165.452      605932.20849    460721.48846  23080164.564    23080172.366
  21151740.618      -91500.92249    -78400.45348  21151740.265    21151747.041
 03  4 11 15 55  0.0000000  0  6G30G24G 4G 5G 7G 9
  24268041.874    -2722375.26349  -2101591.23445  24268041.944    24268049.380
  20655397.116    -1591667.73749  -1234057.64448  20655396.746    20655404.329
  20859711.996      -46590.90949   -126649.53948  20859711.942    20859718.381
  21696711.304    -2264431.13849  -1741563.39347  21696710.570    21696717.581
  23092991.018      673330.90449    513239.89946  23092990.135    23092998.000
  21158774.770      -54536.57649    -49597.09548  21158774.405    21158781.199
 03  4 11 15 55 30.0000000  0  6G30G24G 4G 5G 7G 9
  24249552.125    -2819539.01349  -2177303.24345  24249552.245    24249559.758
  20648698.487    -1626869.25549  -1261487.37648  20648698.114    20648705.671
  20866932.421       -8647.65149    -97083.36948  20866932.353    20866938.783
  21683224.108    -2335306.75049  -1796791.12347  21683223.407    21683230.410
  23105823.428      740765.47149    565786.26446  23105822.582    23105830.478
  21165913.535      -17022.18749    -20365.12548  21165913.173    21165919.975
 03  4 11 15 56  0.0000000  0  6G30G24G 4G 5G 7G 9
  24231061.036    -2916709.65649  -2253020.59745  24231061.275    24231068.858
  20642103.923    -1661523.97549  -1288491.03648  20642103.549    20642111.112
  20874258.752       29852.39049    -67083.34148  20874258.681    20874265.129
  21669775.485    -2405979.65349  -1851860.90847  21669774.767    21669781.768
  23118662.470      808234.54949    618359.52146  23118661.594    23118669.524
  21173156.519       21039.66349      9293.43748  21173156.139    21173162.936
 03  4 11 15 56 30.0000000  0  6G30G24G 4G 5G 7G 9
  24212569.032    -3013886.56249  -2328742.85045  24212569.227    24212576.623
  20635613.449    -1695631.72649  -1315068.49048  20635613.062    20635620.626
  20881690.548       68906.67249    -36651.44148  20881690.467    20881696.929
  21656365.662    -2476448.69949  -1906771.83747  21656364.951    21656371.949
  23131507.782      875736.95649    670958.75146  23131506.891    23131514.890
  21180503.188       59646.71649     39376.83148  21180502.823    21180509.621
 03  4 11 15 57  0.0000000  0  6G30G24G 4G 5G 7G 9
  24194076.053    -3111068.17049  -2404468.76145  24194076.220    24194083.596
  20629227.168    -1729191.68249  -1341219.08848  20629226.784    20629234.353
  20889227.516      108513.78849     -5788.75747  20889227.459    20889233.913
  21642995.044    -2546711.73049  -1961522.23647  21642994.327    21643001.325
  23144359.420      943272.52649    723583.82846  23144358.544    23144366.539
  21187953.432       98797.69249     69884.06248  21187953.065    21187959.879
 03  4 11 15 57 30.0000000  0  6G30G24G 4G 5G 7G 9
  24175582.381    -3208252.51449  -2480196.80845  24175582.612    24175590.059
  20622945.338    -1762202.78749  -1366942.01748  20622944.972    20622952.540
  20896869.437      148672.20949     25503.51447  20896869.378    20896875.835
  21629664.041    -2616766.65249  -2016110.47547  21629663.326    21629670.330
  23157217.404     1010841.42249    776234.86646  23157216.503    23157224.484
  21195506.897      138491.40349    100814.19748  21195506.526    21195513.363
 03  4 11 15 58  0.0000000  0  6G30G24G 4G 5G 7G 9
  24157088.374    -3305438.95249  -2555926.49745  24157088.675    24157096.195
  20616768.104    -1794664.48349  -1392236.83148  20616767.719    20616775.280
  20904615.890      189379.89549     57223.77947  20904615.816    20904622.288
  21616372.953    -2686611.75549  -2070535.22247  21616372.217    21616379.250
  23170081.531     1078442.79249    828911.20846  23170080.647    23170088.665
  21203163.320      178725.95349    132165.76748  21203162.956    21203169.799
 03  4 11 15 58 30.0000000  0  6G30G24G 4G 5G 7G 9
  24138594.485    -3402625.92749  -2631656.57745  24138594.688    24138602.174
  20610695.530    -1826576.16449  -1417103.06448  20610695.143    20610702.695
  20912466.425      230634.96949     89370.58147  20912466.381    20912472.873
  21603122.130    -2756245.22849  -2124795.05847  21603121.420    21603128.451
  23182951.753     1146076.14649    881612.49146  23182950.946    23182958.922
  21210922.281      219499.44749    163937.29348  21210921.924    21210928.784
 03  4 11 15 59  0.0000000  0  6G30G24G 4G 5G 7G 9
  24120100.533    -3499812.61049  -2707386.44645  24120100.691    24120108.027
  20604727.653    -1857937.42749  -1441540.39548  20604727.284    20604734.846
  20920420.725      272434.87749    121941.92947  20920420.694    20920427.167
  21589911.880    -2825665.59649  -2178888.83647  21589911.175    21589918.191
  23195827.965     1213740.81149    934338.14646  23195827.153    23195835.136
  21218783.455      260810.01649    196127.32048  21218783.092    21218789.963
 03  4 11 15 59 30.0000000  0  6G30G24G 4G 5G 7G 9
  24101606.857    -3596996.96749  -2783114.50545  24101607.075    24101614.416
  20598864.807    -1888747.02049  -1465547.85948  20598864.413    20598871.994
  20928478.533      314778.67249    154937.08347  20928478.476    20928484.954
  21576742.654    -2894870.31449  -2232814.57947  21576741.962    21576748.970
  23208710.163     1281437.02549    987088.41146  23208709.345    23208717.336
  21226746.587      302656.49749    228734.94048  21226746.239    21226753.086
 03  4 11 16  0  0.0000000  0  6G30G24G 4G 5G 7G 9
  24083114.061    -3694177.48349  -2858839.57345  24083114.247    24083121.477
  20593107.013    -1919004.45049  -1489125.06648  20593106.629    20593114.197
  20936639.406      357664.42249    188354.53947  20936639.366    20936645.841
  21563614.787    -2963857.57949  -2286570.87747  21563614.101    21563621.120
  23221598.274     1349164.42049   1039862.95546  23221597.482    23221605.505
  21234811.391      345037.12649    261758.77448  21234811.036    21234817.892
 03  4 11 16  0 30.0000000  0  6G30G24G 4G 5G 7G 9
  24064622.151    -3791353.40149  -2934561.04145  24064622.179    24064629.558
  20587454.320    -1948709.40849  -1512271.77048  20587453.962    20587461.500
  20944902.996      401089.65849    222192.37347  20944902.965    20944909.433
  21550528.585    -3032625.86849  -2340156.54647  21550527.900    21550534.944
  23234492.153     1416922.11049   1092661.11946  23234491.376    23234499.369
  21242977.397      387949.80149    295197.19048  21242977.043    21242983.940
 03  4 11 16  1  0.0000000  0  6G30G24G 4G 5G 7G 9
  24046131.380    -3888522.93349  -3010277.55345  24046131.380    24046138.903
  20581906.945    -1977861.13849  -1534987.38948  20581906.573    20581914.117
  20953268.918      445052.74949    256449.31547  20953268.884    20953275.357
  21537484.511    -3101172.91649  -2393569.82147  21537483.850    21537490.899
  23247391.761     1484710.03449   1145482.83446  23247391.006    23247399.037
  21251244.414      431393.00249    329049.00348  21251244.090    21251250.961
 03  4 11 16  1 30.0000000  0  6G30G24G 4G 5G 7G 9
  24027642.059    -3985684.78549  -3085988.07645  24027642.129    24027649.571
  20576464.939    -2006459.04749  -1557271.46248  20576464.580    20576472.109
  20961736.780      489551.74849    291123.84847  20961736.762    20961743.246
  21524482.826    -3169497.09249  -2446809.43147  21524482.151    21524489.236
  23260297.098     1552527.70149   1198327.73146  23260296.362    23260304.386
  21259612.063      475364.96449    363312.83748  21259611.717    21259618.602
 03  4 11 16  2  0.0000000  0  6G30G24G 4G 5G 7G 9
  24009154.445    -4082837.79149  -3161691.70245  24009154.558    24009161.916
  20571128.342    -2034502.95049  -1579123.84448  20571127.994    20571135.523
  20970306.270      534584.40449    326214.21847  20970306.229    20970312.699
  21511523.872    -3237596.76549  -2499874.09847  21511523.212    21511530.292
  23273207.990     1620374.63149   1251195.41446  23273207.224    23273215.238
  21268079.847      519863.49349    397986.98548  21268079.515    21268086.405
 03  4 11 16  2 30.0000000  0  6G30G24G 4G 5G 7G 9
  23990668.840    -4179980.42049  -3237387.23245  23990668.955    23990676.254
  20565897.343    -2061992.21449  -1600544.03748  20565896.996    20565904.500
  20978976.908      580148.81849    361718.94547  20978976.866    20978983.338
  21498608.040    -3305469.90349  -2552762.24747  21498607.374    21498614.464
  23286124.346     1688250.55449   1304085.70246  23286123.572    23286131.612
  21276647.543      564886.89449    433070.12248  21276647.223    21276654.116
 03  4 11 16  3  0.0000000  0  6G30G24G 4G 5G 7G 9
  23972185.429    -4277111.10349  -3313073.45745  23972185.552    23972192.794
  20560771.972    -2088926.19649  -1621531.54248  20560771.614    20560779.149
  20987748.348      626243.18049    397636.62047  20987748.334    20987754.820
  21485735.668    -3373114.48549  -2605472.30547  21485734.995    21485742.108
  23299046.165     1756155.19849   1356998.37546  23299045.476    23299053.478
  21285314.847      610433.56449    468561.00348  21285314.513    21285321.403
 03  4 11 16  3 30.0000000  0  6G30G24G 4G 5G 7G 9
  23953704.550    -4374228.49249  -3388749.32745  23953704.766    23953711.965
  20555752.250    -2115304.72149  -1642086.22648  20555751.899    20555759.458
  20996620.280      672865.31649    433965.54747  20996620.252    20996626.730
  21472907.163    -3440528.64549  -2658002.80447  21472906.516    21472913.608
  23311973.440     1824088.24349   1409933.15846  23311972.777    23311980.732
  21294081.242      656501.35849    504457.94947  21294080.925    21294087.869
 03  4 11 16  4  0.0000000  0  6G30G24G 4G 5G 7G 9
  23935226.477    -4471331.10349  -3464413.69245  23935226.667    23935233.827
  20550838.436    -2141126.96949  -1662207.44648  20550838.111    20550845.649
  21005592.243      720013.29949    470704.22447  21005592.231    21005598.701
  21460122.922    -3507710.26749  -2710352.11047  21460122.296    21460129.372
  23324906.045     1892049.31249   1462889.79946  23324905.374    23324913.389
  21302946.513      703088.50449    540759.58747  21302946.207    21302953.165
 03  4 11 16  4 30.0000000  0  6G30G24G 4G 5G 7G 9
  23916751.472    -4568417.57849  -3540065.43845  23916751.687    23916758.960
  20546030.509    -2166392.93249  -1681895.19448  20546030.159    20546037.685
  21014663.817      767684.75849    507850.80947  21014663.811    21014670.257
  21447383.252    -3574657.90249  -2762519.08547  21447382.636    21447389.652
  23337843.983     1960038.04449   1515867.99946  23337843.228    23337851.289
  21311910.173      750192.71049    577464.13147  21311909.872    21311916.827
 03  4 11 16  5  0.0000000  0  6G30G24G 4G 5G 7G 9
  23898279.831    -4665486.22849  -3615703.32445  23898280.015    23898287.386
  20541328.536    -2191102.04649  -1701149.03748  20541328.194    20541335.705
  21023834.716      815878.00549    545403.97747  21023834.692    21023841.165
  21434688.536    -3641369.25149  -2814501.94547  21434687.864    21434694.883
  23350787.089     2028054.24149   1568867.59046  23350786.337    23350794.412
  21320971.943      797812.51049    614570.43647  21320971.619    21320978.629
 03  4 11 16  5 30.0000000  0  6G30G24G 4G 5G 7G 9
  23879811.894    -4762535.52649  -3691326.12245  23879812.260    23879819.555
  20536732.613    -2215253.78049  -1719968.56048  20536732.276    20536739.775
  21033104.504      864591.02349    583362.16147  21033104.505    21033110.976
  21422039.133    -3707842.36649  -2866299.16247  21422038.471    21422045.472
  23363735.374     2096097.72749   1621888.43446  23363734.633    23363742.755
  21330131.467      845946.30449    652077.25147  21330131.197    21330138.200
 03  4 11 16  6  0.0000000  0  6G30G24G 4G 5G 7G 9
  23861347.897    -4859564.63549  -3766933.20145  23861348.133    23861355.525
  20532242.669    -2238848.48849  -1738354.03248  20532242.325    20532249.849
  21042472.652      913820.94749    621723.13547  21042472.659    21042479.143
  21409435.342    -3774076.00949  -2917909.77747  21409434.657    21409441.647
  23376688.691     2164167.42549   1674929.71046  23376687.876    23376696.045
  21339388.390      894591.12549    689982.27747  21339388.089    21339395.043
 03  4 11 16  6 30.0000000  0  6G30G24G 4G 5G 7G 9
  23842888.212    -4956572.05049  -3842523.36745  23842888.272    23842895.679
  20527858.805    -2261885.73149  -1756305.11748  20527858.469    20527866.008
  21051938.763      963565.77249    660485.32647  21051938.776    21051945.270
  21396877.416    -3840068.26349  -2969332.30747  21396876.750    21396883.728
  23389646.856     2232263.08049   1727991.22446  23389646.085    23389654.294
  21348742.102      943745.10949    728284.05047  21348741.804    21348748.758
 03  4 11 16  7  0.0000000  0  6G30G24G 4G 5G 7G 9
  23824432.843    -5053555.95349  -3918095.19645  23824432.818    23824440.294
  20523581.139    -2284364.97949  -1773821.40248  20523580.811    20523588.366
  21061502.491     1013823.49549    699647.17847  21061502.515    21061509.014
  21384365.868    -3905816.82449  -3020564.93547  21384365.192    21384372.169
  23402610.014     2300384.66249   1781072.91946  23402609.161    23402617.540
  21358192.341      993406.50049    766981.20347  21358192.041    21358199.050
 03  4 11 16  7 30.0000000  0  6G30G24G 4G 5G 7G 9
  23805982.105    -5150514.72149  -3993647.46945  23805982.201    23805989.631
  20519409.724    -2306285.77849  -1790902.52948  20519409.408    20519416.961
  21071163.488     1064592.20649    739207.20547  21071163.517    21071169.991
  21371901.123    -3971319.44049  -3071605.92147  21371900.471    21371907.457
  23415578.058     2368532.21349   1834174.86246  23415577.174    23415585.644
  21367738.863     1043573.58749    806072.40847  21367738.572    21367745.573
 03  4 11 16  8  0.0000000  0  6G30G24G 4G 5G 7G 9
  23787536.392    -5247446.66849  -4069178.81045  23787536.571    23787544.157
  20515344.684    -2327647.67549  -1807548.15548  20515344.353    20515351.891
  21080921.363     1115870.03249    779163.94047  21080921.392    21080927.880
  21359483.541    -4036574.26649  -3122453.82147  21359482.898    21359489.868
  23428551.041     2436705.46049   1887296.82346  23428550.162    23428558.647
  21377381.220     1094244.39749    845556.11747  21377380.927    21377387.985
 03  4 11 16  8 30.0000000  0  6G30G24G 4G 5G 7G 9
  23769096.154    -5344350.21949  -4144688.02745  23769096.426    23769103.986
  20511386.077    -2348450.35149  -1823758.02548  20511385.753    20511393.281
  21090775.627     1167654.62249    819515.55747  21090775.680    21090782.171
  21347113.473    -4101579.20649  -3173107.00847  21347112.841    21347119.822
  23441528.825     2504904.12449   1940438.59746  23441527.967    23441536.401
  21387119.007     1145416.82349    885430.69947  21387118.736    21387125.789
 03  4 11 16  9  0.0000000  0  6G30G24G 4G 5G 7G 9
  23750661.701    -5441224.19149  -4220174.23145  23750661.989    23750669.377
  20507533.756    -2368694.34549  -1839532.55348  20507533.440    20507540.959
  21100725.864     1219943.36149    860260.01747  21100725.881    21100732.412
  21334791.297    -4166332.64549  -3223564.21647  21334790.672    21334797.661
  23454511.382     2573127.74549   1993599.81146  23454510.550    23454518.988
  21396951.826     1197088.29349    925694.15147  21396951.539    21396958.575
 03  4 11 16  9 30.0000000  0  6G30G24G 4G 5G 7G 9
  23732233.155    -5538067.20049  -4295636.29045  23732233.417    23732240.684
  20503787.812    -2388379.44949  -1854871.58748  20503787.493    20503795.004
  21110771.598     1272734.00849    901395.57347  21110771.647    21110778.175
  21322517.277    -4230833.02849  -3273824.24447  21322516.659    21322523.639
  23467498.609     2641375.67749   2046779.97246  23467497.769    23467506.195
  21406879.173     1249256.87349    966344.95547  21406878.886    21406885.941
 03  4 11 16 10  0.0000000  0  6G30G24G 4G 5G 7G 9
  23713810.836    -5634877.51949  -4371072.86445  23713811.020    23713818.295
  20500148.211    -2407505.56149  -1869775.04448  20500147.893    20500155.400
  21120912.465     1326024.49449    942920.61447  21120912.507    21120919.037
  21310291.862    -4295078.16449  -3323885.37447  21310291.232    21310298.219
  23480490.411     2709647.99449   2099979.13246  23480489.585    23480498.023
  21416900.720     1301920.48049   1007381.49547  21416900.448    21416907.539
 03  4 11 16 10 30.0000000  0  6G30G24G 4G 5G 7G 9
  23695394.948    -5731653.83049  -4446482.95945  23695395.109    23695402.464
  20496615.037    -2426072.46749  -1884242.75548  20496614.719    20496622.255
  21131147.977     1379812.43449    984833.27547  21131148.011    21131154.547
  21298115.318    -4359066.23749  -3373746.20147  21298114.692    21298121.687
  23493486.809     2777944.26349   2153196.95846  23493486.038    23493494.466
  21427016.062     1355076.73249   1048801.91447  21427015.806    21427022.914
 03  4 11 16 11  0.0000000  0  6G30G24G 4G 5G 7G 9
  23676985.866    -5828394.13049  -4521864.97545  23676986.034    23676993.412
  20493188.389    -2444079.54249  -1898274.23148  20493188.091    20493195.608
  21141477.816     1434095.97149   1027132.11947  21141477.849    21141484.394
  21285988.135    -4422795.06549  -3423405.01547  21285987.507    21285994.478
  23506487.734     2846264.49349   2206433.45045  23506486.947    23506495.366
  21437224.787     1408723.72749   1090604.72947  21437224.518    21437231.625
 03  4 11 16 11 30.0000000  0  6G30G24G 4G 5G 7G 9
  23658583.929    -5925096.78949  -4597217.68045  23658584.093    23658591.469
  20489868.285    -2461527.06049  -1911869.69748  20489867.970    20489875.487
  21151901.472     1488872.60949   1069815.19647  21151901.513    21151908.041
  21273910.687    -4486262.54449  -3472860.18547  21273910.059    21273916.993
  23519493.201     2914608.42849   2259688.42645  23519492.424    23519500.746
  21447526.503     1462859.26549   1132788.22947  21447526.226    21447533.317
 03  4 11 16 12  0.0000000  0  6G30G24G 4G 5G 7G 9
  23640189.471    -6021760.36249  -4672539.92845  23640189.597    23640197.018
  20486654.647    -2478414.81949  -1925028.98348  20486654.334    20486661.847
  21162418.536     1544140.03849   1112880.70947  21162418.562    21162425.127
  21261883.353    -4549466.69349  -3522110.16447  21261882.725    21261889.632
  23532503.147     2982975.86349   2312961.70545  23532502.297    23532510.667
  21457920.778     1517481.30149   1175350.81647  21457920.491    21457927.585
 03  4 11 16 12 30.0000000  0  6G30G24G 4G 5G 7G 9
  23621802.748    -6118383.29449  -4747830.49845  23621802.886    23621810.301
  20483547.473    -2494743.03049  -1937752.25948  20483547.165    20483554.682
  21173028.532     1599896.13749   1156327.00247  21173028.577    21173035.171
  21249906.483    -4612405.52649  -3571153.40047  21249905.836    21249912.744
  23545517.500     3051366.38649   2366252.98945  23545516.628    23545524.872
  21468407.153     1572587.40349   1218290.59647  21468406.871    21468413.973
 03  4 11 16 13  0.0000000  0  6G30G24G 4G 5G 7G 9
  23603424.136    -6214963.63249  -4823087.87945  23603424.269    23603431.708
  20480546.846    -2510511.58149  -1950039.43748  20480546.533    20480554.054
  21183731.173     1656138.78149   1200152.42247  21183731.228    21183737.828
  21237980.506    -4675077.02349  -3619988.32047  21237979.843    21237986.794
  23558536.239     3119780.09649   2419562.32845  23558535.435    23558543.588
  21478985.283     1628175.65649   1261606.08247  21478984.988    21478992.119
 03  4 11 16 13 30.0000000  0  6G30G24G 4G 5G 7G 9
  23585053.760    -6311500.00249  -4898311.01545  23585053.997    23585061.404
  20477652.685    -2525720.40149  -1961890.46248  20477652.376    20477659.889
  21194525.937     1712865.37049   1244354.93747  21194525.965    21194532.567
  21226105.665    -4737479.34149  -3668613.49347  21226105.033    21226112.015
  23571559.268     3188216.77149   2472889.55445  23571558.469    23571566.729
  21489654.715     1684243.80749   1305295.51347  21489654.412    21489661.562
 03  4 11 16 14  0.0000000  0  6G30G24G 4G 5G 7G 9
  23566692.090    -6407990.59649  -4973498.46045  23566692.399    23566699.799
  20474865.048    -2540369.51849  -1973305.35548  20474864.756    20474872.253
  21205412.332     1770073.70149   1288932.84347  21205412.358    21205418.952
  21214282.508    -4799610.46249  -3717027.34447  21214281.868    21214288.864
  23584586.717     3256676.12949   2526234.47845  23584585.991    23584594.183
  21500415.018     1740789.62149   1349357.14447  21500414.743    21500421.933
 03  4 11 16 14 30.0000000  0  6G30G24G 4G 5G 7G 9
  23548339.520    -6504433.98149  -5048649.13845  23548339.833    23548347.206
  20472183.884    -2554458.99349  -1984284.16248  20472183.582    20472191.119
  21216389.934     1827761.25749   1333884.16347  21216389.959    21216396.572
  21202511.277    -4861468.64249  -3765228.51147  21202510.647    21202517.640
  23597618.350     3325157.77349   2579596.73345  23597617.649    23597625.847
  21511265.826     1797810.59849   1393789.03747  21511265.551    21511272.731
 03  4 11 16 15  0.0000000  0  6G30G24G 4G 5G 7G 9
  23529996.110    -6600829.17049  -5123762.24145  23529996.393    23530003.754
  20469609.060    -2567989.79049  -1994827.63448  20469608.765    20469616.290
  21227458.132     1885925.05649   1379206.58147  21227458.147    21227464.789
  21190792.287    -4923052.48949  -3813215.91547  21190791.640    21190798.632
  23610654.116     3393660.79149   2632975.67845  23610653.405    23610661.643
  21522206.433     1855303.86949   1438588.95247  21522206.157    21522213.349
 03  4 11 16 15 30.0000000  0  6G30G24G 4G 5G 7G 9
  23511662.308    -6697173.63349  -5198835.82145  23511662.585    23511670.033
  20467140.731    -2580961.03349  -2004935.09148  20467140.434    20467147.963
  21238616.702     1944563.66349   1424898.98047  21238616.732    21238623.377
  21179126.003    -4984359.01949  -3860987.23247  21179125.367    21179132.362
  23623694.060     3462186.02149   2686371.93145  23623693.347    23623701.547
  21533236.684     1913268.15049   1483755.88147  21533236.401    21533243.619
 03  4 11 16 16  0.0000000  0  6G30G24G 4G 5G 7G 9
  23493338.642    -6793465.86949  -5273868.71745  23493338.840    23493346.131
  20464778.745    -2593373.31549  -2014606.99748  20464778.449    20464785.975
  21249865.125     2003674.34449   1470959.22647  21249865.154    21249871.778
  21167512.763    -5045386.78149  -3908541.32647  21167512.146    21167519.172
  23636738.186     3530732.98449   2739785.06646  23636737.428    23636745.763
  21544356.073     1971700.83249   1529287.80147  21544355.803    21544363.004
 03  4 11 16 16 30.0000000  0  6G30G24G 4G 5G 7G 9
  23475025.123    -6889704.30049  -5348859.67645  23475025.288    23475032.574
  20462523.172    -2605226.45249  -2023843.20348  20462522.870    20462530.397
  21261202.923     2063254.72249   1517385.46947  21261202.945    21261209.567
  21155953.006    -5106133.88449  -3955876.72147  21155952.409    21155959.387
  23649786.349     3599301.27449   2793214.86846  23649785.683    23649793.950
  21555564.153     2030599.32749   1575182.69147  21555563.874    21555571.079
 03  4 11 16 17  0.0000000  0  6G30G24G 4G 5G 7G 9
  23456722.050    -6985887.30949  -5423807.45145  23456722.259    23456729.443
  20460373.904    -2616520.98949  -2032644.13948  20460373.608    20460381.144
  21272629.631     2123302.34849   1564175.80247  21272629.665    21272636.254
  21144447.073    -5166598.14349  -4002991.72347  21144446.444    21144453.410
  23662838.595     3667890.92349   2846661.29946  23662837.908    23662846.236
  21566860.388     2089961.19149   1621438.64747  21566860.123    21566867.342
 03  4 11 16 17 30.0000000  0  6G30G24G 4G 5G 7G 9
  23438430.100    -7082012.55449  -5498710.19946  23438430.302    23438437.442
  20458331.011    -2627256.40749  -2041009.39548  20458330.722    20458338.234
  21284144.873     2183815.32549   1611328.74447  21284144.893    21284151.491
  21132995.441    -5226776.96449  -4049884.30247  21132994.802    21133001.751
  23675894.879     3736502.13349   2900124.53246  23675894.169    23675902.565
  21578244.479     2149784.77949   1668054.38747  21578244.212    21578251.434
 03  4 11 16 18  0.0000000  0  6G30G24G 4G 5G 7G 9
  23420149.324    -7178078.93549  -5573567.09146  23420149.448    23420156.554
  20456394.329    -2637433.88549  -2048939.89548  20456394.043    20456401.565
  21295748.139     2244790.65249   1658841.96047  21295748.160    21295754.755
  21121598.327    -5286669.02849  -4096553.43647  21121597.702    21121604.644
  23688955.195     3805134.29749   2953604.09646  23688954.507    23688962.890
  21589715.901     2210067.27949   1715027.72147  21589715.651    21589722.868
 03  4 11 16 18 30.0000000  0  6G30G24G 4G 5G 7G 9
  23401880.001    -7274084.74649  -5648376.78246  23401880.106    23401887.318
  20454563.759    -2647053.45949  -2056435.65848  20454563.470    20454570.990
  21307438.930     2306226.04849   1706713.67647  21307438.947    21307445.536
  21110256.171    -5346272.49449  -4142997.68447  21110255.554    21110262.472
  23702019.468     3873787.25149   3007099.84945  23702018.794    23702027.116
  21601274.179     2270806.03449   1762356.58147  21601273.909    21601281.131
 03  4 11 16 19  0.0000000  0  6G30G24G 4G 5G 7G 9
  23383622.409    -7370028.11649  -5723137.80946  23383622.556    23383629.962
  20452839.410    -2656114.89049  -2063496.50648  20452839.134    20452846.662
  21319216.788     2368119.02849   1754941.94547  21319216.803    21319223.423
  21098969.358    -5405585.22549  -4189215.38947  21098968.738    21098975.645
  23715087.702     3942460.89549   3060611.72145  23715086.956    23715095.357
  21612918.819     2331998.88749   1810039.27547  21612918.568    21612925.787
 03  4 11 16 19 30.0000000  0  6G30G24G 4G 5G 7G 9
  23365377.134    -7465906.89649  -5797848.50546  23365377.416    23365384.755
  20451221.252    -2664618.50249  -2070122.68548  20451220.964    20451228.487
  21331081.351     2430467.49549   1803525.14047  21331081.350    21331087.961
  21087738.318    -5464604.84749  -4235204.69647  21087737.673    21087744.588
  23728159.826     4011155.35049   3114139.80545  23728159.157    23728167.538
  21624649.461     2393643.65649   1858074.11547  21624649.207    21624656.464
 03  4 11 16 20  0.0000000  0  6G30G24G 4G 5G 7G 9
  23347144.499    -7561719.74749  -5872507.82946  23347144.788    23347152.063
  20449709.148    -2672564.66049  -2076314.48648  20449708.881    20449716.404
  21343032.089     2493268.87149   1852461.25447  21343032.096    21343038.710
  21076563.324    -5523329.61249  -4280964.24747  21076562.709    21076569.631
  23741235.905     4079870.32849   3167683.90745  23741235.195    23741243.607
  21636465.620     2455737.85649   1906459.16247  21636465.377    21636472.628
 03  4 11 16 20 30.0000000  0  6G30G24G 4G 5G 7G 9
  23328924.765    -7657465.22149  -5947114.64946  23328924.981    23328932.249
  20448302.982    -2679954.14849  -2082072.51948  20448302.715    20448310.231
  21355068.407     2556520.18049   1901747.96347  21355068.424    21355075.034
  21065444.792    -5581757.93749  -4326492.80647  21065444.186    21065451.092
  23754315.781     4148605.43049   3221243.68445  23754315.060    23754323.509
  21648366.788     2518278.80749   1955192.32647  21648366.547    21648373.812
 03  4 11 16 21  0.0000000  0  6G30G24G 4G 5G 7G 9
  23310718.183    -7753141.52949  -6021667.57146  23310718.406    23310725.676
  20447002.660    -2686787.54249  -2087397.23048  20447002.375    20447009.871
  21367189.927     2620219.18149   1951383.52947  21367189.952    21367196.557
  21054383.039    -5639887.74349  -4371788.74947  21054382.444    21054389.344
  23767399.461     4217360.39549   3274818.92045  23767398.782    23767407.181
  21660352.448     2581263.76049   2004271.46447  21660352.210    21660359.481
 03  4 11 16 21 30.0000000  0  6G30G24G 4G 5G 7G 9
  23292525.112    -7848746.56149  -6096164.96046  23292525.310    23292532.491
  20445808.138    -2693064.64649  -2092288.46548  20445807.842    20445815.330
  21379396.219     2684363.45149   2001366.05347  21379396.232    21379402.846
  21043378.549    -5697716.74349  -4416850.29847  21043377.963    21043384.871
  23780486.966     4286135.46749   3328409.82845  23780486.292    23780494.736
  21672422.247     2644690.63049   2053694.95747  21672421.994    21672429.271
 03  4 11 16 22  0.0000000  0  6G30G24G 4G 5G 7G 9
  23274345.968    -7944278.69249  -6170605.52646  23274346.165    23274353.349
  20444719.330    -2698786.23049  -2096746.82648  20444719.046    20444726.553
  21391686.732     2748950.33949   2051693.47647  21391686.743    21391693.339
  21032431.660    -5755243.11749  -4461676.03447  21032431.051    21032437.959
  23793578.239     4354930.26749   3382016.11845  23793577.559    23793586.050
  21684575.595     2708556.73249   2103460.70547  21684575.351    21684582.625
 03  4 11 16 22 30.0000000  0  6G30G24G 4G 5G 7G 9
  23256180.973    -8039735.96149  -6244987.76946  23256181.171    23256188.415
  20443736.211    -2703952.43349  -2100772.42248  20443735.926    20443743.449
  21404061.020     2813977.48349   2102363.95447  21404061.027    21404067.631
  21021542.761    -5812464.66349  -4506264.24247  21021542.159    21021549.100
  23806673.248     4423744.96849   3435637.89645  23806672.623    23806681.156
  21696812.130     2772859.67649   2153566.85147  21696811.840    21696819.104
 03  4 11 16 23  0.0000000  0  6G30G24G 4G 5G 7G 9
  23238030.564    -8135116.88949  -6319310.54046  23238030.766    23238037.982
  20442858.610    -2708564.18349  -2104365.97648  20442858.334    20442865.871
  21416518.580     2879442.27849   2153375.46247  21416518.603    21416525.205
  21010712.178    -5869379.57649  -4550613.51647  21010711.587    21010718.525
  23819772.055     4492579.20149   3489274.91045  23819771.355    23819779.823
  21709131.202     2837596.90649   2204011.40247  21709130.951    21709138.231
 03  4 11 16 23 30.0000000  0  6G30G24G 4G 5G 7G 9
  23219895.148    -8230419.41249  -6393572.21346  23219895.331    23219902.603
  20442086.455    -2712621.66449  -2107527.63348  20442086.198    20442093.726
  21429058.907     2945342.15949   2204725.99547  21429058.941    21429065.559
  20999940.353    -5925985.86549  -4594722.30747  20999939.764    20999946.703
  23832874.491     4561432.72849   3542926.96445  23832873.844    23832882.125
  21721532.532     2902766.17249   2254792.60547  21721532.286    21721539.569
 03  4 11 16 24  0.0000000  0  6G30G24G 4G 5G 7G 9
  23201774.925    -8325642.20949  -6467771.74446  23201774.936    23201782.313
  20441419.726    -2716125.56649  -2110257.93148  20441419.440    20441426.989
  21441681.502     3011674.35449   2256413.39547  21441681.543    21441688.220
  20989227.512    -5982282.00949  -4638589.42347  20989226.931    20989233.871
  23845980.558     4630305.40849   3596593.93245  23845979.872    23845988.214
  21734015.518     2968364.37949   2305908.04747  21734015.274    21734022.553
 03  4 11 16 24 30.0000000  0  6G30G24G 4G 5G 7G 9
  23183670.171    -8420782.62949  -6541907.09746  23183670.289    23183677.570
  20440858.295    -2719075.84449  -2112556.83248  20440858.028    20440865.532
  21454386.014     3078437.04649   2308436.24847  21454386.087    21454392.766
  20978574.287    -6038265.03549  -4682212.55447  20978573.716    20978580.635
  23859090.322     4699197.81549   3650276.25745  23859089.666    23859098.109
  21746579.694     3034389.49549   2357356.14247  21746579.446    21746586.780
 03  4 11 16 25  0.0000000  0  6G30G24G 4G 5G 7G 9
  23165581.582    -8515838.91549  -6615976.89446  23165581.662    23165588.933
  20440402.124    -2721473.11149  -2114424.81448  20440401.844    20440409.332
  21467171.991     3145627.67549   2360792.55447  21467172.066    21467178.767
  20967981.049    -6093933.08449  -4725590.24247  20967980.459    20967987.374
  23872203.902     4768109.71749   3703973.77145  23872203.148    23872211.621
  21759224.661     3100838.97049   2409134.91047  21759224.432    21759231.766
 03  4 11 16 25 30.0000000  0  6G30G24G 4G 5G 7G 9
  23147509.263    -8610809.64349  -6689980.02746  23147509.313    23147516.628
  20440050.924    -2723318.63549  -2115862.86848  20440050.647    20440058.145
  21480038.800     3213243.12549   2413479.89447  21480038.859    21480045.565
  20957447.961    -6149284.86749  -4768721.49247  20957447.361    20957454.293
  23885320.966     4837040.43949   3757685.96045  23885320.387    23885328.859
  21771949.814     3167709.88249   2461242.06847  21771949.563    21771956.940
 03  4 11 16 26  0.0000000  0  7G30G24G 4G 5G 7G 9G10
  23129453.032    -8705695.29049  -6763916.85846  23129453.113    23129460.415
  20439804.249    -2724614.94549  -2116872.96548  20439803.958    20439811.451
  21492985.573     3281278.67549   2466494.58547  21492985.626    21492992.299
  20946974.992    -6204320.53349  -4811606.42047  20946974.401    20946981.329
  23898441.374     4905987.98849   3811411.26945  23898440.654    23898449.278
  21784754.192     3234997.26049   2513673.74447  21784753.949    21784761.348
  24580828.645    -3918904.28849  -3031259.58145  24580827.737    24580840.110
 03  4 11 16 26 30.0000000  0  7G30G24G 4G 5G 7G 9G10
  23111413.145    -8800495.08849  -6837786.77846  23111413.292    23111420.640
  20439661.702    -2725363.91549  -2117456.56148  20439661.417    20439668.908
  21506011.512     3349730.34649   2519833.51947  21506011.578    21506018.230
  20936562.355    -6259039.40049  -4854244.48847  20936561.750    20936568.725
  23911564.540     4974950.76449   3865148.42845  23911563.799    23911572.517
  21797637.103     3302697.21449   2566426.91047  21797636.840    21797644.234
  24562126.378    -4017184.15149  -3107841.18145  24562125.545    24562137.752
 03  4 11 16 27  0.0000000  0  7G30G24G 4G 5G 7G 9G10
  23093391.179    -8895200.54149  -6911583.20346  23093391.467    23093398.738
  20439624.440    -2725559.68749  -2117609.09748  20439624.163    20439631.645
  21519117.464     3418602.46249   2573500.07647  21519117.515    21519124.221
  20926211.653    -6313432.41449  -4896628.64947  20926211.076    20926218.045
  23924691.877     5043935.62049   3918902.79745  23924691.231    23924699.969
  21810599.362     3370814.14249   2619504.98847  21810599.126    21810606.500
  24543411.946    -4115529.07149  -3184473.45745  24543410.920    24543423.283
 03  4 11 16 27 30.0000000  0  7G30G24G 4G 5G 7G 9G10
  23075387.276    -8989811.56349  -6985306.03946  23075387.541    23075394.813
  20439692.044    -2725204.32549  -2117332.17748  20439691.766    20439699.241
  21532302.540     3487890.47249   2627490.71347  21532302.617    21532309.330
  20915922.984    -6367499.68549  -4938758.98447  20915922.428    20915929.397
  23937823.153     5112940.57149   3972672.81845  23937822.500    23937831.241
  21823640.114     3439343.46449   2672904.41147  21823639.859    21823647.269
  24524685.262    -4213938.07349  -3261155.64645  24524684.185    24524696.736
 03  4 11 16 28  0.0000000  0  7G30G24G 4G 5G 7G 9G10
  23057401.659    -9084326.86949  -7058954.29546  23057401.933    23057409.137
  20439864.192    -2724299.48749  -2116627.09448  20439863.917    20439871.408
  21545566.218     3557591.25949   2681802.98847  21545566.265    21545572.995
  20905696.616    -6421239.75849  -4980634.35947  20905696.018    20905702.985
  23950958.127     5181964.85249   4026457.90745  23950957.447    23950966.153
  21836758.676     3508281.82449   2726622.56747  21836758.427    21836765.848
  24505946.854    -4312409.02849  -3337886.15245  24505945.777    24505958.251
 03  4 11 16 28 30.0000000  0  7G30G24G 4G 5G 7G 9G10
  23039434.522    -9178744.69949  -7132526.60246  23039434.771    23039441.965
  20440140.801    -2722845.86849  -2115494.39348  20440140.545    20440148.019
  21558907.919     3627702.11049   2736434.79447  21558907.969    21558914.705
  20895532.833    -6474650.76949  -5022253.32247  20895532.234    20895539.168
  23964096.734     5251008.42249   4080258.02845  23964096.041    23964104.806
  21849954.614     3577626.85749   2780657.61247  21849954.381    21849961.846
  24487197.235    -4410938.86149  -3414662.54845  24487196.097    24487208.536
 03  4 11 16 29  0.0000000  0  7G30G24G 4G 5G 7G 9G10
  23021486.237    -9273063.58149  -7206021.79746  23021486.467    23021493.689
  20440521.598    -2720844.73349  -2113935.05848  20440521.352    20440528.811
  21572327.034     3698220.03849   2791383.80547  21572327.119    21572333.844
  20885431.974    -6527731.25449  -5063614.73547  20885431.397    20885438.290
  23977238.884     5320070.67649   4134072.70845  23977238.223    23977247.057
  21863227.297     3647375.18049   2835006.90447  21863227.073    21863234.532
  24468436.770    -4509525.20949  -3491482.94845  24468435.764    24468448.102
 03  4 11 16 29 30.0000000  0  7G30G24G 4G 5G 7G 9G10
  23003557.081    -9367281.55749  -7279438.37846  23003557.328    23003564.506
  20441006.491    -2718296.39149  -2111949.32448  20441006.256    20441013.723
  21585823.123     3769142.51049   2846648.04547  21585823.186    21585829.961
  20875394.382    -6580479.15249  -5104716.98947  20875393.806    20875400.698
  23990384.691     5389151.77549   4187902.06945  23990383.952    23990392.695
  21876576.270     3717524.22649   2889668.45647  21876576.031    21876583.451
  24449666.154    -4608165.08849  -3568345.05845  24449665.199    24449677.431
 03  4 11 16 30  0.0000000  0  7G30G24G 4G 5G 7G 9G10
  22985647.519    -9461396.66949  -7352774.79546  22985647.777    22985655.024
  20441595.334    -2715201.98649  -2109538.08948  20441595.078    20441602.562
  21599395.698     3840466.72449   2902225.33247  21599395.769    21599402.537
  20865420.458    -6632892.43249  -5145558.49847  20865419.870    20865426.778
  24003533.957     5458251.55349   4241745.97945  24003533.320    24003542.019
  21890000.933     3788071.17049   2944640.05247  21890000.698    21890008.158
  24430885.861    -4706855.51149  -3645246.58345  24430884.951    24430897.130
 03  4 11 16 30 30.0000000  0  7G30G24G 4G 5G 7G 9G10
  22967757.969    -9555407.01549  -7426029.58046  22967758.172    22967765.428
  20442287.969    -2711562.29149  -2106701.95648  20442287.719    20442295.164
  21613044.241     3912190.10649   2958113.66147  21613044.301    21613051.065
  20855510.565    -6684969.22049  -5186137.80947  20855509.981    20855516.920
  24016686.787     5527369.99349   4295604.41845  24016686.184    24016694.911
  21903500.771     3859013.19749   2999919.50647  21903500.542    21903508.022
  24412096.479    -4805593.48049  -3722185.16345  24412095.588    24412107.701
 03  4 11 16 31  0.0000000  0  7G30G24G 4G 5G 7G 9G10
  22949888.793    -9649310.87649  -7499201.39546  22949888.912    22949896.172
  20443084.107    -2707378.48249  -2103441.83848  20443083.857    20443091.321
  21626768.192     3984309.99149   3014310.95047  21626768.290    21626775.058
  20845665.034    -6736707.74249  -5226453.53447  20845664.467    20845671.393
  24029843.201     5596506.88649   4349477.24945  24029842.596    24029851.365
  21917075.345     3930347.59549   3055504.69947  21917075.105    21917082.577
  24393298.717    -4904376.23049  -3799158.59945  24393297.782    24393309.820
 03  4 11 16 31 30.0000000  0  7G30G24G 4G 5G 7G 9G10
  22932040.080    -9743106.70849  -7572289.02946  22932040.189    22932047.345
  20443983.563    -2702651.70749  -2099758.62648  20443983.315    20443990.803
  21640566.998     4056823.10549   3070814.65647  21640567.087    21640573.864
  20835884.195    -6788106.40149  -5266504.43047  20835883.628    20835890.574
  24043003.002     5665661.66749   4403364.01845  24043002.355    24043011.079
  21930723.911     4002071.26549   3111393.22947  21930723.666    21930731.157
  24374492.864    -5003200.95749  -3876164.73445  24374491.921    24374503.983
 03  4 11 16 32  0.0000000  0  7G30G24G 4G 5G 7G 9G10
  22914212.327    -9836791.96149  -7645290.50446  22914212.431    22914219.570
  20444986.314    -2697382.09949  -2095652.43148  20444986.081    20444993.558
  21654440.309     4129727.59549   3127623.32547  21654440.383    21654447.154
  20826168.500    -6839162.70049  -5306288.55547  20826167.934    20826174.909
  24056166.345     5734835.01649   4457265.25645  24056165.723    24056174.538
  21944446.168     4074182.08949   3167583.43147  21944445.926    21944453.476
  24355679.642    -5102064.28849  -3953200.97845  24355678.764    24355690.751
 03  4 11 16 32 30.0000000  0  7G30G24G 4G 5G 7G 9G10
  22896405.929    -9930364.81549  -7718204.40146  22896406.118    22896413.256
  20446092.250    -2691570.41249  -2091123.83848  20446092.015    20446099.473
  21668387.520     4203020.52949   3184734.67747  21668387.587    21668394.362
  20816518.272    -6889874.86449  -5345804.52048  20816517.725    20816524.713
  24069333.068     5804026.59149   4511180.69045  24069332.448    24069341.262
  21958241.535     4146677.07349   3224072.96947  21958241.296    21958248.888
  24336859.799    -5200963.55949  -4030265.23545  24336858.913    24336870.684
 03  4 11 16 33  0.0000000  0  7G30G24G 4G 5G 7G 9G10
  22878621.283   -10023823.02449  -7791028.94646  22878621.510    22878628.731
  20447301.168    -2685217.51749  -2086173.52448  20447300.908    20447308.387
  21682408.227     4276699.52649   3242146.86647  21682408.281    21682415.021
  20806934.021    -6940240.50949  -5385050.47248  20806933.470    20806940.440
  24082503.427     5873236.88949   4565110.71945  24082502.770    24082511.752
  21972109.552     4219553.85949   3280860.02947  21972109.345    21972116.945
  24318033.559    -5299895.33049  -4107354.76645  24318032.727    24318044.570
 03  4 11 16 33 30.0000000  0  7G30G24G 4G 5G 7G 9G10
  22860858.912   -10117164.83149  -7863762.80746  22860859.087    22860866.251
  20448612.799    -2678324.87249  -2080802.62848  20448612.550    20448620.025
  21696501.800     4350761.69249   3299857.62447  21696501.854    21696508.598
  20797415.978    -6990258.10049  -5424025.21448  20797415.439    20797422.391
  24095677.222     5942465.50549   4619055.00545  24095676.600    24095685.464
  21986049.705     4292809.34549   3337942.17147  21986049.465    21986057.069
  24299201.648    -5398856.80049  -4184467.44045  24299200.774    24299212.774
 03  4 11 16 34  0.0000000  0  8G30G24G 4G 5G 6G 7G 9G10
  22843118.858   -10210389.17549  -7936405.12146  22843119.048    22843126.237
  20450026.910    -2670893.64949  -2075012.06548  20450026.671    20450034.133
  21710667.602     4425203.58149   3357864.26647  21710667.677    21710674.471
  20787964.456    -7039926.45349  -5462727.82248  20787963.882    20787970.823
  24827565.420    -4065991.60549  -3151088.84645  24827565.264    24827575.006
  24108854.318     6011711.66149   4673012.97445  24108853.707    24108862.599
  22000061.170     4366439.96849   3395316.63747  22000060.934    22000068.525
  24280364.504    -5497845.73349  -4261601.53345  24280363.665    24280375.729
 03  4 11 16 34 30.0000000  0  8G30G24G 4G 5G 6G 7G 9G10
  22825401.697   -10303493.63349  -8008954.01846  22825401.843    22825409.028
  20451543.348    -2662924.72649  -2068802.51248  20451543.101    20451550.572
  21724905.245     4500022.93749   3416165.04947  21724905.311    21724912.112
  20778579.791    -7089243.32349  -5501156.54648  20778579.219    20778586.118
  24813633.140    -4139205.24549  -3208138.35745  24813632.940    24813642.942
  24122034.929     6080975.42049   4726984.66445  24122034.283    24122043.170
  22014143.588     4440443.13049   3452981.38847  22014143.346    22014150.931
  24261522.923    -5596858.69849  -4338754.38045  24261521.988    24261534.054
 03  4 11 16 35  0.0000000  0  8G30G24G 4G 5G 6G 7G 9G10
  22807707.789   -10396475.04149  -8081407.04046  22807708.042    22807715.180
  20453162.065    -2654418.29649  -2062174.12448  20453161.831    20453169.279
  21739214.492     4575218.29249   3474758.81447  21739214.545    21739221.336
  20769262.608    -7138205.45649  -5539308.85248  20769262.019    20769268.935
  24799712.780    -4212356.97049  -3265139.65745  24799712.636    24799722.493
  24135219.103     6150258.29549   4780971.23345  24135218.396    24135227.342
  22028296.591     4514817.58449   3510935.45947  22028296.378    22028303.991
  24242677.479    -5695891.51049  -4415922.63345  24242676.604    24242688.527
 03  4 11 16 35 30.0000000  0  8G30G24G 4G 5G 6G 7G 9G10
  22790037.735   -10489332.05349  -8153763.11146  22790037.945    22790045.138
  20454882.808    -2645375.72549  -2055127.96548  20454882.579    20454890.037
  21753594.593     4650786.24149   3533642.91347  21753594.670    21753601.436
  20760013.180    -7186811.59349  -5577183.75848  20760012.602    20760019.497
  24785804.158    -4285447.65349  -3322093.41645  24785804.095    24785813.766
  24148406.651     6219559.44649   4834972.05445  24148405.976    24148414.872
  22042519.586     4589559.79449   3569176.09247  22042519.381    22042527.032
  24223828.643    -5794941.78749  -4493104.55745  24223827.784    24223839.697
 03  4 11 16 36  0.0000000  0  8G30G24G 4G 5G 6G 7G 9G10
  22772391.719   -10582062.68449  -8226020.72546  22772391.971    22772399.107
  20456705.402    -2635797.89949  -2047664.72548  20456705.168    20456712.637
  21768045.054     4726724.03749   3592815.20347  21768045.156    21768051.947
  20750831.819    -7235059.83849  -5614779.78948  20750831.239    20750838.149
  24771906.963    -4358477.48649  -3378999.73145  24771906.756    24771916.580
  24161597.912     6288879.01149   4888987.23745  24161597.135    24161606.189
  22056812.081     4664666.87849   3627701.04647  22056811.847    22056819.508
  24204977.136    -5894006.69949  -4570297.85845  24204976.224    24204988.086
 03  4 11 16 36 30.0000000  0  8G30G24G 4G 5G 6G 7G 9G10
  22754770.176   -10674664.61749  -8298178.03846  22754770.390    22754777.560
  20458629.665    -2625685.93449  -2039785.27448  20458629.436    20458636.916
  21782565.472     4803029.31549   3652273.84247  21782565.574    21782572.339
  20741718.981    -7282948.11949  -5652095.33048  20741718.397    20741725.308
  24758021.407    -4431446.25949  -3435858.45345  24758021.188    24758031.049
  24174792.498     6358217.18149   4943016.86645  24174791.690    24174800.979
  22071173.436     4740136.24749   3686508.29647  22071173.195    22071180.877
  24186123.480    -5993082.85049  -4647499.92045  24186122.616    24186134.270
 03  4 11 16 37  0.0000000  0  8G30G24G 4G 5G 6G 7G 9G10
  22737173.404   -10767136.20049  -8370233.78346  22737173.632    22737180.724
  20460655.340    -2615041.09249  -2031490.59448  20460655.103    20460662.574
  21797155.281     4879698.90549   3712016.35947  21797155.363    21797162.132
  20732674.980    -7330474.66949  -5689129.00148  20732674.418    20732681.319
  24744147.560    -4504354.52449  -3492670.02645  24744147.313    24744157.005
  24187990.605     6427573.46049   4997060.63945  24187989.893    24187999.106
  22085603.089     4815964.48449   3745595.18147  22085602.865    22085610.567
  24167268.284    -6092167.32349  -4724708.44845  24167267.439    24167278.959
 03  4 11 16 37 30.0000000  0  8G30G24G 4G 5G 6G 7G 9G10
  22719601.892   -10859475.29149  -8442186.30346  22719602.097    22719609.105
  20462782.223    -2603864.15049  -2022781.29148  20462781.991    20462789.467
  21811813.965     4956730.46949   3772040.93647  21811814.025    21811820.781
  20723700.199    -7377637.50049  -5725879.25748  20723699.641    20723706.514
  24730285.099    -4577202.27249  -3549434.48145  24730284.761    24730294.421
  24201192.252     6496948.20149   5051118.79945  24201191.573    24201200.672
  22100100.592     4892149.08649   3804959.75647  22100100.369    22100108.057
  24148412.040    -6191257.07749  -4801921.06845  24148411.183    24148422.617
 03  4 11 16 38  0.0000000  0  8G30G24G 4G 5G 6G 7G 9G10
  22702055.913   -10951680.02749  -8514034.11146  22702056.154    22702063.141
  20465010.090    -2592156.70449  -2013658.60848  20465009.858    20465017.328
  21826540.888     5034120.97349   3832345.20747  21826540.960    21826547.715
  20714794.925    -7424435.00249  -5762344.84148  20714794.356    20714801.221
  24716433.929    -4649989.84449  -3606152.03445  24716433.639    24716443.249
  24214397.363     6566341.03749   5105191.05745  24214396.672    24214405.799
  22114665.328     4968687.05849   3864599.68847  22114665.116    22114672.791
  24129555.434    -6290349.33749  -4879135.65645  24129554.587    24129565.963
 03  4 11 16 38 30.0000000  0  8G30G24G 4G 5G 6G 7G 9G10
  22684536.000   -11043747.85949  -8585775.24046  22684536.193    22684543.242
  20467338.836    -2579919.03849  -2004122.76448  20467338.616    20467346.057
  21841335.607     5111867.92549   3892927.22947  21841335.708    21841342.470
  20705959.617    -7470864.82649  -5798523.92048  20705959.063    20705965.941
  24702594.350    -4722716.69449  -3662822.25645  24702594.120    24702603.858
  24227605.951     6635752.61649   5159277.88645  24227605.207    24227614.543
  22129296.817     5045576.06949   3924513.14947  22129296.627    22129304.333
  24110698.779    -6389440.51849  -4956349.36345  24110697.991    24110709.478
 03  4 11 16 39  0.0000000  0  8G30G24G 4G 5G 6G 7G 9G10
  22667042.434   -11135676.95349  -8657408.27446  22667042.633    22667049.643
  20469768.149    -2567152.96149  -1994175.17048  20469767.905    20469775.370
  21856197.784     5189968.83049   3953785.05847  21856197.879    21856204.660
  20697194.605    -7516925.13749  -5834415.06948  20697194.051    20697200.933
  24688766.439    -4795383.29649  -3719445.53445  24688766.243    24688775.851
  24240818.154     6705182.61149   5213379.08445  24240817.422    24240826.854
  22143994.582     5122812.85349   3984697.60947  22143994.362    22144002.125
  24091843.100    -6488527.49749  -5033559.84445  24091842.285    24091853.687
 03  4 11 16 39 30.0000000  0  8G30G24G 4G 5G 6G 7G 9G10
  22649575.625   -11227465.38149  -8728931.68546  22649575.835    22649582.818
  20472297.786    -2553859.51649  -1983816.64248  20472297.553    20472305.012
  21871126.721     5268420.89949   4014916.51647  21871126.794    21871133.576
  20688500.255    -7562614.27949  -5870016.99748  20688499.710    20688506.603
  24674949.825    -4867990.01649  -3776022.14745  24674949.548    24674959.210
  24254033.736     6774630.86649   5267494.52645  24254033.052    24254042.368
  22158757.910     5200394.65049   4045150.90547  22158757.691    22158765.497
  24072988.625    -6587607.49149  -5110764.87245  24072987.848    24072999.272
 03  4 11 16 40  0.0000000  0  8G30G24G 4G 5G 6G 7G 9G10
  22632136.009   -11319111.10349  -8800343.92246  22632136.238    22632143.128
  20474927.526    -2540040.10449  -1973048.27048  20474927.293    20474934.750
  21886121.927     5347221.08549   4076319.23947  21886122.023    21886128.778
  20679876.896    -7607930.32449  -5905328.20048  20679876.350    20679883.249
  24661144.610    -4940536.88849  -3832552.16345  24661144.396    24661154.031
  24267252.860     6844097.49249   5321624.27345  24267252.092    24267261.520
  22173586.376     5278318.48749   4105870.73047  22173586.166    22173593.917
  24054136.047    -6686677.19049  -5187961.85045  24054135.309    24054146.746
 03  4 11 16 40 30.0000000  0  8G30G24G 4G 5G 6G 7G 9G10
  22614724.022   -11410611.81449  -8871643.14446  22614724.232    22614731.163
  20477657.174    -2525695.67349  -1961870.79348  20477656.963    20477664.415
  21901182.933     5426367.04749   4137991.39147  21901183.026    21901189.830
  20671324.927    -7652871.22749  -5940347.08248  20671324.370    20671331.258
  24647350.673    -5013023.89949  -3889035.51145  24647350.485    24647360.053
  24280475.509     6913582.69549   5375768.48245  24280474.816    24280484.221
  22188479.402     5356581.59949   4166854.92347  22188479.176    22188486.952
  24035286.221    -6785733.57349  -5265148.50345  24035285.448    24035296.760
 03  4 11 16 41  0.0000000  0  8G30G24G 4G 5G 6G 7G 9G10
  22597339.986   -11501965.49549  -8942827.79546  22597340.167    22597347.092
  20480486.537    -2510827.30149  -1950285.04748  20480486.314    20480493.766
  21916309.166     5505855.87849   4199930.71847  21916309.295    21916316.088
  20662844.725    -7697435.03849  -5975072.12648  20662844.171    20662851.053
  24633568.063    -5085451.27649  -3945472.37845  24633567.876    24633577.557
  24293701.787     6983086.40249   5429927.13945  24293701.082    24293710.400
  22203436.403     5435180.95449   4228101.11847  22203436.191    22203444.014
  24016439.468    -6884773.51649  -5342322.36345  24016438.735    24016449.967
 03  4 11 16 41 30.0000000  0  8G30G24G 4G 5G 6G 7G 9G10
  22579984.274   -11593170.11049  -9013896.30046  22579984.472    22579991.394
  20483415.370    -2495436.17149  -1938291.95648  20483415.147    20483422.612
  21931500.218     5585685.25849   4262135.40247  21931500.298    21931507.143
  20654436.619    -7741619.83849  -6009501.83848  20654436.071    20654442.969
  24619797.007    -5157818.97849  -4001862.75945  24619796.819    24619806.405
  24306931.446     7052608.71549   5484100.24445  24306930.731    24306940.259
  22218456.818     5514113.74149   4289607.13647  22218456.613    22218464.486
  23997596.408    -6983794.01949  -5419481.06745  23997595.611    23997606.900
 03  4 11 16 42  0.0000000  0  8G30G24G 4G 5G 6G 7G 9G10
  22562657.359   -11684223.43149  -9084846.91446  22562657.587    22562664.467
  20486443.421    -2479523.74249  -1925892.66048  20486443.200    20486450.670
  21946755.477     5665852.21149   4324603.13647  21946755.577    21946762.440
  20646101.015    -7785423.79149  -6043634.78748  20646100.472    20646107.383
  24606037.238    -5230126.96649  -4058206.61645  24606036.995    24606046.684
  24320164.820     7122149.72349   5538287.96645  24320164.101    24320173.484
  22233540.154     5593377.21049   4351370.82047  22233539.971    22233547.854
  23978757.678    -7082791.70949  -5496622.00945  23978756.813    23978768.119
 03  4 11 16 42 30.0000000  0  8G30G24G 4G 5G 6G 7G 9G10
  22545359.590   -11775123.36749  -9155677.99346  22545359.842    22545366.818
  20489570.417    -2463091.19049  -1913088.07648  20489570.196    20489577.669
  21962074.459     5746354.04049   4387331.81047  21962074.582    21962081.440
  20637838.221    -7828845.05949  -6077469.54248  20637837.672    20637844.613
  24592288.792    -5302375.46349  -4114504.12045  24592288.563    24592298.128
  24333401.593     7191709.42249   5592490.21345  24333400.956    24333410.326
  22248685.929     5672968.42349   4413389.89647  22248685.755    22248693.611
  23959923.875    -7181763.61149  -5573742.87845  23959923.031    23959934.185
 03  4 11 16 43  0.0000000  0  8G30G24G 4G 5G 6G 7G 9G10
  22528091.483   -11865867.79449  -9226387.90346  22528091.727    22528098.646
  20492796.177    -2446139.70649  -1899879.12448  20492795.943    20492803.436
  21977456.693     5827188.12249   4450319.38347  21977456.823    21977463.699
  20629648.617    -7871881.72149  -6111004.60148  20629648.072    20629655.018
  24578551.694    -5374564.59049  -4170755.35445  24578551.393    24578560.903
  24346642.062     7261287.94949   5646707.15445  24346641.401    24346650.780
  22263893.477     5752884.54349   4475662.13947  22263893.297    22263901.212
  23941095.599    -7280706.30149  -5650840.99545  23941094.765    23941105.913
 03  4 11 16 43 30.0000000  0  8G30G24G 4G 5G 6G 7G 9G10
  22510853.285   -11956454.61749  -9296975.00846  22510853.571    22510860.515
  20496120.431    -2428670.69449  -1886266.90348  20496120.211    20496127.703
  21992901.614     5908351.52449   4513563.56847  21992901.741    21992908.611
  20621532.464    -7914532.10649  -6144238.66348  20621531.921    20621538.872
  24564825.793    -5446694.53349  -4226960.46145  24564825.495    24564835.083
  24359886.004     7330885.25349   5700938.71145  24359885.282    24359894.850
  22279162.289     5833122.58349   4538185.23047  22279162.107    22279170.085
  23922273.454    -7379616.82649  -5727914.05145  23922272.636    23922283.750
 03  4 11 16 44  0.0000000  0  8G30G24G 4G 5G 6G 7G 9G10
  22493645.528   -12046881.69449  -9367437.63746  22493645.853    22493652.798
  20499542.874    -2410685.73449  -1872252.65048  20499542.652    20499550.147
  22008408.695     5989841.91449   4577062.54447  22008408.816    22008415.749
  20613490.257    -7956794.22449  -6177170.17948  20613489.728    20613496.696
  24551111.010    -5518765.46449  -4283119.55545  24551110.799    24551120.425
  24373133.607     7400501.44149   5755184.98845  24373133.030    24373142.494
  22294491.833     5913679.58849   4600956.86447  22294491.664    22294499.632
  23903458.097    -7478491.86249  -5804959.47145  23903457.271    23903468.345
 03  4 11 16 44 30.0000000  0  8G30G24G 4G 5G 6G 7G 9G10
  22476468.668   -12137146.92549  -9437774.15446  22476468.885    22476475.842
  20503063.276    -2392185.84449  -1857837.15148  20503063.065    20503070.553
  22023977.486     6071656.30349   4640813.99347  22023977.588    22023984.492
  20605522.283    -7998666.23849  -6209797.71948  20605521.754    20605528.720
  24537407.577    -5590777.59049  -4339232.86645  24537407.406    24537416.977
  24386384.868     7470136.47449   5809445.93445  24386384.138    24386393.727
  22309881.501     5994552.55549   4663974.70347  22309881.340    22309889.318
  23884650.060    -7577328.35949  -5881974.82945  23884649.291    23884660.340
 03  4 11 16 45  0.0000000  0  8G30G24G 4G 5G 6G 7G 9G10
  22459322.927   -12227248.18349  -9507982.89346  22459323.194    22459330.126
  20506681.339    -2373172.73249  -1843021.74148  20506681.120    20506688.604
  22039607.391     6153791.91649   4704815.74947  22039607.507    22039614.404
  20597628.876    -8040146.29949  -6242119.84348  20597628.339    20597635.327
  24523715.346    -5662730.94649  -4395300.37145  24523715.225    24523724.600
  24399639.609     7539790.37149   5863721.59545  24399639.101    24399648.459
  22325330.735     6075738.64449   4727236.53147  22325330.585    22325338.554
  23865849.906    -7676123.58049  -5958958.03645  23865849.117    23865860.219
 03  4 11 16 45 30.0000000  0  8G30G24G 4G 5G 6G 7G 9G10
  22442208.895   -12317183.28249  -9578062.15846  22442209.132    22442216.088
  20510396.930    -2353647.26249  -1827807.09348  20510396.718    20510404.182
  22055297.951     6236246.26449   4769065.86147  22055298.055    22055304.968
  20589810.445    -8081232.39549  -6274134.98048  20589809.911    20589816.900
  24510034.189    -5734625.71749  -4451322.23745  24510034.037    24510043.600
  24412898.009     7609463.46049   5918012.19545  24412897.482    24412906.865
  22340839.053     6157235.07849   4790740.18547  22340838.899    22340846.861
  23847058.165    -7774873.84849  -6035906.18945  23847057.336    23847068.606
 03  4 11 16 46  0.0000000  0  8G30G24G 4G 5G 6G 7G 9G10
  22425126.921   -12406949.71749  -9648009.99746  22425127.118    22425134.020
  20514209.769    -2333610.73349  -1812194.21748  20514209.548    20514217.025
  22071048.659     6319016.70049   4833562.27747  22071048.771    22071055.696
  20582067.348    -8121922.69749  -6305841.70648  20582066.832    20582073.800
  24496364.153    -5806461.81849  -4507298.39145  24496363.971    24496373.626
  24426160.128     7679155.76049   5972317.77545  24426159.521    24426169.000
  22356405.831     6239038.85549   4854483.33447  22356405.672    22356413.636
  23828275.798    -7873575.83749  -6112816.73245  23828274.939    23828286.180
 03  4 11 16 46 30.0000000  0  8G30G24G 4G 5G 6G 7G 9G10
  22408077.405   -12496545.49449  -9717824.86746  22408077.621    22408084.438
  20518119.444    -2313065.13949  -1796184.66548  20518119.222    20518126.728
  22086859.017     6402100.47949   4898302.86447  22086859.136    22086866.045
  20574399.942    -8162215.31949  -6337238.55048  20574399.410    20574406.364
  24482705.285    -5878239.15149  -4563228.71545  24482705.165    24482714.762
  24439425.824     7748867.43649   6026638.42545  24439425.277    24439434.952
  22372030.469     6321146.98749   4918463.63547  22372030.326    22372038.310
  23809503.130    -7972226.38049  -6189687.17645  23809502.305    23809513.582
 03  4 11 16 47  0.0000000  0  8G30G24G 4G 5G 6G 7G 9G10
  22391060.781   -12585968.49049  -9787505.08346  22391060.981    22391067.833
  20522125.751    -2292011.93649  -1779779.57148  20522125.538    20522133.054
  22102728.487     6485494.79849   4963285.42947  22102728.579    22102735.477
  20566808.489    -8202108.62549  -6368324.23948  20566807.965    20566814.913
  24469057.554    -5949958.15649  -4619113.61845  24469057.444    24469066.960
  24452695.274     7818598.47649   6080974.18645  24452694.652    24452704.303
  22387712.527     6403556.41249   4982678.71447  22387712.389    22387720.358
  23790740.818    -8070822.39849  -6266515.12545  23790739.954    23790751.155
 03  4 11 16 47 30.0000000  0  8G30G24G 4G 5G 6G 7G 9G10
  22374077.356   -12675216.79349  -9857049.18246  22374077.549    22374084.439
  20526228.371    -2270452.54749  -1762980.05248  20526228.168    20526235.672
  22118656.403     6569196.71949   5028507.67647  22118656.523    22118663.439
  20559293.371    -8241600.76549  -6399097.33248  20559292.858    20559299.805
  24455421.041    -6021619.14349  -4674953.29545  24455420.755    24455430.341
  24465968.449     7888348.60349   6135324.80645  24465967.863    24465977.492
  22403451.404     6486264.13049   5047126.22147  22403451.243    22403459.211
  23771989.486    -8169360.86249  -6343298.21545  23771988.675    23771999.809
 03  4 11 16 48  0.0000000  0  8G30G24G 4G 5G 6G 7G 9G10
  22357127.619   -12764287.93349  -9926455.23446  22357127.813    22357134.726
  20530427.106    -2248388.08749  -1745786.96748  20530426.911    20530434.386
  22134642.454     6653203.86449   5093967.76447  22134642.556    22134649.456
  20551854.945    -8280689.84549  -6429556.35248  20551854.427    20551861.372
  24441795.416    -6093222.02349  -4730747.70245  24441795.128    24441804.748
  24479245.258     7958118.22949   6189690.60645  24479244.591    24479254.317
  22419246.368     6569267.27649   5111803.93247  22419246.179    22419254.250
  23753249.931    -8267838.23249  -6420033.70845  23753249.048    23753260.091
 03  4 11 16 48 30.0000000  0  8G30G24G 4G 5G 6G 7G 9G10
  22340211.998   -12853179.70949  -9995721.51546  22340212.193    22340219.192
  20534721.620    -2225820.23349  -1728201.62848  20534721.408    20534728.893
  22150686.034     6737513.42949   5159663.50347  22150686.129    22150693.077
  20544493.571    -8319374.12749  -6459699.94448  20544493.073    20544500.008
  24428180.856    -6164766.83249  -4786496.86145  24428180.543    24428190.190
  24492525.811     8027907.43749   6244071.66445  24492525.237    24492534.871
  22435097.048     6652562.88649   5176709.53647  22435096.875    22435104.935
  23734522.404    -8366251.44549  -6496719.18245  23734521.512    23734532.550
 03  4 11 16 49  0.0000000  0  8G30G24G 4G 5G 6G 7G 9G10
  22323330.954   -12941889.82649 -10064846.25746  22323331.180    22323338.245
  20539111.741    -2202750.04949  -1710224.86648  20539111.559    20539119.040
  22166786.670     6822122.90549   5225592.94047  22166786.793    22166793.725
  20537209.644    -8357651.62449  -6489526.56148  20537209.126    20537216.047
  24414577.381    -6236253.37849  -4842200.60745  24414577.130    24414586.664
  24505810.161     8097716.54249   6298468.21645  24505809.581    24505819.226
  22451002.919     6736148.34949   5241841.00547  22451002.744    22451010.803
  23715807.759    -8464597.20449  -6573352.10145  23715806.859    23715817.813
 03  4 11 16 49 30.0000000  0  8G30G24G 4G 5G 6G 7G 9G10
  22306484.885   -13030415.98449 -10133827.65246  22306485.142    22306492.211
  20543597.102    -2179179.29049  -1691858.04248  20543596.924    20543604.406
  22182943.912     6907029.60949   5291753.98347  22182943.998    22182950.980
  20530003.444    -8395520.71549  -6519034.94248  20530002.895    20530009.834
  24400984.943    -6307682.00049  -4897859.21145  24400984.680    24400994.210
  24519098.194     8167545.37049   6352880.16645  24519097.602    24519107.277
  22466963.312     6820020.65249   5307195.97747  22466963.165    22466971.268
  23697106.547    -8562872.19549  -6649929.87445  23697105.695    23697116.540
 03  4 11 16 50  0.0000000  0  8G30G24G 4G 5G 6G 7G 9G10
  22289674.244   -13118756.21749 -10202664.16346  22289674.500    22289681.611
  20548177.382    -2155109.70749  -1673102.52448  20548177.183    20548184.683
  22199157.067     6992230.43849   5358144.21047  22199157.193    22199164.190
  20522875.205    -8432979.70849  -6548223.76748  20522874.679    20522881.610
  24387403.416    -6379053.01749  -4953472.93045  24387403.182    24387412.684
  24532390.055     8237394.13249   6407307.60145  24532389.440    24532399.259
  22482977.724     6904176.60549   5372771.97847  22482977.588    22482985.675
  23678419.416    -8661073.28149  -6726450.06545  23678418.533    23678429.336
 03  4 11 16 50 30.0000000  0  8G30G24G 4G 5G 6G 7G 9G10
  22272899.407   -13206908.11249 -10271353.92346  22272899.723    22272906.835
  20552852.340    -2130542.51349  -1653959.26248  20552852.166    20552859.652
  22215425.792     7077723.11149   5424761.85447  22215425.931    22215432.943
  20515825.385    -8470026.70449  -6577091.55548  20515824.870    20515831.793
  24373832.821    -6450366.50549  -5009041.84845  24373832.637    24373842.164
  24545685.953     8307262.98049   6461750.72445  24545685.185    24545695.004
  22499045.544     6988613.12249   5438566.60547  22499045.415    22499053.452
  23659746.764    -8759197.25449  -6802910.15745  23659745.999    23659756.903
 03  4 11 16 51  0.0000000  0  8G30G24G 4G 5G 6G 7G 9G10
  22256160.810   -13294869.71049 -10339895.40146  22256161.150    22256168.241
  20557621.686    -2105479.48949  -1634429.63548  20557621.495    20557629.008
  22231749.510     7163504.71249   5491604.63047  22231749.610    22231756.680
  20508854.273    -8506660.06149  -6605637.02648  20508853.756    20508860.658
  24360273.232    -6521622.70349  -5064566.11345  24360273.004    24360282.443
  24558985.468     8377151.75149   6516209.36645  24558984.799    24558994.469
  22515166.087     7073326.98949   5504577.34147  22515165.925    22515174.000
  23641089.735    -8857240.62149  -6879307.43145  23641088.855    23641099.959
 03  4 11 16 51 30.0000000  0  8G30G24G 4G 5G 6G 7G 9G10
  22239458.986   -13382638.39749 -10408286.56246  22239459.313    22239466.387
  20562485.052    -2079922.20549  -1614514.87148  20562484.888    20562492.420
  22248127.710     7249572.63049   5558670.51647  22248127.832    22248134.929
  20501962.301    -8542877.80049  -6633858.63948  20501961.777    20501968.695
  24346724.502    -6592821.47949  -5120045.62645  24346724.364    24346733.804
  24572288.800     8447060.85449   6570683.83845  24572288.249    24572297.902
  22531338.941     7158315.70949   5570802.24647  22531338.778    22531346.897
  23622448.542    -8955200.27949  -6955639.51045  23622447.601    23622458.640
 03  4 11 16 52  0.0000000  0  8G30G24G 4G 5G 6G 7G 9G10
  22222794.256   -13470212.28549 -10476525.93446  22222794.589    22222801.553
  20567442.174    -2053872.51349  -1594216.41648  20567441.996    20567449.514
  22264559.861     7335923.93549   5625957.21747  22264559.956    22264567.032
  20495149.687    -8578678.33049  -6661755.15648  20495149.154    20495156.064
  24333186.566    -6663963.22149  -5175480.70945  24333186.416    24333195.911
  24585595.970     8516990.01449   6625173.91445  24585595.316    24585605.144
  22547563.490     7243575.82249   5637238.63247  22547563.337    22547571.452
  23603823.749    -9053073.33849  -7031904.08545  23603822.913    23603833.910
 03  4 11 16 52 30.0000000  0  8G30G24G 4G 5G 6G 7G 9G10
  22206167.019   -13557588.98749 -10544611.65147  22206167.350    22206174.309
  20572492.769    -2027331.52449  -1573535.13448  20572492.600    20572500.133
  22281045.523     7422556.25949   5693462.90247  22281045.613    22281052.666
  20488416.851    -8614059.65349  -6689325.02148  20488416.325    20488423.255
  24319659.639    -6735047.75349  -5230871.21345  24319659.490    24319668.960
  24598907.084     8586939.76049   6679680.04345  24598906.601    24598916.377
  22563839.136     7329104.81049   5703884.52347  22563838.979    22563847.120
  23585216.229    -9150856.11849  -7108098.36645  23585215.375    23585226.291
 03  4 11 16 53  0.0000000  0  8G30G24G 4G 5G 6G 7G 9G10
  22189577.802   -13644766.27749 -10612541.98547  22189578.075    22189585.007
  20577636.480    -2000301.05349  -1552472.43748  20577636.319    20577643.884
  22297583.998     7509466.55549   5761185.17847  22297584.134    22297591.207
  20481763.980    -8649020.44549  -6716567.19848  20481763.490    20481770.427
  24306143.548    -6806075.39749  -5286217.37445  24306143.358    24306152.893
  24612222.113     8656909.86849   6734202.06945  24612221.583    24612231.275
  22580165.340     7414899.29849   5770737.30047  22580165.157    22580173.381
  23566626.473    -9248545.56549  -7184219.89345  23566625.584    23566636.468
 03  4 11 16 53 30.0000000  0  8G30G24G 4G 5G 6G 7G 9G10
  22173026.934   -13731741.67249 -10680314.99647  22173027.232    22173034.094
  20582873.045    -1972782.79149  -1531029.64048  20582872.864    20582880.441
  22314174.946     7596652.41749   5829122.18346  22314175.048    22314182.148
  20475191.571    -8683558.65149  -6743480.08948  20475191.080    20475198.010
  24292638.148    -6877046.12949  -5341519.19145  24292638.017    24292647.589
  24625541.015     8726900.77949   6788740.25345  24625540.403    24625550.274
  22596541.544     7500956.58649   5837794.85547  22596541.380    22596549.621
  23548055.057    -9346138.17249  -7260265.99645  23548054.242    23548065.030
 03  4 11 16 54  0.0000000  0  7G30G24G 4G 5G 6G 9G10
  22156515.214   -13818511.12049 -10747927.52647  22156515.533    22156522.435
  20588202.480    -1944776.37549  -1509206.46548  20588202.314    20588209.876
  22330818.208     7684113.06049   5897273.30246  22330818.276    22330825.334
  20468700.291    -8717670.74549  -6770060.94048  20468699.774    20468706.692
  24279144.022    -6947958.25049  -5396775.35345  24279143.928    24279153.463
  22612967.499     7587275.54149   5905056.30047  22612967.358    22612975.644
  23529503.128    -9443629.00349  -7336232.79445  23529502.285    23529513.037
 03  4 11 16 54 30.0000000  0  7G30G24G 4G 5G 6G 9G10
  22140042.735   -13905074.87549 -10815379.77047  22140042.977    22140049.820
  20593624.033    -1916286.00549  -1487006.18148  20593623.831    20593631.391
  22347512.805     7771843.41149   5965634.59246  22347512.839    22347519.872
  20462289.959    -8751357.39849  -6796310.27948  20462289.432    20462296.357
  24265660.652    -7018814.20049  -5451987.72845  24265660.493    24265670.002
  22629442.282     7673850.68449   5972517.38247  22629442.113    22629450.397
  23510970.728    -9541017.01949  -7412119.46445  23510969.864    23510980.694
 03  4 11 16 55  0.0000000  0  7G30G24G 4G 5G 6G 9G10
  22123609.832   -13991430.36549 -10882669.73247  22123610.074    22123616.935
  20599137.419    -1887312.99949  -1464429.81748  20599137.244    20599144.790
  22364258.146     7859840.91249   6034204.04446  22364258.246    22364265.280
  20455960.919    -8784616.68649  -6822226.61148  20455960.433    20455967.353
  24252187.869    -7089613.79649  -5507156.18845  24252187.710    24252197.220
  22645965.252     7760679.22349   6040175.90847  22645965.104    22645973.374
  23492458.608    -9638298.60149  -7487923.24245  23492457.780    23492468.515
 03  4 11 16 55 30.0000000  0  7G30G24G 4G 5G 6G 9G10
  22107216.994   -14077575.37849 -10949795.69647  22107217.232    22107224.005
  20604742.285    -1857859.26149  -1441478.85748  20604742.114    20604749.664
  22381053.831     7948102.81349   6102979.52046  22381053.969    22381061.013
  20449713.510    -8817447.13149  -6847808.77748  20449713.018    20449719.930
  24238725.747    -7160357.41849  -5562281.06045  24238725.610    24238735.021
  22662535.962     7847758.02349   6108029.45047  22662535.793    22662544.024
  23473967.226    -9735470.84549  -7563641.79945  23473966.421    23473977.089
 03  4 11 16 56  0.0000000  0  7G30G24G 4G 5G 6G 9G10
  22090864.668   -14163507.19049 -11016755.52547  22090864.952    22090871.713
  20610438.365    -1827926.09449  -1418154.31548  20610438.201    20610445.739
  22397899.419     8036626.88949   6171959.29746  22397899.567    22397906.629
  20443548.108    -8849846.63249  -6873055.14248  20443547.606    20443554.491
  24225274.383    -7231044.70249  -5617362.00945  24225274.242    24225283.622
  22679153.639     7935084.54449   6176076.00747  22679153.489    22679161.791
  23455497.516    -9832529.81649  -7639272.14445  23455496.728    23455507.270
 03  4 11 16 56 30.0000000  0  7G30G24G 4G 5G 6G 9G10
  22074553.325   -14249223.90249 -11083547.74047  22074553.574    22074560.346
  20616225.351    -1797515.52749  -1394457.77248  20616225.174    20616232.699
  22414794.315     8125410.11549   6241141.00346  22414794.481    22414801.524
  20437464.937    -8881813.79649  -6897964.62348  20437464.448    20437471.332
  24211833.619    -7301676.01549  -5672399.34445  24211833.536    24211842.882
  22695817.890     8022655.43149   6244312.98747  22695817.742    22695826.021
  23437049.874    -9929472.49749  -7714811.81945  23437049.068    23437059.643
 03  4 11 16 57  0.0000000  0  7G30G24G 4G 5G 6G 9G10
  22058283.343   -14334722.96649 -11150170.36947  22058283.618    22058290.371
  20622102.852    -1766629.04849  -1370390.39248  20622102.675    20622110.204
  22431738.022     8214449.93949   6310522.65646  22431738.181    22431745.230
  20431464.422    -8913346.71349  -6922535.73148  20431463.942    20431470.836
  24198403.655    -7372251.37149  -5727393.07345  24198403.484    24198412.793
  22712528.053     8110467.78749   6312738.11946  22712527.904    22712536.251
  23418625.041   -10026295.62249  -7790258.35845  23418624.154    23418634.746
 03  4 11 16 57 30.0000000  0  7G30G24G 4G 5G 6G 9G10
  22042055.270   -14420001.97349 -11216621.52147  22042055.562    22042062.286
  20628070.554    -1735268.46349  -1345953.57848  20628070.384    20628077.907
  22448730.192     8303744.01049   6380102.42346  22448730.377    22448737.398
  20425546.887    -8944443.61549  -6946767.08348  20425546.398    20425553.305
  24184984.322    -7442770.70949  -5782343.16245  24184984.034    24184993.327
  22729283.648     8198518.68349   6381349.12646  22729283.504    22729291.865
  23400223.522   -10122995.74249  -7865609.06445  23400222.723    23400233.203
 03  4 11 16 58  0.0000000  0  7G30G24G 4G 5G 6G 9G10
  22025869.534   -14505058.75149 -11282899.50547  22025869.808    22025876.524
  20634128.222    -1703435.33849  -1321148.55448  20634128.050    20634135.570
  22465770.160     8393289.27449   6449877.92046  22465770.291    22465777.371
  20419712.595    -8975103.07749  -6970657.57748  20419712.117    20419719.016
  24171575.437    -7513234.38749  -5837249.89545  24171575.276    24171584.435
  22746084.064     8286805.08049   6450143.64246  22746083.934    22746092.286
  23381846.097   -10219569.48449  -7940861.27745  23381845.315    23381855.850
 03  4 11 16 58 30.0000000  0  7G30G24G 4G 5G 6G 9G10
  22009726.517   -14589890.74149 -11349002.33247  22009726.793    22009733.461
  20640275.494    -1671131.28749  -1295976.57348  20640275.315    20640282.853
  22482857.469     8483083.45149   6519847.38546  22482857.581    22482864.653
  20413961.940    -9005323.12749  -6994205.67048  20413961.439    20413968.366
  24158177.272    -7583642.10849  -5892113.01145  24158177.102    24158186.197
  22762928.766     8375324.26849   6519119.55046  22762928.603    22762937.009
  23363493.320   -10316013.56749  -8016012.45945  23363492.491    23363503.011
 03  4 11 16 59  0.0000000  0  7G30G24G 4G 5G 6G 9G10
  21993626.694   -14674495.76849 -11414928.30147  21993627.009    21993633.704
  20646511.968    -1638358.37449  -1270439.24548  20646511.787    20646519.322
  22499991.646     8573123.82749   6590008.69246  22499991.710    22499998.771
  20408295.149    -9035102.37349  -7017410.28448  20408294.662    20408301.583
  24144789.677    -7653994.15849  -5946932.74945  24144789.440    24144798.569
  22779817.116     8464072.62649   6588274.02646  22779816.941    22779825.361
  23345165.937   -10412324.63649  -8091059.98145  23345165.069    23345175.639
 03  4 11 16 59 30.0000000  0  7G30G24G 4G 5G 6G 9G10
  21977570.529   -14758871.39949 -11480675.52147  21977570.844    21977577.539
  20652837.314    -1605118.28849  -1244537.88448  20652837.148    20652844.700
  22517172.089     8663407.74149   6660359.76646  22517172.166    22517179.255
  20402712.593    -9064438.91349  -7040269.92848  20402712.076    20402719.001
  24131412.611    -7724290.57349  -6001709.12945  24131412.401    24131421.591
  22796748.553     8553047.71249   6657605.17146  22796748.399    22796756.829
  23326864.459   -10508499.21249  -8166001.15345  23326863.629    23326874.129
 03  4 11 17  0  0.0000000  0  7G30G24G 4G 5G 6G 9G10
  21961558.474   -14843015.24649 -11546242.13047  21961558.779    21961565.448
  20659251.291    -1571412.71149  -1218273.80848  20659251.118    20659258.647
  22534398.466     8753932.66449   6730898.64146  22534398.550    22534405.629
  20397214.635    -9093330.85449  -7062783.13248  20397214.142    20397221.054
  24118046.111    -7794531.14049  -6056441.97645  24118045.925    24118055.220
  22813722.581     8642246.46049   6727110.61746  22813722.438    22813730.866
  23308589.664   -10604533.98949  -8240833.38246  23308588.850    23308599.325
 03  4 11 17  0 30.0000000  0  7G30G24G 4G 5G 6G 9G10
  21945590.945   -14926924.97049 -11611626.30447  21945591.293    21945597.953
  20665753.451    -1537243.68449  -1191648.60148  20665753.287    20665760.831
  22551670.145     8844696.03449   6801623.31246  22551670.214    22551677.346
  20391801.518    -9121776.98549  -7084948.95448  20391801.020    20391807.937
  24104690.340    -7864716.24149  -6111131.62245  24104690.150    24104699.379
  22830738.589     8731665.77649   6796787.92246  22830738.429    22830746.883
  23290341.975   -10700425.59449  -8315554.05346  23290341.222    23290351.684
 03  4 11 17  1  0.0000000  0  7G30G24G 4G 5G 6G 9G10
  21929668.452   -15010598.22649 -11676826.22047  21929668.766    21929675.487
  20672343.472    -1502613.03749  -1164663.69148  20672343.295    20672350.847
  22568986.638     8935694.94849   6872531.52746  22568986.746    22568993.893
  20386473.536    -9149775.72149  -7106766.15748  20386473.048    20386479.965
  24091345.123    -7934845.85649  -6165778.03545  24091344.929    24091354.084
  22847795.908     8821302.60849   6866634.70246  22847795.780    22847804.340
  23272122.245   -10796170.96749  -8390160.76146  23272121.485    23272131.897
 03  4 11 17  1 30.0000000  0  7G30G24G 4G 5G 6G 9G10
  21913791.423   -15094032.80649 -11741840.15447  21913791.698    21913798.439
  20679020.979    -1467522.56849  -1137320.48048  20679020.822    20679028.363
  22586347.486     9026926.82549   6943621.26846  22586347.597    22586354.770
  20381230.994    -9177325.57749  -7128233.58848  20381230.498    20381237.414
  24078010.379    -8004920.25049  -6220381.41545  24078010.111    24078019.298
  22864894.143     8911154.11349   6936648.78046  22864894.023    22864902.557
  23253930.870   -10891766.71249  -8464650.88346  23253930.159    23253940.556
 03  4 11 17  2  0.0000000  0  7G30G24G 4G 5G 6G 9G10
  21897960.228   -15177226.36549 -11806666.28247  21897960.497    21897967.220
  20685785.632    -1431974.12749  -1109620.40748  20685785.459    20685792.988
  22603752.206     9118389.07349   7014890.51146  22603752.308    22603759.505
  20376074.158    -9204424.95949  -7149349.99848  20376073.638    20376080.579
  24064686.100    -8074939.54849  -6274941.86745  24064685.915    24064695.057
  22882032.678     9001217.03449   7006827.58846  22882032.518    22882041.003
  23235768.794   -10987209.15249  -8539021.53446  23235768.033    23235778.469
 03  4 11 17  2 30.0000000  0  7G30G24G 4G 5G 6G 9G10
  21882175.227   -15260176.85049 -11871302.99847  21882175.485    21882182.259
  20692636.995    -1395969.89249  -1081565.17248  20692636.826    20692644.381
  22621200.160     9210078.58549   7086336.85446  22621200.269    22621207.465
  20371003.235    -9231072.76749  -7170114.53048  20371002.738    20371009.684
  24051372.246    -8144904.09049  -6329459.66845  24051372.072    24051381.230
  22899210.783     9091488.00849   7077168.52246  22899210.606    22899219.079
  23217636.354   -11082495.47449  -8613270.54646  23217635.565    23217645.911
 03  4 11 17  3  0.0000000  0  7G30G24G 4G 5G 6G 9G10
  21866437.061   -15342881.58249 -11935748.22647  21866437.311    21866444.066
  20699574.871    -1359511.24949  -1053155.85248  20699574.713    20699582.278
  22638691.003     9301993.41649   7157958.76946  22638691.090    22638698.293
  20366018.673    -9257266.82349  -7190525.48948  20366018.179    20366025.125
  24038068.866    -8214813.65049  -6383934.61445  24038068.642    24038077.863
  22916427.870     9181964.41449   7147669.51946  22916427.707    22916436.256
  23199534.360   -11177621.94649  -8687394.97446  23199533.538    23199543.990
 03  4 11 17  3 30.0000000  0  7G30G24G 4G 5G 6G 9G10
  21850746.115   -15425337.96149 -11999999.93147  21850746.393    21850753.110
  20706598.794    -1322600.32749  -1024394.11148  20706598.640    20706606.225
  22656224.133     9394130.82949   7229754.12446  22656224.262    22656231.495
  20361120.757    -9283005.57049  -7210581.66148  20361120.260    20361127.222
  24024775.911    -8284668.23349  -6438366.73745  24024775.773    24024785.005
  22933683.470     9272643.31749   7218328.30946  22933683.321    22933691.971
  23181463.359   -11272585.29549  -8761392.31746  23181462.567    23181472.829
 03  4 11 17  4  0.0000000  0  7G30G24G 4G 5G 6G 9G10
  21835102.799   -15507543.82349 -12064056.41947  21835103.073    21835109.862
  20713708.441    -1285238.87449   -995281.30448  20713708.288    20713715.865
  22673799.160     9486488.38149   7301721.00946  22673799.365    22673806.580
  20356309.723    -9308287.67849  -7230282.00948  20356309.230    20356316.183
  24011493.520    -8354467.88849  -6492756.03645  24011493.379    24011502.435
  22950977.059     9363521.61249   7289142.47646  22950976.969    22950985.625
  23163424.037   -11367382.13149  -8835259.86546  23163423.276    23163433.673
 03  4 11 17  4 30.0000000  0  7G30G24G 4G 5G 6G 9G10
  21819507.659   -15589496.63449 -12127915.73347  21819507.959    21819514.760
  20720903.466    -1247428.71549   -965818.85548  20720903.307    20720910.907
  22691415.581     9579063.16649   7373857.16946  22691415.800    22691423.041
  20351585.903    -9333111.63649  -7249625.35848  20351585.401    20351592.338
  23998221.424    -8424212.74349  -6547102.62145  23998221.247    23998230.409
  22968308.086     9454596.34949   7360109.71646  22968308.011    22968316.660
  23145417.013   -11462009.23949  -8908995.18646  23145416.271    23145426.588
 03  4 11 17  5  0.0000000  0  7G30G24G 4G 5G 6G 9G10
  21803961.085   -15671194.37949 -12191576.29547  21803961.381    21803968.163
  20728183.457    -1209172.04849   -936008.48048  20728183.317    20728190.923
  22709072.860     9671852.53049   7446160.52646  22709073.076    22709080.324
  20346949.505    -9357476.09449  -7268610.65548  20346949.010    20346955.964
  23984959.763    -8493903.04949  -6601406.68945  23984959.668    23984968.834
  22985676.059     9545864.31349   7431227.51946  22985675.918    22985684.496
  23127442.897   -11556463.29549  -8982595.63846  23127442.116    23127452.467
 03  4 11 17  5 30.0000000  0  7G30G24G 4G 5G 6G 9G10
  21788463.430   -15752634.89749 -12255036.41847  21788463.730    21788470.520
  20735548.006    -1170471.16949   -905851.96148  20735547.859    20735555.485
  22726770.458     9764853.81049   7518629.01146  22726770.634    22726777.852
  20342400.765    -9381379.78949  -7287236.91648  20342400.279    20342407.229
  23971708.494    -8563539.08649  -6655668.45645  23971708.311    23971717.478
  23003079.943     9637322.17749   7502493.28646  23003079.809    23003088.434
  23109502.347   -11650741.31149  -9056058.94046  23109501.635    23109511.944
 03  4 11 17  6  0.0000000  0  7G30G24G 4G 5G 6G 9G10
  21773015.272   -15833815.35949 -12318293.90347  21773015.585    21773022.350
  20742996.767    -1131327.60849   -875350.49748  20742996.652    20743004.287
  22744507.898     9858064.52949   7591260.71546  22744508.104    22744515.298
  20337940.079    -9404820.94649  -7305502.75648  20337939.587    20337946.517
  23958467.472    -8633120.57249  -6709887.71645  23958467.388    23958476.470
  23020519.441     9728967.35849   7573905.01846  23020519.326    23020527.976
  23091596.009   -11744839.40349  -9129382.02446  23091595.281    23091605.636
 03  4 11 17  6 30.0000000  0  7G30G24G 4G 5G 6G 9G10
  21757617.031   -15914733.28949 -12381346.82047  21757617.375    21757624.145
  20750529.515    -1091742.96949   -844505.33948  20750529.377    20750536.978
  22762284.767     9951482.48349   7664053.88746  22762284.958    22762292.188
  20333567.732    -9427797.75349  -7323406.76548  20333567.254    20333574.191
  23945236.959    -8702647.45749  -6764064.42545  23945236.817    23945245.868
  23037994.072     9820796.80649   7645460.34346  23037993.949    23038002.655
  23073724.661   -11838754.13549  -9202562.23946  23073723.823    23073734.155
 03  4 11 17  7  0.0000000  0  7G30G24G 4G 5G 6G 9G10
  21742269.262   -15995386.46549 -12444193.43947  21742269.600    21742276.343
  20758145.708    -1051719.85549   -813318.50948  20758145.555    20758153.134
  22780100.504    10045104.72749   7737006.24746  22780100.704    22780107.939
  20329283.990    -9450309.16849  -7340948.13448  20329283.510    20329290.439
  23932016.691    -8772120.19149  -6818198.94845  23932016.530    23932025.678
  23055503.134     9912807.10249   7717156.57646  23055503.017    23055511.770
  23055888.643   -11932482.46649  -9275597.22546  23055887.861    23055898.031
 03  4 11 17  7 30.0000000  0  7G30G24G 4G 5G 6G 9G10
  21726972.272   -16075772.84749 -12506832.16347  21726972.600    21726979.324
  20765844.968    -1011260.04849   -781791.40148  20765844.815    20765852.390
  22797954.601    10138928.59049   7810115.70646  22797954.805    22797962.098
  20325089.035    -9472353.82249  -7358125.79348  20325088.544    20325095.484
  23918806.779    -8841539.02749  -6872291.50945  23918806.615    23918815.685
  23073046.095    10004995.49549   7788991.58546  23073045.972    23073054.765
  23038088.831   -12026020.96349  -9348484.27646  23038088.013    23038098.224
 03  4 11 17  8  0.0000000  0  7G30G24G 4G 5G 6G 9G10
  21711726.567   -16155889.68449 -12569260.85247  21711726.844    21711733.579
  20773626.928     -970365.49149   -749925.52248  20773626.777    20773634.351
  22815846.661    10232951.72749   7883380.45146  22815846.858    22815854.136
  20320983.206    -9493930.07249  -7374938.46248  20320982.716    20320989.661
  23905607.058    -8910903.55049  -6926341.72145  23905606.973    23905615.941
  23090622.465    10097359.21849   7860963.22446  23090622.315    23090631.071
  23020325.732   -12119366.21349  -9421220.75746  23020324.881    23020335.040
 03  4 11 17  8 30.0000000  0  7G30G24G 4G 5G 6G 9G10
  21696532.606   -16235734.39549 -12631477.49347  21696532.903    21696539.628
  20781491.298     -929038.01849   -717722.30748  20781491.143    20781498.713
  22833776.146    10327171.59549   7956798.49546  22833776.336    22833783.648
  20316966.838    -9515036.37749  -7391384.94148  20316966.347    20316973.281
  23892417.660    -8980213.71749  -6980349.57345  23892417.593    23892426.614
  23108231.516    10189895.29349   7933069.15546  23108231.354    23108240.220
  23002600.088   -12212514.70349  -9493803.90346  23002599.322    23002609.451
 03  4 11 17  9  0.0000000  0  7G30G24G 4G 5G 6G 9G10
  21681390.849   -16315304.62949 -12693480.25947  21681391.175    21681397.884
  20789437.654     -887279.87749   -685183.50948  20789437.492    20789445.073
  22851742.549    10421585.73249   8030367.92346  22851742.777    22851750.118
  20313040.086    -9535671.59949  -7407464.34248  20313039.595    20313046.540
  23879238.646    -9049469.75749  -7034315.24945  23879238.557    23879247.508
  23125872.757    10282600.51249   8005306.88646  23125872.581    23125881.556
  22984912.505   -12305463.35649  -9566231.32746  22984911.697    22984921.860
 03  4 11 17  9 30.0000000  0  7G30G24G 4G 5G 6G 9G10
  21666301.765   -16394598.18749 -12755267.43547  21666302.081    21666308.804
  20797465.588     -845092.76949   -652310.44848  20797465.434    20797473.017
  22869745.462    10516191.54049   8104086.68746  22869745.664    22869752.993
  20309203.286    -9555834.15249  -7423175.43348  20309202.791    20309209.746
  23866069.777    -9118671.72449  -7088238.79346  23866069.744    23866078.799
  23143545.664    10375471.77449   8077674.00646  23143545.526    23143554.481
  22967263.628   -12398208.72649  -9638500.36646  22967262.765    22967272.929
 03  4 11 17 10  0.0000000  0  7G30G24G 4G 5G 6G 9G10
  21651265.706   -16473612.76749 -12816837.22147  21651266.060    21651272.781
  20805574.701     -802479.26749   -619105.13148  20805574.520    20805582.096
  22887784.369    10610986.23749   8177952.63546  22887784.556    22887791.840
  20305456.672    -9575522.90049  -7438517.32248  20305456.175    20305463.106
  23852911.405    -9187819.96749  -7142120.50246  23852911.284    23852920.274
  23161249.592    10468505.83849   8150167.98646  23161249.430    23161258.401
  22949654.037   -12490747.36749  -9710608.33846  22949653.126    22949663.181
 03  4 11 17 10 30.0000000  0  7G30G24G 4G 5G 6G 9G10
  21636283.346   -16552345.75049 -12878187.58347  21636283.683    21636290.386
  20813764.575     -759441.16949   -585568.96248  20813764.401    20813771.964
  22905858.743    10705967.33549   8251963.84446  22905858.894    22905866.175
  20301800.443    -9594736.50449  -7453488.96848  20301799.936    20301806.886
  23839763.009    -9256914.42449  -7195960.28646  23839762.945    23839772.022
  23178983.858    10561699.89149   8222786.62246  23178983.663    23178992.683
  22932084.356   -12583075.93149  -9782552.58446  22932083.549    22932093.686
 03  4 11 17 11  0.0000000  0  7G30G24G 4G 5G 6G 9G10
  21621354.919   -16630795.06749 -12939316.90347  21621355.247    21621361.943
  20822034.856     -715980.52649   -551703.53348  20822034.715    20822042.270
  22923968.053    10801132.26549   8326118.29146  22923968.167    22923975.523
  20298234.894    -9613473.62849  -7468089.33248  20298234.395    20298241.359
  23826624.966    -9325955.21749  -7249758.25846  23826624.831    23826633.901
  23196748.049    10655051.03449   8295527.67146  23196747.885    23196756.890
  22914555.388   -12675191.00749  -9854330.50246  22914554.594    22914564.574
 03  4 11 17 11 30.0000000  0  7G30G24G 4G 5G 6G 9G10
  21606480.983   -16708958.05149 -13000223.11247  21606481.334    21606487.983
  20830385.155     -672099.57649   -517510.59448  20830385.005    20830392.546
  22942111.943    10896478.66749   8400414.14946  22942112.006    22942119.398
  20294760.257    -9631732.88049  -7482317.32748  20294759.760    20294766.755
  23813497.128    -9394942.34749  -7303514.43546  23813497.029    23813505.996
  23214541.577    10748556.08949   8368388.65546  23214541.407    23214550.434
  22897067.642   -12767089.24649  -9925939.44646  22897066.851    22897076.862
 03  4 11 17 12  0.0000000  0  7G30G24G 4G 5G 6G 9G10
  21591661.987   -16786832.43949 -13060904.44247  21591662.343    21591668.974
  20838815.035     -627800.25749   -482991.65348  20838814.869    20838822.420
  22960289.879    10992003.83749   8474849.30946  22960289.883    22960297.254
  20291376.817    -9649513.11549  -7496172.05748  20291376.332    20291383.322
  23800379.443    -9463875.95049  -7357228.89246  23800379.291    23800388.338
  23232363.753    10842211.78049   8441367.00046  23232363.599    23232372.635
  22879621.880   -12858767.54249  -9997377.02446  22879621.038    22879630.974
 03  4 11 17 12 30.0000000  0  7G30G24G 4G 5G 6G 9G10
  21576898.390   -16864415.79949 -13121358.98947  21576898.724    21576905.354
  20847324.148     -583084.64449   -448148.32648  20847323.988    20847331.552
  22978501.284    11087705.39849   8549421.90846  22978501.365    22978508.652
  20288084.808    -9666812.74449  -7509652.29548  20288084.312    20288091.294
  23787271.971    -9532755.83049  -7410901.49746  23787271.884    23787280.936
  23250214.116    10936015.33749   8514460.57546  23250213.962    23250223.038
  22862218.539   -12950222.32449 -10068640.42446  22862217.746    22862227.727
 03  4 11 17 13  0.0000000  0  7G30G24G 4G 5G 6G 9G10
  21562190.707   -16941705.61949 -13181584.81047  21562190.956    21562197.575
  20855912.098     -537954.71149   -412982.15648  20855911.923    20855919.525
  22996745.838    11183580.87949   8624130.03846  22996745.884    22996753.229
  20284884.398    -9683630.86349  -7522757.33448  20284883.907    20284890.894
  23774174.721    -9601582.19749  -7464532.39346  23774174.642    23774183.582
  23268092.021    11029963.78149   8587667.04646  23268091.845    23268100.888
  22844858.332   -13041450.47149 -10139727.22346  22844857.564    22844867.508
 03  4 11 17 13 30.0000000  0  7G30G24G 4G 5G 6G 9G10
  21547539.240   -17018699.65549 -13241580.14647  21547539.479    21547546.113
  20864578.532     -492412.40549   -377494.64848  20864578.353    20864585.955
  23015022.985    11279627.71849   8698971.67546  23015023.051    23015030.409
  20281775.933    -9699966.05749  -7535486.06448  20281775.459    20281782.453
  23761087.781    -9670354.97849  -7518121.53446  23761087.611    23761096.649
  23285996.862    11124054.26949   8660984.20246  23285996.700    23286005.803
  22827542.001   -13132448.44349 -10210634.66546  22827541.183    22827551.164
 03  4 11 17 14  0.0000000  0  7G30G24G 4G 5G 6G 9G10
  21532944.456   -17095395.40249 -13301343.04447  21532944.723    21532951.402
  20873323.012     -446459.83149   -341687.45948  20873322.839    20873330.466
  23033332.276    11375843.40649   8773944.89246  23033332.316    23033339.713
  20278759.595    -9715817.06349  -7547837.50848  20278759.127    20278766.107
  23748010.841    -9739074.38949  -7571669.08146  23748010.794    23748019.833
  23303928.151    11218283.73149   8734409.64146  23303928.056    23303937.192
  22810270.054   -13223212.90149 -10281360.17546  22810269.239    22810279.181
 03  4 11 17 14 30.0000000  0  7G30G24G 4G 5G 6G 9G10
  21518406.976   -17171790.23949 -13360871.47647  21518407.247    21518413.939
  20882145.158     -400099.16949   -305562.27748  20882144.992    20882152.618
  23051673.165    11472225.57849   8849047.83246  23051673.268    23051680.709
  20275835.657    -9731182.41649  -7559810.51948  20275835.171    20275842.180
  23734944.215    -9807740.16649  -7625174.82846  23734944.070    23734953.076
  23321885.397    11312648.93849   8807940.86246  23321885.275    23321894.401
  22793043.185   -13313740.38049 -10351901.01746  22793042.386    22793052.230
 03  4 11 17 15  0.0000000  0  7G30G24G 4G 5G 6G 9G10
  21503927.146   -17247881.89549 -13420163.65747  21503927.461    21503934.175
  20891044.511     -353332.83149   -269120.98448  20891044.331    20891051.941
  23070045.356    11568771.91849   8924278.70146  23070045.470    23070052.852
  20273004.347    -9746061.06549  -7571404.28048  20273003.861    20273010.887
  23721887.648    -9876352.52649  -7678638.94846  23721887.489    23721896.491
  23339867.803    11407147.04949   8881575.63646  23339867.666    23339876.854
  22775862.017   -13404027.49149 -10422254.57246  22775861.270    22775871.097
 03  4 11 17 15 30.0000000  0  7G30G24G 4G 5G 6G 9G10
  21489505.545   -17323667.73249 -13479217.54147  21489505.875    21489512.602
  20900020.766     -306162.45049   -232364.85248  20900020.577    20900028.195
  23088448.318    11665479.97149   8999635.59046  23088448.450    23088455.771
  20270265.974    -9760451.51549  -7582617.63048  20270265.487    20270272.493
  23708841.290    -9944911.39149  -7732061.39346  23708841.121    23708850.217
  23357875.049    11501775.23549   8955311.77546  23357874.889    23357884.162
  22758727.298   -13494070.71949 -10492418.08246  22758726.542    22758736.484
 03  4 11 17 16  0.0000000  0  7G30G24G 4G 5G 6G 9G10
  21475142.556   -17399145.73749 -13538031.55647  21475142.878    21475149.586
  20909073.341     -258590.64349   -195295.92148  20909073.180    20909080.792
  23106881.549    11762346.67349   9075116.08546  23106881.649    23106888.954
  20267620.614    -9774353.11249  -7593450.05248  20267620.129    20267627.124
  23695805.058   -10013417.25449  -7785442.56346  23695804.856    23695813.842
  23375906.340    11596530.03649   9029146.55446  23375906.197    23375915.528
  22741639.558   -13583867.42449 -10562389.52246  22741638.752    22741648.646
 03  4 11 17 16 30.0000000  0  7G30G24G 4G 5G 6G 9G10
  21460838.627   -17474313.37349 -13596603.72447  21460838.960    21460845.629
  20918202.029     -210619.08749   -157915.49648  20918201.880    20918209.490
  23125344.535    11859370.22649   9150718.81346  23125344.667    23125351.968
  20265068.538    -9787764.38749  -7603900.40948  20265068.045    20265075.059
  23682778.836   -10081869.62749  -7838782.02146  23682778.703    23682787.758
  23393961.306    11691408.93849   9103078.05246  23393961.168    23393970.470
  22724599.386   -13673413.75449 -10632165.86446  22724598.658    22724608.505
 03  4 11 17 17  0.0000000  0  7G30G24G 4G 5G 6G 9G10
  21446594.252   -17549168.20549 -13654932.14647  21446594.562    21446601.227
  20927406.285     -162250.47349   -120225.68048  20927406.118    20927413.754
  23143836.798    11956547.52349   9226441.34746  23143836.895    23143844.209
  20262609.995    -9800684.24749  -7613967.84548  20262609.497    20262616.510
  23669762.924   -10150268.79449  -7892080.03146  23669762.804    23669771.759
  23412039.262    11786408.67949   9177103.70046  23412039.142    23412048.375
  22707607.496   -13762706.53749 -10701744.63846  22707606.721    22707616.619
 03  4 11 17 17 30.0000000  0  7G30G24G 4G 5G 6G 9G10
  21432409.862   -17623707.88149 -13713014.99747  21432410.141    21432416.795
  20936685.744     -113486.63649    -82227.89748  20936685.584    20936693.210
  23162357.908    12053876.65849   9302282.18046  23162358.033    23162365.426
  20260245.133    -9813111.59949  -7623651.50848  20260244.654    20260251.675
  23656757.033   -10218614.72849  -7945336.53646  23656756.948    23656765.970
  23430139.558    11881526.15649   9251221.10146  23430139.492    23430148.695
  22690664.630   -13851742.05749 -10771122.95946  22690663.820    22690673.701
 03  4 11 17 18  0.0000000  0  7G30G24G 4G 5G 6G 9G10
  21418285.867   -17697929.93549 -13770850.34847  21418286.129    21418292.769
  20946040.022      -64329.60649    -43923.73048  20946039.858    20946047.508
  23180907.495    12151354.94449   9378239.23246  23180907.631    23180915.007
  20257974.257    -9825045.16549  -7632950.40448  20257973.777    20257980.800
  23643761.296   -10286907.45349  -7998551.59746  23643761.195    23643770.186
  23448261.785    11976758.50349   9325428.00246  23448261.716    23448270.910
  22673771.312   -13940517.28549 -10840298.44946  22673770.476    22673780.305
 03  4 11 17 18 30.0000000  0  7G30G24G 4G 5G 6G 9G10
  21404222.762   -17771831.80949 -13828436.21047  21404223.045    21404229.712
  20955468.667      -14781.62649     -5314.92648  20955468.521    20955476.184
  23199485.048    12248980.21949   9454310.81246  23199485.201    23199492.584
  20255797.578    -9836483.73849  -7641863.59248  20255797.093    20255804.109
  23630775.795   -10355146.90649  -8051725.15446  23630775.605    23630784.629
  23466405.223    12072102.85149   9399722.16746  23466405.186    23466414.487
  22656928.064   -14029028.78349 -10909268.43946  22656927.265    22656937.080
 03  4 11 17 19  0.0000000  0  7G30G24G 4G 5G 6G 9G10
  21390221.029   -17845411.37249 -13885770.92347  21390221.298    21390227.977
  20964971.250       35154.72049     33596.49648  20964971.092    20964978.765
  23218089.958    12346749.79949   9530494.85646  23218090.111    23218097.576
  20253715.249    -9847426.51149  -7650390.44148  20253714.765    20253721.794
  23617800.418   -10423333.25449  -8104857.31046  23617800.237    23617809.155
  23484569.450    12167556.08949   9474101.19346  23484569.411    23484578.808
  22640135.593   -14117273.47749 -10978030.52446  22640134.861    22640144.694
 03  4 11 17 19 30.0000000  0  7G30G24G 4G 5G 6G 9G10
  21376281.143   -17918665.85049 -13942852.32447  21376281.438    21376288.138
  20974547.369       85477.65349     72809.15748  20974547.223    20974554.895
  23236721.923    12444661.46049   9606789.63246  23236722.122    23236729.598
  20251727.532    -9857872.12749  -7658529.89848  20251727.061    20251734.077
  23604835.095   -10491466.24449  -8157947.91046  23604834.903    23604843.815
  23502753.986    12263115.53449   9548562.97346  23502753.962    23502763.253
  22623394.647   -14205247.60249 -11046581.76146  22623393.940    22623403.736
 03  4 11 17 20  0.0000000  0  7G30G24G 4G 5G 6G 9G10
  21362403.485   -17991593.32249 -13999678.91147  21362403.776    21362410.481
  20984196.623      136184.75549    112321.17248  20984196.503    20984204.167
  23255380.426    12542712.51449   9683192.98546  23255380.625    23255388.118
  20249834.522    -9867819.88549  -7666281.41048  20249834.072    20249841.097
  23591879.872   -10559546.28149  -8210997.24046  23591879.742    23591888.555
  23520958.061    12358777.79849   9623104.87246  23520957.979    23520967.297
  22606705.823   -14292948.32349 -11114919.94946  22606705.084    22606714.854
 03  4 11 17 20 30.0000000  0  7G30G24G 4G 5G 6G 9G10
  21348588.572   -18064190.91949 -14056248.46047  21348588.870    21348595.580
  20993918.721      187274.50149    152131.34348  20993918.572    20993926.232
  23274065.102    12640901.06149   9759703.50246  23274065.330    23274072.793
  20248036.586    -9877268.20749  -7673643.75848  20248036.126    20248043.148
  23578934.790   -10627573.01649  -8264005.06946  23578934.703    23578943.445
  23539181.101    12454540.34049   9697724.91346  23539181.044    23539190.448
  22590069.706   -14380371.77349 -11183042.07046  22590068.941    22590078.747
 03  4 11 17 21  0.0000000  0  7G30G24G 4G 5G 6G 9G10
  21334836.905   -18136456.38849 -14112559.20447  21334837.210    21334843.898
  21003713.100      238744.15849    192237.55548  21003712.952    21003720.586
  23292775.394    12739224.37749   9836319.00346  23292775.637    23292783.128
  20246333.817    -9886216.36149  -7680616.35948  20246333.345    20246340.387
  23565999.748   -10695546.50149  -8316971.37346  23565999.718    23566008.416
  23557422.698    12550400.05549   9772420.64546  23557422.636    23557432.143
  22573486.909   -14467514.75849 -11250945.65746  22573486.131    22573495.927
 03  4 11 17 21 30.0000000  0  7G30G24G 4G 5G 6G 9G10
  21321148.907   -18208387.29649 -14168609.25047  21321149.236    21321155.877
  21013579.350      290591.77449    232638.27747  21013579.222    21013586.865
  23311511.015    12837680.31849   9913037.87046  23311511.226    23311518.773
  20244726.452    -9894663.24849  -7687198.36448  20244725.998    20244733.034
  23553075.034   -10763466.60549  -8369896.08046  23553074.985    23553083.532
  23575682.140    12646353.77049   9847189.63746  23575682.074    23575691.635
  22556958.026   -14554374.02849 -11318628.14846  22556957.264    22556967.084
 03  4 11 17 22  0.0000000  0  7G30G24G 4G 5G 6G 9G10
  21307525.018   -18279981.29049 -14224396.76747  21307525.327    21307531.957
  21023517.094      342814.94149    273331.63647  21023516.982    21023524.632
  23330271.361    12936266.12349   9989857.95146  23330271.529    23330279.119
  20243214.662    -9902607.82349  -7693388.95548  20243214.214    20243221.256
  23540160.235   -10831333.59049  -8422779.39846  23540160.257    23540168.912
  23593958.950    12742398.41449   9922029.49546  23593958.852    23593968.403
  22540483.880   -14640946.21549 -11386086.94046  22540483.108    22540492.966
 03  4 11 17 22 30.0000000  0  7G30G24G 4G 5G 6G 9G10
  21293965.731   -18351235.93749 -14279919.85647  21293966.064    21293972.646
  21033525.849      395411.30849    314315.80147  21033525.753    21033533.402
  23349055.936    13034979.61149  10066777.45946  23349056.124    23349063.747
  20241798.614    -9910049.16349  -7699187.42148  20241798.135    20241805.221
  23527255.676   -10899147.49949  -8475621.36046  23527255.650    23527264.367
  23612252.467    12838531.27849   9996938.07446  23612252.418    23612262.017
  22524064.926   -14727228.15849 -11453319.57046  22524064.164    22524074.088
 03  4 11 17 23  0.0000000  0  7G30G24G 4G 5G 6G 9G10
  21280471.452   -18422148.74549 -14335176.58047  21280471.776    21280478.371
  21043605.315      448378.97649    355589.29247  21043605.195    21043612.831
  23367864.417    13133818.58849  10143794.79346  23367864.604    23367872.268
  20240478.545    -9916986.30649  -7704593.00348  20240478.089    20240485.176
  23514361.187   -10966908.14849  -8528421.82546  23514361.177    23514369.831
  23630562.421    12934749.61449  10071913.27246  23630562.322    23630571.975
  22507701.913   -14813216.37749 -11520323.33446  22507701.113    22507710.927
 03  4 11 17 23 30.0000000  0  7G30G24G 4G 5G 6G 9G10
  21267042.682   -18492717.38449 -14390165.12247  21267043.003    21267049.608
  21053754.923      501715.49249    397150.19047  21053754.789    21053762.446
  23386696.266    13232780.53249  10220907.95746  23386696.428    23386704.107
  20239254.570    -9923418.38749  -7709605.03248  20239254.116    20239261.181
  23501476.877   -11034615.66649  -8581180.87946  23501476.826    23501485.543
  23648887.861    13031050.14949  10146952.50046  23648887.775    23648897.466
  22491395.298   -14898907.88849 -11587095.89046  22491394.512    22491404.296
 03  4 11 17 24  0.0000000  0  7G30G24G 4G 5G 6G 9G10
  21253679.858   -18562939.28249 -14444883.47747  21253680.203    21253686.839
  21063974.386      555419.15949    438997.18447  21063974.274    21063981.932
  23405551.126    13331863.36249  10298115.28146  23405551.314    23405558.965
  20238126.954    -9929344.19249  -7714222.56448  20238126.487    20238133.575
  23488602.841   -11102269.70849  -8633898.27346  23488602.729    23488611.371
  23667228.465    13127430.14949  10222053.65046  23667228.389    23667238.115
  22475145.902   -14984298.90649 -11653634.27846  22475145.101    22475154.952
 03  4 11 17 24 30.0000000  0  7G30G24G 4G 5G 6G 9G10
  21240383.397   -18632812.37449 -14499330.03547  21240383.748    21240390.418
  21074263.186      609487.04349    481127.98147  21074263.061    21074270.744
  23424428.570    13431064.47849  10375414.78946  23424428.735    23424436.320
  20237095.755    -9934763.13849  -7718445.13848  20237095.310    20237102.396
  23475738.754   -11169870.64449  -8686574.28446  23475738.654    23475747.284
  23685583.605    13223886.35649  10297214.19346  23685583.531    23685593.196
  22458954.223   -15069386.55249 -11719936.27546  22458953.420    22458963.286
 03  4 11 17 25  0.0000000  0  7G30G24G 4G 5G 6G 9G10
  21227153.817   -18702334.02349 -14553502.74147  21227154.207    21227160.904
  21084620.970      663917.37149    523541.20547  21084620.841    21084628.545
  23443328.034    13530381.45149  10452804.59146  23443328.151    23443335.748
  20236161.215    -9939674.23549  -7722271.98648  20236160.777    20236167.849
  23462884.828   -11237418.27749  -8739208.76246  23462884.713    23462893.346
  23703952.629    13320415.86249  10372431.84446  23703952.525    23703962.244
  22442820.985   -15154167.13949 -11785999.00446  22442820.129    22442829.957
 03  4 11 17 25 30.0000000  0  7G30G24G 4G 5G 6G 9G10
  21213991.667   -18771501.70949 -14607399.63047  21213992.049    21213998.728
  21095047.253      718707.94849    566235.13747  21095047.143    21095054.862
  23462249.082    13629812.57349  10530283.32446  23462249.283    23462256.899
  20235323.517    -9944076.45549  -7725702.30448  20235323.057    20235330.164
  23450041.064   -11304912.34249  -8791801.48946  23450040.975    23450049.629
  23722335.076    13417016.13149  10447704.62446  23722335.009    23722344.866
  22426746.776   -15238637.38449 -11851819.90346  22426745.957    22426755.738
 03  4 11 17 26  0.0000000  0  7G30G24G 4G 5G 6G 9G10
  21200897.051   -18840314.56549 -14661020.03047  21200897.404    21200904.088
  21105541.347      773854.78949    609206.68047  21105541.248    21105548.975
  23481191.199    13729353.87249  10607847.93246  23481191.439    23481199.058
  20234582.549    -9947970.36949  -7728736.54248  20234582.110    20234589.217
  23437207.251   -11372354.34849  -8844353.64946  23437207.129    23437215.793
  23740730.288    13513682.98449  10523029.28946  23740730.254    23740740.114
  22410731.963   -15322795.59449 -11917397.66846  22410731.124    22410740.898
 03  4 11 17 26 30.0000000  0  7G30G24G 4G 5G 6G 9G10
  21187871.017   -18908767.07249 -14714359.63847  21187871.352    21187877.994
  21116103.446      829358.90649    652456.61547  21116103.346    21116111.090
  23500154.442    13829006.10149  10685498.95546  23500154.631    23500162.269
  20233939.091    -9951351.96249  -7731371.56948  20233938.646    20233945.755
  23424383.971   -11439741.19249  -8896862.85546  23424383.806    23424392.499
  23759138.173    13610416.23149  10598405.70346  23759138.141    23759148.014
  22394777.704   -15406635.26549 -11982727.21046  22394776.899    22394786.649
 03  4 11 17 27  0.0000000  0  7G30G24G 4G 5G 6G 9G10
  21174913.560   -18976858.98349 -14767418.26147  21174913.892    21174920.515
  21126732.693      885215.99649    695981.59847  21126732.607    21126740.369
  23519137.846    13928764.60249  10763232.79846  23519138.070    23519145.753
  20233392.778    -9954222.78249  -7733608.58648  20233392.344    20233399.449
  23411570.702   -11507075.01449  -8949330.71546  23411570.577    23411579.166
  23777557.746    13707210.83449  10673829.91946  23777557.599    23777567.512
  22378884.351   -15490155.26149 -12047807.66546  22378883.522    22378893.229
 03  4 11 17 27 30.0000000  0  7G30G24G 4G 5G 6G 9G10
  21162025.254   -19044587.65349 -14820193.84047  21162025.574    21162032.176
  21137428.786      941424.13149    739780.11347  21137428.673    21137436.453
  23538141.160    14028627.76549  10841048.18046  23538141.404    23538149.170
  20232943.914    -9956581.56349  -7735446.61948  20232943.485    20232950.590
  23398767.646   -11574355.38449  -9001756.92546  23398767.530    23398776.117
  23795988.392    13804064.25049  10749299.96546  23795988.300    23795998.273
  22363052.420   -15573352.30649 -12112636.46646  22363051.622    22363061.285
 03  4 11 17 28  0.0000000  0  7G30G24G 4G 5G 6G 9G10
  21149206.457   -19111950.69249 -14872684.51447  21149206.799    21149213.430
  21148191.230      997980.95449    783850.33847  21148191.112    21148198.891
  23557163.987    14128592.99949  10918943.08746  23557164.224    23557171.988
  20232592.658    -9958427.53749  -7736885.05848  20232592.228    20232599.341
  23385974.732   -11641582.33749  -9054141.52846  23385974.617    23385983.198
  23814429.733    13900973.54549  10824813.52646  23814429.643    23814439.697
  22347282.656   -15656222.80949 -12177210.82146  22347281.879    22347291.531
 03  4 11 17 28 30.0000000  0  7G30G24G 4G 5G 6G 9G10
  21136457.663   -19178945.79749 -14924888.48547  21136458.005    21136464.656
  21159019.631     1054884.38049    828190.64847  21159019.516    21159027.270
  23576205.890    14228658.20549  10996915.90946  23576206.083    23576213.810
  20232339.115    -9959759.91549  -7737923.29248  20232338.693    20232345.823
  23373192.046   -11708756.02149  -9106484.60346  23373191.826    23373200.356
  23832881.145    13997935.60049  10900368.22546  23832881.079    23832891.155
  22331575.650   -15738763.64149 -12241528.28046  22331574.852    22331584.508
 03  4 11 17 29  0.0000000  0  7G30G24G 4G 5G 6G 9G10
  21123779.426   -19245570.31549 -14976803.68247  21123779.782    21123786.451
  21169913.515     1112132.18549    872799.30447  21169913.394    21169921.146
  23595266.336    14328821.10749  11074964.87946  23595266.507    23595274.236
  20232183.521    -9960577.73249  -7738560.56648  20232183.081    20232190.239
  23360419.479   -11775876.07949  -9158785.89246  23360419.278    23360427.737
  23851341.991    14094947.73849  10975961.93946  23851341.979    23851352.054
  22315931.907   -15820971.64549 -12305586.39946  22315931.132    22315940.763
 03  4 11 17 29 30.0000000  0  7G30G24G 4G 5G 6G 9G10
  21111172.180   -19311821.90149 -15028428.29147  21111172.529    21111179.180
  21180872.457     1169721.73449    917674.25147  21180872.367    21180880.113
  23614345.017    14429079.62249  11153088.34946  23614345.149    23614352.836
  20232125.925    -9960880.41649  -7738796.44048  20232125.501    20232132.672
  23347657.139   -11842942.38949  -9211045.30346  23347656.914    23347665.429
  23869811.860    14192007.16949  11051592.51946  23869811.833    23869822.005
  22300352.234   -15902843.30149 -12369382.43246  22300351.478    22300361.059
 03  4 11 17 30  0.0000000  0  7G30G24G 4G 5G 6G 9G10
  21098636.356   -19377698.13949 -15079760.41547  21098636.688    21098643.332
  21191896.100     1227651.41149    962814.23247  21191896.006    21191903.788
  23633441.436    14529431.80849  11231284.78245  23633441.579    23633449.361
  20232166.572    -9960666.96249  -7738630.12748  20232166.153    20232173.318
  23334904.905   -11909954.77849  -9263262.70146  23334904.792    23334913.340
  23888290.254    14289111.17849  11127257.83046  23888290.201    23888300.449
  22284837.159   -15984375.21049 -12432913.72746  22284836.429    22284845.973
 03  4 11 17 30 30.0000000  0  7G30G24G 4G 5G 6G 9G10
  21086172.368   -19443196.70449 -15130798.24747  21086172.726    21086179.358
  21202983.949     1285918.51649   1008217.14347  21202983.880    21202991.649
  23652555.140    14629875.08049  11309552.21645  23652555.307    23652563.129
  20232305.496    -9959936.87249  -7738061.24148  20232305.087    20232312.247
  23322163.194   -11976913.23649  -9315438.08346  23322162.973    23322171.527
  23906776.562    14386256.74749  11202955.51946  23906776.503    23906786.818
  22269387.327   -16065564.30749 -12496177.89446  22269386.594    22269396.133
 03  4 11 17 31  0.0000000  0  7G30G24G 4G 5G 6G 9G10
  21073780.714   -19508315.38849 -15181540.07247  21073781.075    21073787.699
  21214135.657     1344520.88449   1053881.29947  21214135.579    21214143.362
  23671685.718    14730407.06849  11387888.74145  23671685.953    23671693.806
  20232542.822    -9958689.67149  -7737089.41548  20232542.402    20232549.580
  23309431.586   -12043817.97749  -9367571.61846  23309431.417    23309439.999
  23925270.179    14483440.69349  11278683.10646  23925270.140    23925280.436
  22254003.328   -16146407.47149 -12559172.49846  22254002.585    22254012.164
 03  4 11 17 31 30.0000000  0  7G30G24G 4G 5G 6G 9G10
  21061461.791   -19573051.69449 -15231983.93747  21061462.163    21061468.772
  21225350.728     1403456.27049   1099804.95147  21225350.635    21225358.408
  23690832.896    14831025.85049  11466292.92645  23690833.127    23690840.976
  20232878.830    -9956924.13449  -7735713.68748  20232878.420    20232885.590
  23296710.212   -12110668.51949  -9419662.89046  23296710.103    23296718.730
  23943770.571    14580660.40449  11354438.55946  23943770.542    23943780.801
  22238685.908   -16226901.25949 -12621894.86346  22238685.109    22238694.644
 03  4 11 17 32  0.0000000  0  7G30G24G 4G 5G 6G 9G10
  21049216.063   -19637403.20149 -15282127.95847  21049216.411    21049223.023
  21236628.769     1462722.57249   1145986.45947  21236628.658    21236636.411
  23709996.189    14931729.33749  11544763.09945  23709996.421    23710004.398
  20233313.570    -9954639.76649  -7733933.67848  20233313.139    20233320.324
  23283999.224   -12177464.92349  -9471712.00846  23283999.183    23284007.747
  23962277.314    14677913.37049  11430219.93146  23962277.330    23962287.591
  22223435.417   -16307042.62549 -12684342.61446  22223434.656    22223444.147
 03  4 11 17 32 30.0000000  0  7G30G24G 4G 5G 6G 9G10
  21037043.999   -19701367.87949 -15331970.55447  21037044.337    21037050.955
  21247969.302     1522317.27149   1192423.86247  21247969.187    21247976.928
  23729175.125    15032514.94949  11623297.27545  23729175.354    23729183.267
  20233847.030    -9951836.32449  -7731749.19948  20233846.609    20233853.791
  23271298.558   -12244207.32149  -9523719.02346  23271298.495    23271307.002
  23980789.713    14775196.12049  11506024.50746  23980789.734    23980800.007
  22208252.593   -16386828.59849 -12746513.44246  22208251.857    22208261.324
 03  4 11 17 33  0.0000000  0  7G30G24G 4G 5G 6G 9G10
  21024946.004   -19764943.29249 -15381509.82747  21024946.353    21024952.967
  21259371.800     1582237.71249   1239115.09147  21259371.703    21259379.447
  23748369.314    15133380.51849  11701893.75345  23748369.456    23748377.459
  20234479.439    -9948513.17449  -7729159.75048  20234479.012    20234486.203
  23258608.282   -12310895.68849  -9575683.93946  23258608.171    23258616.603
  23999307.232    14872505.66049  11581849.95546  23999307.245    23999317.622
  22193138.055   -16466255.89849 -12808404.78046  22193137.281    22193146.706
 03  4 11 17 33 30.0000000  0  7G30G24G 4G 5G 6G 9G10
  21012922.567   -19828126.89349 -15430743.79547  21012922.916    21012929.525
  21270835.972     1642482.37349   1286058.95547  21270835.887    21270843.634
  23767578.270    15234324.04549  11780550.98245  23767578.388    23767586.463
  20235210.847    -9944669.58049  -7726164.76548  20235210.425    20235217.626
  23245928.184   -12377529.66749  -9627606.45746  23245928.089    23245936.555
  24017829.475    14969839.69949  11657694.48746  24017829.462    24017839.916
  22178092.396   -16545320.99449 -12870013.87546  22178091.627    22178101.065
 03  4 11 17 34  0.0000000  0  7G30G24G 4G 5G 6G 9G10
  21000974.022   -19890916.73949 -15479670.93947  21000974.398    21000981.000
  21282361.310     1703048.33549   1333253.18847  21282361.208    21282368.997
  23786801.641    15335343.18149  11859267.13345  23786801.740    23786809.785
  20236041.373    -9940305.22349  -7722763.98848  20236040.950    20236048.151
  23233258.439   -12444109.54549  -9679486.85246  23233258.340    23233266.775
  24036355.697    15067194.68249  11733555.36045  24036355.588    24036366.104
  22163116.158   -16624021.32249 -12931338.73046  22163115.395    22163124.846
 03  4 11 17 34 30.0000000  0  7G30G24G 4G 5G 6G 9G10
  20989101.043   -19953309.84549 -15528288.93447  20989101.407    20989108.007
  21293947.460     1763933.97149   1380696.52047  21293947.377    21293955.162
  23806039.032    15436436.22549  11938040.86045  23806039.172    23806047.171
  20236971.239    -9935418.90849  -7718956.48948  20236970.797    20236978.027
  23220599.118   -12510634.54249  -9731324.46846  23220599.034    23220607.409
  24054885.341    15164568.49849  11809430.88045  24054885.269    24054895.854
  22148210.159   -16702352.65649 -12992376.05646  22148209.394    22148218.826
 03  4 11 17 35  0.0000000  0  7G30G24G 4G 5G 6G 9G10
  20977303.956   -20015304.10749 -15576596.14447  20977304.285    20977310.885
  21305594.105     1825137.11449   1428387.26047  21305593.994    21305601.799
  23825290.034    15537600.98149  12016870.46945  23825290.265    23825298.260
  20238000.443    -9930010.30549  -7714742.01848  20238000.024    20238007.258
  23207950.268   -12577104.52949  -9783119.21446  23207950.181    23207958.525
  24073418.195    15261958.30249  11885318.88745  24073418.099    24073428.640
  22133374.884   -16780312.25249 -13053123.71946  22133374.164    22133383.572
 03  4 11 17 35 30.0000000  0  7G30G24G 4G 5G 6G 9G10
  20965583.043   -20076897.64849 -15624591.10247  20965583.409    20965589.996
  21317300.540     1886654.82749   1476323.12047  21317300.450    21317308.242
  23844554.257    15638834.75449  12095753.87245  23844554.428    23844562.453
  20239129.107    -9924079.36749  -7710120.53048  20239128.683    20239135.914
  23195311.800   -12643520.12549  -9834871.59746  23195311.700    23195319.974
  24091953.324    15359360.61349  11961216.61745  24091953.247    24091963.850
  22118610.851   -16857897.61749 -13113579.77646  22118610.095    22118619.458
 03  4 11 17 36  0.0000000  0  7G30G24G 4G 5G 6G 9G10
  20953938.902   -20138087.85549 -15672271.77347  20953939.280    20953945.876
  21329066.458     1948484.95749   1524502.42147  21329066.345    21329074.159
  23863831.273    15740135.89649  12174689.75645  23863831.444    23863839.474
  20240357.269    -9917625.35749  -7705091.46048  20240356.852    20240364.072
  23182683.804   -12709880.87949  -9886581.23746  23182683.672    23182691.875
  24110490.394    15456773.09149  12037122.26345  24110490.324    24110501.046
  22103918.638   -16935105.49649 -13173741.68646  22103917.866    22103927.267
 03  4 11 17 36 30.0000000  0  7G30G24G 4G 5G 6G 9G10
  20942372.011   -20198872.20549 -15719636.19347  20942372.397    20942379.009
  21340891.460     2010625.48449   1572923.58747  21340891.338    21340899.136
  23883120.715    15841502.30249  12253676.50545  23883120.950    23883128.949
  20241685.143    -9910647.55749  -7699654.23648  20241684.723    20241691.949
  23170066.336   -12776186.38849  -9938247.83446  23170066.157    23170074.326
  24129028.933    15554192.97549  12113033.68445  24129028.891    24129039.618
  22089298.990   -17011932.02749 -13233606.44946  22089298.247    22089307.594
 03  4 11 17 37  0.0000000  0  7G30G24G 4G 5G 6G 9G10
  20930882.785   -20259248.61549 -15766682.73747  20930883.151    20930889.763
  21352775.030     2073073.91949   1621584.68647  21352774.901    21352782.707
  23902422.142    15942931.67949  12332712.31045  23902422.417    23902430.444
  20243112.733    -9903145.65849  -7693808.62648  20243112.295    20243119.545
  23157459.188   -12842436.73349  -9989871.43246  23157459.055    23157467.342
  24147568.284    15651617.25949  12188948.55745  24147568.186    24147579.015
  22074752.395   -17088374.46349 -13293171.91046  22074751.657    22074760.993
 03  4 11 17 37 30.0000000  0  7G30G24G 4G 5G 6G 9G10
  20919471.662   -20319214.63149 -15813409.49147  20919471.991    20919478.611
  21364716.713     2135828.10449   1670484.03047  21364716.624    21364724.441
  23921735.213    16044422.25849  12411795.80245  23921735.487    23921743.506
  20244640.156    -9895118.96849  -7687554.08548  20244639.737    20244647.007
  23144862.635   -12908631.54949 -10041451.76346  23144862.505    23144870.825
  24166107.938    15749043.58849  12264865.00945  24166107.891    24166118.813
  22060279.533   -17164429.59349 -13352435.58146  22060278.797    22060288.123
 03  4 11 17 38  0.0000000  0  7G30G24G 4G 5G 6G 9G10
  20908138.886   -20378768.58049 -15859815.15547  20908139.246    20908145.843
  21376716.113     2198885.23149   1719619.43447  21376716.027    21376723.824
  23941059.463    16145971.41249  12490924.93945  23941059.729    23941067.767
  20246267.464    -9886567.57049  -7680890.68548  20246267.051    20246274.311
  23132276.616   -12974771.35649 -10092989.23346  23132276.518    23132284.810
  24184647.452    15846468.32049  12340780.21645  24184647.466    24184658.251
  22045880.850   -17240094.85649 -13411395.45847  22045880.115    22045889.444
 03  4 11 17 38 30.0000000  0  7G30G24G 4G 5G 6G 9G10
  20896885.120   -20437907.55349 -15905897.46648  20896885.477    20896892.063
  21388772.890     2262243.80549   1768989.73547  21388772.791    21388780.563
  23960394.475    16247577.26849  12570098.26445  23960394.774    23960402.720
  20247994.788    -9877490.66349  -7673817.79548  20247994.365    20248001.602
  23119701.152   -13040855.59849 -10144483.40146  23119701.054    23119709.321
  24203186.148    15943889.23249  12416692.44045  24203186.082    24203197.003
  22031557.065   -17315366.70249 -13470048.78447  22031556.311    22031565.651
 03  4 11 17 39  0.0000000  0  7G30G24G 4G 5G 6G 9G10
  20885710.784   -20496629.02749 -15951654.45348  20885711.163    20885717.721
  21400886.570     2325901.43449   1818593.05547  21400886.485    21400894.234
  23979739.857    16349238.15649  12649314.46945  23979740.211    23979748.216
  20249822.179    -9867887.68949  -7666334.98548  20249821.760    20249829.005
  23107136.391   -13106883.88649 -10195933.98046  23107136.333    23107144.525
  24221723.681    16041303.57549  12492599.56845  24221723.630    24221734.566
  22017308.799   -17390241.86649 -13528393.01247  22017308.035    22017317.378
 03  4 11 17 39 30.0000000  0  7G30G24G 4G 5G 6G 9G10
  20874616.224   -20554931.37649 -15997084.85248  20874616.594    20874623.143
  21413056.592     2389855.33249   1868427.23647  21413056.499    21413064.261
  23999095.320    16450951.70449  12728571.69145  23999095.712    23999103.707
  20251749.652    -9857758.75149  -7658442.33348  20251749.246    20251756.515
  23094582.302   -13172856.39549 -10247341.11046  23094582.194    23094590.365
  24240259.303    16138708.22349  12568499.08845  24240259.268    24240270.324
  22003136.520   -17464717.60749 -13586426.00447  22003135.746    22003145.011
 03  4 11 17 40  0.0000000  0  7G30G24G 4G 5G 6G 9G10
  20863601.978   -20612811.86849 -16042186.52748  20863602.329    20863608.878
  21425282.659     2454103.77149   1918490.92947  21425282.595    21425290.324
  24018460.485    16552716.12349  12807868.58445  24018460.886    24018468.910
  20253777.379    -9847103.19449  -7650139.32648  20253776.952    20253784.243
  23082038.769   -13238772.78349 -10298704.48946  23082038.708    23082046.892
  24258792.615    16236100.77349  12644389.22345  24258792.567    24258803.546
  21989040.827   -17538790.42349 -13644145.03247  21989040.084    21989049.354
 03  4 11 17 40 30.0000000  0  7G30G24G 4G 5G 6G 9G10
  20852668.228   -20670268.84449 -16086958.19148  20852668.598    20852675.180
  21437564.310     2518644.00649   1968781.99747  21437564.233    21437571.960
  24037834.905    16654528.96749  12887203.17845  24037835.253    24037843.354
  20255905.247    -9835921.26449  -7641426.15948  20255904.829    20255912.142
  23069505.902   -13304633.33949 -10350024.35746  23069505.804    23069514.019
  24277323.058    16333477.95749  12720267.39645  24277323.019    24277333.946
  21975022.323   -17612457.77449 -13701548.12247  21975021.619    21975030.850
 03  4 11 17 41  0.0000000  0  7G30G24G 4G 5G 6G 9G10
  20841815.654   -20727299.49149 -16131397.65048  20841816.011    20841822.618
  21449901.077     2583474.06049   2019298.89547  21449901.003    21449908.736
  24057218.135    16756388.32349  12966574.03145  24057218.504    24057226.617
  20258133.429    -9824212.13749  -7632302.18648  20258133.016    20258140.318
  23056983.734   -13370437.33849 -10401300.15546  23056983.683    23056991.914
  24295849.996    16430837.34849  12796131.68245  24295850.023    24295861.004
  21961081.708   -17685716.15149 -13758632.54347  21961081.000    21961090.189
 03  4 11 17 41 30.0000000  0  7G30G24G 4G 5G 6G 9G10
  20831044.628   -20783901.59949 -16175503.18648  20831044.988    20831051.620
  21462292.527     2648591.50849   2070039.73947  21462292.434    21462300.166
  24076609.964    16858292.39949  13045979.73245  24076610.310    24076618.392
  20260462.057    -9811975.45749  -7622767.13548  20260461.624    20260468.921
  23044472.374   -13436184.66149 -10452531.78846  23044472.324    23044480.603
  24314373.204    16528176.21349  12871979.96245  24314373.130    24314384.113
  21947219.384   -17758562.90549 -13815396.21147  21947218.687    21947227.831
 03  4 11 17 42  0.0000000  0  7G30G24G 4G 5G 6G 9G10
  20820355.528   -20840073.31249 -16219273.34748  20820355.878    20820362.501
  21474738.266     2713994.05149   2121002.72947  21474738.168    21474745.932
  24096009.816    16960238.94749  13125418.51145  24096010.109    24096018.191
  20262890.975    -9799211.23449  -7612821.01348  20262890.563    20262897.873
  23031971.753   -13501875.57049 -10503719.46846  23031971.708    23031979.959
  24332891.776    16625491.70049  12947810.03745  24332891.759    24332902.788
  21933436.015   -17830994.93249 -13871836.71847  21933435.269    21933444.424
 03  4 11 17 42 30.0000000  0  7G30G24G 4G 5G 6G 9G10
  20809748.828   -20895812.03249 -16262706.11348  20809749.180    20809755.780
  21487237.818     2779679.67449   2172186.30047  21487237.755    21487245.518
  24115417.424    17062226.32449  13204889.11845  24115417.654    24115425.845
  20265420.465    -9785918.93849  -7602463.40048  20265420.052    20265427.365
  23019482.005   -13567509.31649 -10554862.61646  23019481.964    23019490.266
  24351405.561    16722781.13049  13023619.82445  24351405.562    24351416.595
  21919732.134   -17903008.93949 -13927951.49147  21919731.406    21919740.602
 03  4 11 17 43  0.0000000  0  7G30G24G 4G 5G 6G 9G10
  20799224.881   -20951115.82349 -16305799.97048  20799225.216    20799231.807
  21499790.746     2845645.84649   2223588.48247  21499790.705    21499798.504
  24134832.369    17164252.04149  13284389.59045  24134832.493    24134840.850
  20268050.411    -9772098.61249  -7591694.33348  20268049.991    20268057.293
  23007003.083   -13633086.20049 -10605961.44746  23007003.053    23007011.381
  24369913.757    16820041.68049  13099407.11745  24369913.760    24369924.778
  21906108.371   -17974602.35649 -13983738.54547  21906107.637    21906116.757
 03  4 11 17 43 30.0000000  0  7G30G24G 4G 5G 6G 9G10
  20788784.133   -21005982.37849 -16348553.12948  20788784.484    20788791.046
  21512396.668     2911890.29349   2275207.50347  21512396.608    21512404.435
  24154254.267    17266314.45249  13363918.64045  24154254.387    24154262.840
  20270780.889    -9757749.85449  -7580513.50548  20270780.481    20270787.786
  22994535.175   -13698605.87549 -10657015.68146  22994535.065    22994543.378
  24388415.992    16917270.80849  13175169.88445  24388415.931    24388427.022
  21892565.260   -18045771.91949 -14039195.31647  21892564.503    21892573.637
 03  4 11 17 44  0.0000000  0  7G30G24G 4G 5G 6G 9G10
  20778426.960   -21060409.50949 -16390963.87648  20778427.304    20778433.881
  21525055.056     2978410.49149   2327041.39247  21525054.984    21525062.826
  24173682.761    17368411.47949  13443474.67745  24173682.857    24173691.329
  20273611.966    -9742872.65949  -7568920.90748  20273611.541    20273618.865
  22982078.145   -13764067.94349 -10708025.05046  22982078.029    22982086.376
  24406911.559    17014465.78149  13250906.04445  24406911.566    24406922.822
  21879103.315   -18116514.80349 -14094319.61647  21879102.563    21879111.693
 03  4 11 17 44 30.0000000  0  7G30G24G 4G 5G 6G 9G10
  20768153.871   -21114394.94849 -16433030.45048  20768154.226    20768160.799
  21537765.580     3045204.60049   2379088.71747  21537765.495    21537773.368
  24193117.461    17470541.12649  13523056.14545  24193117.623    24193125.984
  20276543.571    -9727467.01349  -7556916.53148  20276543.141    20276550.477
  22969632.148   -13829472.20449 -10758989.37146  22969632.024    22969640.383
  24425400.263    17111623.72349  13326613.36545  24425400.327    24425411.505
  21865723.125   -18186827.84749 -14149108.97547  21865722.395    21865731.522
 03  4 11 17 45  0.0000000  0  7G30G24G 4G 5G 6G 9G10
  20757965.219   -21167936.71549 -16474751.30348  20757965.560    20757972.119
  21550527.754     3112270.02049   2431347.45647  21550527.680    21550535.550
  24212557.995    17572701.56149  13602661.58445  24212558.154    24212566.554
  20279575.794    -9711532.69549  -7544500.20048  20279575.372    20279582.700
  22957197.067   -13894818.64649 -10809908.63246  22957196.953    22957205.280
  24443881.401    17208741.73149  13402289.57645  24443881.473    24443892.637
  21852425.308   -18256708.35749 -14203561.31047  21852424.581    21852433.665
 03  4 11 17 45 30.0000000  0  7G30G24G 4G 5G 6G 9G10
  20747861.415   -21221032.56949 -16516124.69448  20747861.754    20747868.335
  21563341.201     3179604.84649   2483816.12247  21563341.080    21563348.954
  24232004.059    17674890.86049  13682289.53945  24232004.192    24232012.491
  20282708.669    -9695069.43749  -7531671.70948  20282708.243    20282715.570
  22944773.080   -13960107.15449 -10860782.74546  22944773.004    22944781.243
  24462354.331    17305817.18149  13477932.59145  24462354.393    24462365.631
  21839210.366   -18326153.39349 -14257674.31247  21839209.650    21839218.735
 03  4 11 17 46  0.0000000  0  7G30G24G 4G 5G 6G 9G10
  20737842.846   -21273680.39549 -16557148.96948  20737843.200    20737849.791
  21576205.349     3247206.36049   2536492.59947  21576205.264    21576213.142
  24251455.267    17777106.87349  13761938.31545  24251455.397    24251463.650
  20285942.187    -9678077.30749  -7518431.10948  20285941.765    20285949.104
  22932360.130   -14025337.66849 -10911611.67346  22932360.068    22932368.242
  24480818.712    17402847.31749  13553540.33945  24480818.742    24480830.042
  21826078.854   -18395159.78749 -14311445.51247  21826078.131    21826087.190
 03  4 11 17 46 30.0000000  0  7G30G24G 4G 5G 6G 9G10
  20727909.982   -21325877.88249 -16597822.33248  20727910.336    20727916.933
  21589119.873     3315072.63549   2589375.38247  21589119.803    21589127.660
  24270911.206    17879347.92349  13841606.58645  24270911.347    24270919.502
  20289276.374    -9660556.03649  -7504778.18848  20289275.967    20289283.306
  22919958.407   -14090509.68149 -10962395.01746  22919958.303    22919966.345
  24499273.899    17499829.59849  13629110.75545  24499273.846    24499285.184
  21813031.380   -18463724.72449 -14364872.71047  21813030.653    21813039.719
 03  4 11 17 47  0.0000000  0  7G30G24G 4G 5G 6G 9G10
  20718063.214   -21377623.07149 -16638143.25248  20718063.573    20718070.148
  21602084.351     3383201.37549   2642462.68547  21602084.298    21602092.147
  24290371.396    17981611.95249  13921292.75645  24290371.585    24290379.748
  20292711.262    -9642505.77949  -7490713.06948  20292710.839    20292718.186
  22907567.753   -14155623.08149 -11013132.69746  22907567.621    22907575.665
  24517719.616    17596761.58549  13704642.01345  24517719.635    24517731.039
  21800068.359   -18531845.67449 -14417953.93947  21800067.637    21800076.723
 03  4 11 17 47 30.0000000  0  7G30G24G 4G 5G 6G 9G10
  20708302.955   -21428913.39049 -16678109.72948  20708303.320    20708309.900
  21615098.368     3451590.37349   2695752.78947  21615098.309    21615106.187
  24309835.699    18083897.52049  14000995.71645  24309835.891    24309844.186
  20296246.898    -9623925.83049  -7476235.20748  20296246.501    20296253.853
  22895188.228   -14220677.18549 -11063824.16346  22895188.201    22895196.245
  24536155.316    17693640.71349  13780132.03245  24536155.273    24536166.816
  21787190.557   -18599519.02349 -14470686.39147  21787189.812    21787198.920
 03  4 11 17 48  0.0000000  0  7G30G24G 4G 5G 6G 9G10
  20698629.627   -21479747.04749 -16717720.36948  20698630.017    20698636.582
  21628161.455     3520237.25349   2749243.83647  21628161.386    21628169.285
  24329303.636    18186202.26249  14080713.61445  24329303.953    24329312.231
  20299883.279    -9604816.70149  -7461344.99448  20299882.873    20299890.221
  22882820.061   -14285672.07149 -11114469.49346  22882820.013    22882828.102
  24554580.401    17790463.87449  13855578.50845  24554580.358    24554591.683
  21774398.362   -18666742.46349 -14523068.26847  21774397.618    21774406.709
 03  4 11 17 48 30.0000000  0  7G30G24G 4G 5G 6G 9G10
  20689043.653   -21530121.67849 -16756973.32048  20689044.013    20689050.620
  21641273.267     3589140.06849   2802934.31447  21641273.168    21641281.055
  24348774.966    18288524.61749  14160445.21645  24348775.263    24348783.648
  20303620.376    -9585178.20249  -7446042.28848  20303619.966    20303627.311
  22870463.273   -14350607.27549 -11165068.29646  22870463.198    22870471.360
  24572994.164    17887228.58649  13930979.42145  24572994.180    24573005.477
  21761692.393   -18733512.66449 -14575096.95747  21761691.644    21761700.769
 03  4 11 17 49  0.0000000  0  7G30G24G 4G 5G 6G 9G10
  20679545.391   -21580035.44749 -16795867.16548  20679545.758    20679552.368
  21654433.231     3658296.20249   2856822.18347  21654433.148    21654441.060
  24368249.297    18390862.53049  14240188.96545  24368249.511    24368257.985
  20307458.198    -9565010.38949  -7430327.13248  20307457.789    20307465.147
  22858117.846   -14415482.80249 -11215620.60946  22858117.814    22858125.934
  24591396.422    17983932.22949  14006332.72045  24591396.400    24591407.802
  21749073.173   -18799826.86549 -14626770.31047  21749072.411    21749081.566
 03  4 11 17 49 30.0000000  0  7G30G24G 4G 5G 6G 9G10
  20670135.209   -21629486.13549 -16834400.16348  20670135.573    20670142.210
  21667640.995     3727703.61949   2910905.85947  21667640.964    21667648.874
  24387726.294    18493214.33049  14319943.52145  24387726.577    24387734.928
  20311396.776    -9544313.22749  -7414199.49548  20311396.363    20311403.721
  22845783.855   -14480298.20149 -11266126.07046  22845783.833    22845791.896
  24609786.551    18080572.23449  14081636.44445  24609786.519    24609797.952
  21736541.284   -18865682.20849 -14678086.10647  21736540.546    21736549.680
 03  4 11 17 50  0.0000000  0  7G30G24G 4G 5G 6G 9G10
  20660813.487   -21678472.06449 -16872571.01048  20660813.856    20660820.511
  21680896.131     3797359.69749   2965183.30247  21680896.098    21680904.017
  24407205.388    18595577.60249  14399707.02245  24407205.673    24407214.023
  20315435.920    -9523087.44149  -7397659.94648  20315435.507    20315442.868
  22833461.303   -14545053.68549 -11316584.84346  22833461.204    22833469.308
  24628163.980    18177145.47349  14156888.15245  24628163.936    24628175.435
  21724097.118   -18931076.57149 -14729042.69447  21724096.381    21724105.523
 03  4 11 17 50 30.0000000  0  7G30G24G 4G 5G 6G 9G10
  20651580.701   -21726990.58949 -16910377.64848  20651581.088    20651587.726
  21694198.217     3867262.65149   3019653.10947  21694198.199    21694206.135
  24426686.510    18697951.26449  14479478.61345  24426686.706    24426695.245
  20319575.782    -9501332.44849  -7380708.02948  20319575.371    20319582.728
  22821150.295   -14609748.36949 -11366996.24846  22821150.177    22821158.243
  24646528.282    18273650.10249  14232086.36845  24646528.183    24646539.790
  21711741.304   -18996006.53449 -14779637.39447  21711740.555    21711749.709
 03  4 11 17 51  0.0000000  0  8G30G24G 4G 5G 6G17G 9G10
  20642437.086   -21775040.62349 -16947819.23048  20642437.468    20642444.110
  21707546.719     3937409.41749   3074312.90247  21707546.688    21707554.673
  24446169.092    18800332.47349  14559256.11245  24446169.238    24446177.724
  20323816.197    -9479049.09949  -7363344.40648  20323815.775    20323823.130
  22808850.688   -14674382.93249 -11417360.79846  22808850.572    22808858.627
  25045535.871    -4593407.52749  -3556721.08345  25045535.487    25045548.494
  24664878.895    18370082.32549  14307228.19345  24664878.769    24664890.496
  21699474.253   -19060470.12949 -14829868.68547  21699473.497    21699482.654
 03  4 11 17 51 30.0000000  0  8G30G24G 4G 5G 6G17G 9G10
  20633381.798   -21822626.56749 -16984899.18048  20633382.177    20633388.808
  21720939.957     4007791.15549   3129155.78647  21720939.916    21720947.897
  24465651.609    18902713.02249  14639033.08045  24465651.672    24465660.248
  20328155.857    -9456244.01249  -7345574.23448  20328155.451    20328162.820
  22796561.313   -14738963.49849 -11467683.27846  22796561.229    22796569.303
  25027668.674    -4687299.96349  -3629884.00745  25027668.405    25027681.086
  24683214.014    18466432.91949  14382306.39945  24683213.906    24683225.715
  21687295.232   -19124471.12649 -14879739.50947  21687294.508    21687303.605
 03  4 11 17 52  0.0000000  0  8G30G24G 4G 5G 6G17G 9G10
  20624417.247   -21869735.66149 -17021607.56248  20624417.603    20624424.251
  21734379.499     4078416.26249   3184188.31147  21734379.472    21734387.443
  24485135.604    19005101.64349  14718816.35745  24485135.723    24485144.275
  20332596.829    -9432906.60049  -7327389.26248  20332596.426    20332603.802
  22784284.340   -14803479.26849 -11517955.26446  22784284.248    22784292.307
  25009824.733    -4781070.71349  -3702952.05045  25009824.419    25009837.266
  24701535.050    18562710.03749  14457327.34545  24701534.883    24701546.818
  21675206.814   -19187996.00749 -14929239.32347  21675206.047    21675215.165
 03  4 11 17 52 30.0000000  0  8G30G24G 4G 5G 6G17G 9G10
  20615543.496   -21916367.53449 -17057944.08048  20615543.856    20615550.488
  21747864.730     4149281.23749   3239407.74647  21747864.666    21747872.652
  24504620.497    19107495.01749  14798603.33245  24504620.603    24504629.048
  20337138.765    -9409038.70049  -7308790.92548  20337138.362    20337145.752
  22772019.541   -14867931.32949 -11568177.61146  22772019.429    22772027.483
  24992003.756    -4874720.20349  -3775925.53845  24992003.286    24992016.453
  24719841.247    18658909.51949  14532287.80245  24719841.089    24719852.949
  21663209.178   -19251043.73249 -14978367.32847  21663208.423    21663217.523
 03  4 11 17 53  0.0000000  0  8G30G24G 4G 5G 6G17G 9G10
  20606760.765   -21962521.11149 -17093907.90248  20606761.126    20606767.722
  21761394.917     4220382.85849   3294811.57347  21761394.830    21761402.866
  24524105.776    19209890.42949  14878391.87945  24524105.875    24524114.423
  20341781.477    -9384641.26849  -7289779.96548  20341781.078    20341788.448
  22759766.681   -14932320.32249 -11618350.81146  22759766.572    22759774.670
  24974206.018    -4968248.17449  -3848804.41945  24974205.597    24974218.721
  24738132.146    18755027.84149  14607185.01645  24738132.067    24738143.900
  21651302.672   -19313612.46549 -15027122.08947  21651301.926    21651310.993
 03  4 11 17 53 30.0000000  0  8G30G24G 4G 5G 6G17G 9G10
  20598069.359   -22008194.55849 -17129497.60048  20598069.723    20598076.310
  21774969.706     4291718.61949   3350397.85447  21774969.642    21774977.634
  24543590.984    19312286.12049  14958180.66645  24543591.036    24543599.506
  20346524.824    -9359714.86349  -7270356.81748  20346524.424    20346531.805
  22747525.849   -14996646.16649 -11668474.81646  22747525.756    22747533.836
  24956431.531    -5061653.11349  -3921587.44245  24956431.173    24956444.133
  24756407.036    18851062.38449  14682016.91445  24756406.995    24756419.030
  21639487.733   -19375699.88449 -15075501.81247  21639487.005    21639496.043
 03  4 11 17 54  0.0000000  0  8G30G24G 4G 5G 6G17G 9G10
  20589469.645   -22053386.20749 -17164711.87148  20589470.026    20589476.631
  21788588.455     4363285.61149   3406164.31247  21788588.384    21788596.408
  24563075.849    19414679.66949  15037967.75045  24563076.086    24563084.678
  20351368.728    -9334260.08549  -7250521.95048  20351368.321    20351375.742
  22735297.003   -15060908.96149 -11718549.68446  22735296.892    22735304.986
  24938680.511    -5154934.42449  -3994274.05145  24938680.202    24938693.213
  24774665.390    18947010.18249  14756781.23445  24774665.476    24774677.248
  21627764.922   -19437303.29949 -15123504.40047  21627764.211    21627773.263
 03  4 11 17 54 30.0000000  0  8G30G24G 4G 5G 6G17G 9G10
  20580961.947   -22098094.47649 -17199549.48348  20580962.316    20580968.932
  21802250.799     4435081.63149   3462109.23347  21802250.736    21802258.755
  24582560.033    19517069.24449  15117751.76045  24582560.188    24582568.887
  20356313.042    -9308277.59649  -7230275.88048  20356312.638    20356320.039
  22723080.079   -15125108.64949 -11768575.37846  22723080.009    22723088.129
  24920953.420    -5248090.95449  -4066863.41545  24920953.074    24920966.046
  24792906.777    19042868.22749  14831475.67345  24792906.758    24792918.571
  21616134.630   -19498420.50749 -15171128.12547  21616133.912    21616142.967
 03  4 11 17 55  0.0000000  0  8G30G24G 4G 5G 6G17G 9G10
  20572545.789   -22142321.84249 -17234012.36748  20572546.173    20572552.756
  21815955.445     4507099.87449   3518227.31247  21815955.378    21815963.419
  24602042.189    19619448.36749  15197527.62045  24602042.330    24602051.066
  20361356.920    -9281771.97849  -7209622.17648  20361356.516    20361363.909
  22710874.518   -15189249.32249 -11818555.09746  22710874.459    22710882.512
  24903249.268    -5341126.66549  -4139358.67945  24903248.880    24903261.879
  24811129.540    19138629.50649  14906094.66845  24811129.563    24811141.615
  21604596.502   -19559053.60649 -15218374.63247  21604595.770    21604604.785
 03  4 11 17 55 30.0000000  0  8G30G24G 4G 5G 6G17G 9G10
  20564222.701   -22186060.23549 -17268094.23348  20564223.065    20564229.628
  21829703.156     4579344.26949   3574521.61447  21829703.061    21829711.109
  24621523.293    19721821.60449  15277298.90045  24621523.453    24621532.025
  20366501.477    -9254737.46049  -7188556.34248  20366501.065    20366508.457
  22698681.428   -15253324.75449 -11868483.96846  22698681.290    22698689.328
  24885569.627    -5434033.41649  -4211753.43945  24885569.309    24885582.349
  24829334.570    19234297.57749  14980640.98545  24829334.619    24829346.880
  21593152.254   -19619193.49449 -15265236.82947  21593151.512    21593160.469
 03  4 11 17 56  0.0000000  0  8G30G24G 4G 5G 6G17G 9G10
  20555992.783   -22229308.56549 -17301794.23248  20555993.152    20555999.728
  21843493.329     4651811.99749   3630989.94647  21843493.245    21843501.295
  24641002.748    19824186.37349  15357063.56145  24641002.959    24641011.616
  20371746.416    -9227175.17749  -7167079.26348  20371746.004    20371753.409
  22686500.583   -15317335.38949 -11918362.36546  22686500.492    22686508.489
  24867914.585    -5526811.15649  -4284047.66745  24867914.261    24867927.341
  24847521.501    19329869.25549  15055112.23845  24847521.369    24847533.758
  21581802.202   -19678838.30149 -15311713.25447  21581801.460    21581810.397
 03  4 11 17 56 30.0000000  0  8G30G24G 4G 5G 6G17G 9G10
  20547856.481   -22272065.01949 -17335110.95348  20547856.865    20547863.449
  21857325.509     4724500.55949   3687630.35047  21857325.438    21857333.499
  24660480.240    19926540.92449  15436820.25345  24660480.404    24660489.093
  20377091.675    -9199085.66349  -7145191.35648  20377091.273    20377098.692
  22674332.146   -15381280.97949 -11968190.06246  22674331.997    22674340.042
  24850284.092    -5619458.98949  -4356240.63745  24850283.777    24850297.029
  24865689.473    19425341.54649  15129506.05845  24865689.341    24865701.483
  21570546.708   -19737985.85349 -15357802.20647  21570545.982    21570554.907
 03  4 11 17 57  0.0000000  0  8G30G24G 4G 5G 6G17G 9G10
  20539814.098   -22314328.05949 -17368043.19648  20539814.502    20539821.075
  21871199.236     4797407.60149   3744441.00547  21871199.204    21871207.255
  24679955.363    20028883.14649  15516567.35745  24679955.493    24679964.282
  20382537.180    -9170469.62849  -7122893.17148  20382536.773    20382544.185
  22662175.970   -15445161.64549 -12017967.17146  22662175.882    22662183.963
  24832678.599    -5711976.11549  -4428331.79945  24832678.345    24832691.337
  24883837.858    19520711.62449  15203820.18245  24883837.817    24883850.045
  21559386.293   -19796634.02649 -15403502.03647  21559385.568    21559394.469
 03  4 11 17 57 30.0000000  0  8G30G24G 4G 5G 6G17G 9G10
  20531865.910   -22356096.13949 -17400589.75648  20531866.315    20531872.850
  21885114.108     4870530.55649   3801419.89847  21885114.081    21885122.127
  24699427.751    20131210.93549  15596303.19145  24699427.912    24699436.675
  20388082.709    -9141327.74349  -7100185.23848  20388082.294    20388089.702
  22650032.239   -15508977.26849 -12067693.60346  22650032.149    22650040.140
  24815098.211    -5804361.77049  -4500320.51545  24815097.885    24815110.750
  24901966.420    19615976.84549  15278052.62345  24901966.367    24901978.640
  21548321.416   -19854780.14749 -15448810.66547  21548320.688    21548329.577
 03  4 11 17 58  0.0000000  0  8G30G24G 4G 5G 6G17G 9G10
  20524012.188   -22397367.75949 -17432749.46048  20524012.592    20524019.095
  21899069.478     4943866.39349   3858564.67947  21899069.440    21899077.520
  24718897.082    20233522.25649  15676026.22745  24718897.294    24718906.053
  20393728.186    -9111660.61649  -7077068.02448  20393727.766    20393735.189
  22637900.972   -15572727.90749 -12117369.39646  22637900.837    22637908.731
  24797542.936    -5896614.84849  -4572205.89945  24797542.579    24797555.430
  24920074.494    19711134.16449  15352200.98945  24920074.462    24920086.821
  21537352.443   -19912422.26349 -15493726.55347  21537351.732    21537360.614
 03  4 11 17 58 30.0000000  0  8G30G24G 4G 5G 6G17G 9G10
  20516253.428   -22438140.37449 -17464520.32948  20516253.823    20516260.343
  21913065.130     5017413.83249   3915874.34547  21913065.091    21913073.134
  24738362.993    20335816.17649  15755735.68945  24738363.168    24738371.979
  20399473.660    -9081468.08249  -7053541.40048  20399473.229    20399480.680
  22625782.145   -15636412.54949 -12166993.76546  22625782.027    22625789.918
  24780013.169    -5988733.57849  -4643986.62945  24780012.814    24780025.488
  24938161.473    19806181.83549  15426263.92045  24938161.370    24938173.785
  21526480.010   -19969557.12849 -15538247.19347  21526479.279    21526488.097
 03  4 11 17 59  0.0000000  0  8G30G24G 4G 5G 6G17G 9G10
  20508589.906   -22478412.42349 -17495901.14848  20508590.288    20508596.851
  21927100.592     5091170.38849   3973346.95247  21927100.524    21927108.585
  24757825.221    20438090.63149  15835429.96045  24757825.453    24757834.268
  20405318.928    -9050750.99749  -7029606.04448  20405318.522    20405325.996
  22613675.922   -15700031.05849 -12216566.61146  22613675.788    22613683.702
  24762509.293    -6080716.97249  -4715661.94245  24762509.061    24762521.436
  24956227.135    19901116.78649  15500239.01445  24956227.023    24956239.293
  21515704.473   -20026182.72749 -15582371.00447  21515703.748    21515712.588
 03  4 11 17 59 30.0000000  0  8G30G24G 4G 5G 6G17G 9G10
  20501021.934   -22518182.34649 -17526890.69748  20501022.328    20501028.892
  21941175.447     5165133.94049   4030980.86447  21941175.370    21941183.444
  24777283.373    20540343.89649  15915107.71245  24777283.543    24777292.401
  20411263.966    -9019509.72449  -7005262.22348  20411263.556    20411271.024
  22601582.273   -15763583.18149 -12266087.71346  22601582.190    22601590.095
  24745031.273    -6172564.19549  -4787231.10945  24745031.002    24745043.567
  24974270.970    19995936.56549  15574124.36045  24974270.842    24974283.280
  21505026.276   -20082296.85449 -15626096.25947  21505025.561    21505034.370
 03  4 11 18  0  0.0000000  0  7G30G24G 5G 6G17G 9G10
  20493550.108   -22557447.09049 -17557486.60448  20493550.510    20493557.049
  21955289.378     5239303.25549   4088775.10647  21955289.290    21955297.397
  20417308.839    -8987743.81349  -6980509.59948  20417308.431    20417315.909
  22589501.579   -15827067.48749 -12315555.98146  22589501.494    22589509.431
  24727579.705    -6264272.99449  -4858692.43245  24727579.333    24727592.051
  24992292.418    20090639.65749  15647918.76245  24992292.405    24992305.032
  21494446.131   -20137895.64549 -15669419.96747  21494445.415    21494454.208
 03  4 11 18  0 30.0000000  0  7G30G24G 5G 6G17G 9G10
  20486174.741   -22596205.00349 -17587687.57348  20486175.136    20486181.647
  21969442.066     5313676.15749   4146727.99047  21969442.002    21969450.133
  20423453.452    -8955453.85449  -6955348.62048  20423453.038    20423460.520
  22577433.823   -15890483.51249 -12364971.04046  22577433.788    22577441.711
  24710154.508    -6355842.35649  -4930045.10745  24710154.216    24710166.685
  25010291.376    20185223.55149  15721620.28945  25010291.455    25010303.817
  21483964.526   -20192976.91649 -15712340.43147  21483963.801    21483972.559
 03  4 11 18  1  0.0000000  0  7G30G24G 5G 6G17G 9G10
  20478895.784   -22634456.25349 -17617493.74048  20478896.165    20478902.689
  21983632.740     5388248.47949   4204836.26547  21983632.668    21983640.822
  20429697.301    -8922642.18449  -6929781.11948  20429696.895    20429704.372
  22565378.800   -15953832.82649 -12414334.12046  22565378.794    22565386.692
  24692755.713    -6447272.72249  -5001289.47945  24692755.491    24692767.924
  25028266.812    20279683.87949  15795225.59545  25028266.771    25028279.218
  21473581.490   -20247539.93049 -15754857.05847  21473580.759    21473589.505
 03  4 11 18  1 30.0000000  0  7G30G24G 5G 6G17G 9G10
  20471713.692   -22672198.31649 -17646903.14148  20471714.087    20471720.622
  21997861.071     5463018.86249   4263098.87147  21997860.998    21997869.135
  20436040.451    -8889308.98249  -6903807.22948  20436040.044    20436047.531
  22553336.676   -16017114.51349 -12463644.49146  22553336.660    22553344.515
  24675383.752    -6538562.71649  -5072424.44845  24675383.507    24675395.961
  25046218.268    20374018.67449  15868732.99045  25046218.234    25046230.799
  21463297.689   -20301581.83449 -15796967.62047  21463296.959    21463305.660
 03  4 11 18  2  0.0000000  0  7G30G24G 5G 6G17G 9G10
  20464628.848   -22709429.49349 -17675914.44548  20464629.242    20464635.786
  22012126.676     5537984.96349   4321513.99147  22012126.622    22012134.755
  20442482.761    -8855454.55449  -6877427.18248  20442482.354    20442489.850
  22541307.537   -16080328.00449 -12512901.73246  22541307.518    22541315.373
  24658038.912    -6629710.88149  -5143448.88545  24658038.595    24658050.967
  25064145.444    20468225.73349  15942140.89345  25064145.443    25064158.020
  21453113.484   -20355100.12549 -15838670.17147  21453112.749    21453121.459
 03  4 11 18  2 30.0000000  0  7G30G24G 5G 6G17G 9G10
  20457641.552   -22746148.07049 -17704526.32448  20457641.949    20457648.477
  22026429.089     5613144.68749   4380079.98047  22026429.060    22026437.186
  20449024.146    -8821079.53349  -6850641.48848  20449023.725    20449031.226
  22529291.488   -16143473.11049 -12562105.67946  22529291.426    22529299.207
  24640721.106    -6720716.32649  -5214362.14645  24640720.714    24640733.013
  25082047.872    20562302.60549  16015447.43645  25082047.659    25082060.071
  21443029.405   -20408092.38349 -15879962.81147  21443028.650    21443037.399
 03  4 11 18  3  0.0000000  0  6G30G24G 5G 6G17G10
  20450752.795   -22782348.73349 -17732734.63148  20450753.188    20450759.705
  22040768.677     5688499.53949   4438798.01947  22040768.653    22040776.772
  20455665.138    -8786180.91349  -6823447.79048  20455664.718    20455672.219
  22517289.215   -16206545.80649 -12611253.20746  22517289.115    22517296.874
  24623431.308    -6811574.59049  -5285160.72145  24623430.934    24623443.212
  21433046.520   -20460552.80149 -15920841.03447  21433045.781    21433054.495
 03  4 11 18  3 30.0000000  0  6G30G24G 5G 6G17G10
  20443962.150   -22818033.71349 -17760541.11148  20443962.549    20443969.079
  22055144.203     5764043.25949   4497663.22947  22055144.201    22055152.303
  20462404.952    -8750763.19149  -6795849.59948  20462404.542    20462412.035
  22505299.934   -16269549.63549 -12660347.06646  22505299.865    22505307.645
  24606169.023    -6902287.94249  -5355846.34845  24606168.554    24606180.952
  21423164.526   -20512482.95249 -15961306.07747  21423163.802    21423172.511
 03  4 11 18  4  0.0000000  0  6G30G24G 5G 6G17G10
  20437269.981   -22853201.24749 -17787944.38448  20437270.402    20437276.921
  22069555.257     5839773.74749   4556673.97847  22069555.245    22069563.360
  20469243.420    -8714826.99549  -6767847.40348  20469242.998    20469250.522
  22493323.956   -16332484.02849 -12709386.82547  22493323.836    22493331.661
  24588934.584    -6992855.37449  -5426418.29045  24588934.145    24588946.525
  21413383.885   -20563880.70349 -16001356.25147  21413383.133    21413391.823
 03  4 11 18  4 30.0000000  0  6G30G24G 5G 6G17G10
  20430676.617   -22887849.78049 -17814943.24148  20430677.007    20430683.508
  22084001.469     5915688.84549   4615828.57247  22084001.444    22084009.564
  20476180.372    -8678373.08249  -6739441.78948  20476179.975    20476187.502
  22481361.161   -16395348.51349 -12758372.10047  22481361.048    22481368.924
  24571727.989    -7083276.33649  -5496876.08645  24571727.597    24571739.992
  21403704.949   -20614743.55549 -16040989.62947  21403704.194    21403712.871
 03  4 11 18  5  0.0000000  0  6G30G24G 5G 6G17G10
  20424182.465   -22921976.78049 -17841535.70948  20424182.842    20424189.359
  22098482.601     5991787.50449   4675126.20147  22098482.569    22098490.663
  20483215.892    -8641401.42949  -6710632.74448  20483215.475    20483223.004
  22469411.916   -16458142.00449 -12807302.06447  22469411.830    22469419.718
  24554549.731    -7173548.90949  -5567218.27045  24554549.290    24554561.473
  21394128.448   -20665068.37549 -16080203.76247  21394127.704    21394136.363
 03  4 11 18  5 30.0000000  0  6G30G24G 5G 6G17G10
  20417787.758   -22955581.08849 -17867720.88548  20417788.149    20417794.659
  22112998.133     6068066.97449   4734564.72447  22112998.070    22113006.192
  20490349.706    -8603913.09249  -6681421.08648  20490349.296    20490356.842
  22457476.202   -16520864.41149 -12856176.63847  22457476.123    22457483.994
  24537399.801    -7263672.03349  -5637443.95745  24537399.352    24537411.612
  21384654.658   -20714853.36249 -16118997.24747  21384653.902    21384662.587
 03  4 11 18  6  0.0000000  0  6G30G24G 5G 6G17G10
  20411492.938   -22988660.59149 -17893497.12248  20411493.317    20411499.852
  22127547.736     6144525.49649   4794142.76447  22127547.687    22127555.822
  20497581.823    -8565908.25549  -6651806.96548  20497581.420    20497588.941
  22445554.270   -16583514.79349 -12904995.10147  22445554.146    22445562.015
  24520278.510    -7353644.13349  -5707551.99345  24520278.154    24520290.331
  21375284.063   -20764096.04149 -16157368.15147  21375283.329    21375292.015
 03  4 11 18  6 30.0000000  0  6G30G24G 5G 6G17G10
  20405298.324   -23021213.43249 -17918862.97548  20405298.736    20405305.259
  22142131.040     6221161.37749   4853859.00547  22142131.002    22142139.139
  20504912.117    -8527387.56949  -6621790.87748  20504911.705    20504919.222
  22433646.096   -16646092.67349 -12953757.06247  22433645.950    22433653.825
  24503186.314    -7443463.75849  -5777541.22945  24503186.067    24503198.080
  21366017.163   -20812793.81749 -16195314.45647  21366016.444    21366025.130
 03  4 11 18  7  0.0000000  0  6G30G24G 5G 6G17G10
  20399204.169   -23053238.44349 -17943817.53348  20399204.575    20399211.093
  22156747.726     6297972.09949   4913711.48947  22156747.633    22156755.800
  20512340.315    -8488352.13049  -6591373.69048  20512339.903    20512347.453
  22421751.659   -16708597.75149 -13002462.30847  22421751.624    22421759.520
  24486123.154    -7533130.64549  -5847411.44145  24486122.900    24486134.865
  21356854.314   -20860945.06049 -16232834.88847  21356853.568    21356862.284
 03  4 11 18  7 30.0000000  0  6G30G24G 5G 6G17G10
  20393210.749   -23084734.16249 -17968359.65248  20393211.134    20393217.678
  22171397.241     6374955.63049   4973698.62147  22171397.101    22171405.316
  20519866.322    -8448802.78149  -6560556.04948  20519865.922    20519873.460
  22409871.171   -16771029.60949 -13051110.48447  22409871.219    22409879.142
  24469089.414    -7622643.93349  -5917161.95245  24469089.162    24469101.132
  21347795.784   -20908547.73349 -16269927.86347  21347795.059    21347803.771
 03  4 11 18  8  0.0000000  0  6G30G24G 5G 6G17G10
  20387318.401   -23115698.69549 -17992487.86348  20387318.793    20387325.340
  22186079.223     6452109.73649   5033818.67047  22186079.087    22186087.299
  20527490.038    -8408740.09649  -6529338.40748  20527489.625    20527497.189
  22398004.847   -16833387.65049 -13099701.15147  22398004.874    22398012.779
  24452085.068    -7712002.17849  -5986791.67845  24452084.784    24452096.689
  21338842.131   -20955599.43249 -16306591.50047  21338841.408    21338850.070
 03  4 11 18  8 30.0000000  0  6G30G24G 5G 6G17G10
  20381527.471   -23146130.23449 -18016200.75548  20381527.872    20381534.396
  22200793.350     6529433.01049   5094070.54147  22200793.231    22200801.441
  20535211.349    -8368164.42449  -6497721.03948  20535210.949    20535218.527
  22386152.769   -16895670.84449 -13148233.48947  22386152.749    22386160.639
  24435110.194    -7801204.09849  -6056299.55945  24435109.906    24435121.918
  21329993.838   -21002097.56849 -16342823.80047  21329993.123    21330001.800
 03  4 11 18  9  0.0000000  0  6G30G24G 5G 6G17G10
  20375838.251   -23176027.47449 -18039497.30748  20375838.650    20375845.143
  22215539.254     6606923.20749   5154452.47847  22215539.152    22215547.335
  20543030.064    -8327076.79549  -6465704.74048  20543029.656    20543037.264
  22374314.887   -16957878.97949 -13196707.34747  22374314.914    22374322.807
  24418165.535    -7890248.74149  -6125684.90345  24418165.187    24418177.147
  21321251.183   -21048040.37549 -16378623.36547  21321250.485    21321259.149
 03  4 11 18  9 30.0000000  0  6G30G24G 5G 6G17G10
  20370250.975   -23205388.86049 -18062376.31548  20370251.358    20370257.893
  22230316.514     6684578.02649   5214962.69247  22230316.422    22230324.611
  20550946.013    -8285478.35049  -6433290.40348  20550945.606    20550953.212
  22362491.449   -17020011.72149 -13245122.45647  22362491.479    22362499.338
  24401251.028    -7979135.03449  -6194946.84945  24401250.686    24401262.627
  21312614.642   -21093425.79249 -16413988.61547  21312613.924    21312622.555
 03  4 11 18 10  0.0000000  0  6G30G24G 5G 6G17G10
  20364765.803   -23234213.63949 -18084837.18748  20364766.196    20364772.736
  22245124.567     6762394.97049   5275599.22947  22245124.531    22245132.735
  20558958.863    -8243370.63549  -6400479.22848  20558958.459    20558966.064
  22350682.359   -17082069.13749 -13293478.87047  22350682.335    22350690.151
  24384366.757    -8067862.10549  -6264084.69945  24384366.355    24384378.378
  21304084.448   -21138252.18049 -16448918.25347  21304083.750    21304092.354
 03  4 11 18 10 30.0000000  0  6G30G24G 5G 6G17G10
  20359383.169   -23262499.49249 -18106878.11648  20359383.572    20359390.100
  22259963.227     6840372.23549   5336360.70647  22259963.188    22259971.348
  20567068.648    -8200753.67949  -6367271.24548  20567068.245    20567075.859
  22338887.773   -17144049.97349 -13341775.60747  22338887.770    22338895.564
  24367512.863    -8156429.01149  -6333097.76145  24367512.533    24367524.605
  21295661.117   -21182517.02449 -16483410.31947  21295660.401    21295669.059
 03  4 11 18 11  0.0000000  0  6G30G24G 5G 6G17G10
  20354103.397   -23290244.99549 -18128497.99448  20354103.797    20354110.295
  22274832.089     6918508.31449   5397245.92147  22274831.994    22274840.205
  20575275.183    -8157628.20049  -6333667.00948  20575274.784    20575282.389
  22327107.897   -17205953.56249 -13390012.14847  22327107.855    22327115.699
  24350689.715    -8244834.25049  -6401984.85545  24350689.409    24350701.626
  21287345.021   -21226218.23149 -16517463.19847  21287344.308    21287352.990
 03  4 11 18 11 30.0000000  0  6G30G24G 5G 6G17G10
  20348926.706   -23317448.78849 -18149695.75848  20348927.091    20348933.581
  22289730.724     6996800.84449   5458253.04247  22289730.620    22289738.862
  20583578.289    -8113995.42249  -6299667.47348  20583577.875    20583585.458
  22315342.748   -17267779.49849 -13438188.18347  22315342.730    22315350.555
  24333897.614    -8333077.10649  -6470745.38745  24333897.273    24333909.444
  21279136.552   -21269354.04449 -16551075.49747  21279135.821    21279144.500
 03  4 11 18 12  0.0000000  0  6G30G24G 5G 6G17G10
  20343853.297   -23344109.77349 -18170470.55848  20343853.693    20343860.189
  22304658.686     7075247.63649   5519380.37447  22304658.576    22304666.791
  20591977.626    -8069856.62349  -6265273.64248  20591977.221    20591984.851
  22303592.358   -17329527.66749 -13486303.61347  22303592.414    22303600.247
  24317136.725    -8421156.67549  -6539378.71545  24317136.327    24317148.336
  21271035.970   -21311922.82449 -16584245.96647  21271035.259    21271043.895
 03  4 11 18 12 30.0000000  0  6G30G24G 5G 6G17G10
  20338883.420   -23370226.67449 -18190821.39748  20338883.794    20338890.331
  22319615.526     7153846.41849   5580626.13047  22319615.452    22319623.676
  20600473.083    -8025212.80049  -6230486.28748  20600472.699    20600480.332
  22291857.064   -17391197.47749 -13534357.99747  22291857.048    22291864.841
  24300406.861    -8509072.37249  -6607884.32845  24300406.439    24300418.437
  21263043.690   -21353922.55049 -16616973.01947  21263042.952    21263051.560
 03  4 11 18 13  0.0000000  0  6G30G24G 5G 6G17G10
  20334017.393   -23395797.57349 -18210746.77848  20334017.792    20334024.311
  22334601.084     7232595.80249   5641989.25247  22334600.997    22334609.235
  20609064.547    -7980064.49349  -6195305.82448  20609064.142    20609071.781
  22280136.833   -17452788.04549 -13582350.62347  22280136.742    22280144.558
  24283708.315    -8596822.91749  -6676261.23345  24283707.889    24283720.017
  21255160.143   -21395350.90049 -16649254.84547  21255159.399    21255167.999
 03  4 11 18 13 30.0000000  0  6G30G24G 5G 6G17G10
  20329255.557   -23420821.21049 -18230245.72248  20329255.969    20329262.476
  22349614.945     7311494.03749   5703468.34847  22349614.873    22349623.115
  20617751.826    -7934412.59049  -6159732.95148  20617751.438    20617759.107
  22268431.729   -17514298.79949 -13630281.05747  22268431.625    22268439.411
  24267041.549    -8684407.10349  -6744508.52945  24267041.087    24267053.247
  21247385.686   -21436205.93749 -16681089.93847  21247384.941    21247393.530
 03  4 11 18 14  0.0000000  0  6G30G24G 5G 6G17G10
  20324598.141   -23445296.28749 -18249317.22048  20324598.533    20324605.045
  22364656.715     7390538.68349   5765061.53947  22364656.620    22364664.836
  20626534.717    -7888258.34449  -6123768.64248  20626534.327    20626542.007
  22256741.879   -17575729.32249 -13678148.97747  22256741.768    22256749.560
  24250406.600    -8771823.97449  -6812625.44445  24250406.153    24250418.211
  21239720.643   -21476486.03949 -16712477.02547  21239719.898    21239728.477
 03  4 11 18 14 30.0000000  0  6G30G24G 5G 6G17G10
  20320045.372   -23469221.30349 -18267960.09848  20320045.765    20320052.282
  22379725.916     7469727.84849   5826767.34747  22379725.818    22379734.044
  20635413.044    -7841602.71949  -6087413.64948  20635412.631    20635420.341
  22245067.420   -17637078.65549 -13725953.62647  22245067.380    22245075.125
  24233803.669    -8859072.26949  -6880611.00745  24233803.228    24233815.248
  21232165.326   -21516189.29849 -16743414.61747  21232164.598    21232173.164
 03  4 11 18 15  0.0000000  0  6G30G24G 5G 6G17G10
  20315597.554   -23492594.87749 -18286173.28048  20315597.934    20315604.469
  22394822.199     7549059.69449   5888584.32947  22394822.167    22394830.467
  20644386.516    -7794446.70149  -6050668.74048  20644386.119    20644393.848
  22233408.583   -17698346.09449 -13773694.46547  22233408.572    22233416.296
  24217233.006    -8946151.10849  -6948464.52445  24217232.549    24217244.516
  21224720.169   -21555313.77949 -16773901.20847  21224719.472    21224728.067
 03  4 11 18 15 30.0000000  0  6G30G24G 5G 6G17G10
  20311254.889   -23515415.84949 -18303955.86548  20311255.271    20311261.802
  22409945.296     7628532.28749   5950510.97447  22409945.298    22409953.633
  20653455.095    -7746791.44749  -6013534.81548  20653454.691    20653462.411
  22221765.424   -17759531.31749 -13821371.24047  22221765.382    22221773.060
  24200694.850    -9033059.62049  -7016185.33045  24200694.338    24200706.258
  21217385.523   -21593857.68149 -16803935.40047  21217384.810    21217393.382
 03  4 11 18 16  0.0000000  0  6G30G24G 5G 6G17G10
  20307017.541   -23537683.25949 -18321307.10548  20307017.924    20307024.475
  22425094.773     7708143.16249   6012545.38846  22425094.800    22425103.117
  20662618.407    -7698638.12249  -5976012.78448  20662617.997    20662625.719
  22210137.921   -17820634.01249 -13868983.70547  22210137.931    22210145.602
  24184189.043    -9119797.71649  -7083773.32545  24184188.585    24184200.419
  21210161.615   -21631819.39149 -16833515.93047  21210160.911    21210169.488
 03  4 11 18 16 30.0000000  0  6G30G24G 5G 6G17G10
  20302885.793   -23559395.74349 -18338225.93648  20302886.184    20302892.737
  22440270.249     7787890.51749   6074686.14746  22440270.234    22440278.553
  20671876.286    -7649987.78949  -5938103.47148  20671875.868    20671883.593
  22198526.275   -17881653.37849 -13916531.24247  22198526.290    22198533.981
  24167716.055    -9206363.49549  -7151227.08045  24167715.628    24167727.417
  21203048.856   -21669197.16549 -16862641.44647  21203048.145    21203056.738
 03  4 11 18 17  0.0000000  0  6G30G24G 5G 6G17G10
  20298859.913   -23580551.98049 -18354711.32448  20298860.291    20298866.847
  22455471.392     7867772.75049   6136931.99946  22455471.371    22455479.696
  20681228.544    -7600841.58049  -5899807.76448  20681228.134    20681235.836
  22186930.613   -17942588.71249 -13964013.30147  22186930.628    22186938.360
  24151275.949    -9292756.05649  -7218545.83645  24151275.480    24151287.336
  21196047.572   -21705989.12049 -16891310.47247  21196046.872    21196055.440
 03  4 11 18 17 30.0000000  0  6G30G24G 5G 6G17G10
  20294940.020   -23601151.06949 -18370762.57248  20294940.405    20294946.960
  22470697.710     7947787.31649   6199280.96846  22470697.650    22470706.007
  20690674.837    -7551201.13949  -5861126.94148  20690674.424    20690682.125
  22175351.112   -18003439.68349 -14011429.61547  22175351.044    22175358.818
  24134868.957    -9378974.99849  -7285729.32545  24134868.439    24134880.216
  21189157.949   -21742194.22149 -16919522.20947  21189157.242    21189165.818
 03  4 11 18 18  0.0000000  0  6G30G24G 5G 6G17G10
  20291126.483   -23621191.46449 -18386378.47648  20291126.865    20291133.436
  22485948.922     8027932.50749   6261731.72746  22485948.831    22485957.199
  20700215.031    -7501067.33449  -5822061.68248  20700214.629    20700222.331
  22163787.839   -18064205.32749 -14058779.45547  22163787.749    22163795.499
  24118495.201    -9465019.23349  -7352776.66545  24118494.773    24118506.522
  21182380.429   -21777810.28949 -16947274.96047  21182379.734    21182388.302
 03  4 11 18 18 30.0000000  0  6G30G24G 5G 6G17G10
  20287419.423   -23640672.05949 -18401558.17048  20287419.812    20287426.424
  22501224.621     8108206.45349   6324282.80746  22501224.516    22501232.898
  20709848.868    -7450441.32949  -5782612.88448  20709848.440    20709856.165
  22152240.779   -18124884.96849 -14106062.26647  22152240.743    22152248.489
  24102154.842    -9550887.36049  -7419686.79845  24102154.436    24102166.238
  21175715.360   -21812835.52549 -16974567.31647  21175714.648    21175723.224
 03  4 11 18 19  0.0000000  0  6G30G24G 5G 6G17G10
  20283819.069   -23659592.12549 -18416301.08948  20283819.454    20283826.053
  22516524.341     8188606.98849   6386932.53746  22516524.265    22516532.642
  20719576.039    -7399324.74549  -5742781.82348  20719575.626    20719583.367
  22140710.192   -18185478.57249 -14153278.05047  22140710.185    22140717.868
  24085848.234    -9636578.81749  -7486459.26345  24085847.815    24085859.627
  21169162.907   -21847268.79149 -17001398.39747  21169162.194    21169170.747
 03  4 11 18 19 30.0000000  0  6G30G24G 5G 6G17G10
  20280325.634   -23677950.23849 -18430606.12348  20280326.032    20280332.611
  22531847.840     8269132.32049   6449679.50346  22531847.756    22531856.093
  20729396.430    -7347718.37849  -5702569.10848  20729396.018    20729403.762
  22129196.164   -18245985.33249 -14200426.15847  22129196.136    22129203.794
  24069575.376    -9722092.83249  -7553093.44645  24069574.930    24069586.848
  21162723.453   -21881108.25049 -17027766.76447  21162722.732    21162731.300
 03  4 11 18 20  0.0000000  0  6G30G24G 5G 6G17G10
  20276939.353   -23695745.37349 -18444472.47048  20276939.757    20276946.351
  22547194.774     8349780.68749   6512522.35146  22547194.702    22547203.022
  20739309.803    -7295623.47249  -5661975.71548  20739309.385    20739317.164
  22117698.781   -18306404.42449 -14247505.94347  22117698.736    22117706.404
  24053336.503    -9807428.60849  -7619588.74245  24053336.112    24053347.909
  21156397.267   -21914352.40749 -17053671.26747  21156396.552    21156405.089
 03  4 11 18 20 30.0000000  0  6G30G24G 5G 6G17G10
  20273660.438   -23712976.28749 -18457899.16548  20273660.837    20273667.425
  22562564.698     8430550.18749   6575459.58146  22562564.602    22562572.968
  20749315.883    -7243041.42649  -5621002.73248  20749315.468    20749323.249
  22106218.257   -18366735.03149 -14294516.78847  22106218.213    22106225.887
  24037131.716    -9892585.14049  -7685944.38545  24037131.420    24037143.005
  21150184.644   -21946999.88049 -17079110.81447  21150183.942    21150192.481
 03  4 11 18 21  0.0000000  0  6G30G24G 5G 6G17G10
  20270489.055   -23729641.95049 -18470885.40448  20270489.472    20270496.046
  22577957.277     8511438.95449   6638489.74346  22577957.215    22577965.615
  20759414.385    -7189973.45549  -5579651.10848  20759413.977    20759421.770
  22094754.650   -18426976.38549 -14341458.08047  22094754.620    22094762.323
  24020961.111    -9977562.08249  -7752160.06945  24020960.715    24020972.372
  21144085.882   -21979048.85549 -17104083.99747  21144085.174    21144093.726
 03  4 11 18 21 30.0000000  0  6G30G24G 5G 6G17G10
  20267425.571   -23745740.91149 -18483430.05648  20267425.973    20267432.553
  22593372.368     8592445.58449   6701611.75046  22593372.304    22593380.691
  20769605.192    -7136420.52249  -5537921.59348  20769604.792    20769612.625
  22083308.265   -18487127.46049 -14388329.02747  22083308.224    22083315.952
  24004824.955   -10062357.28249  -7818234.11945  24004824.636    24004836.293
  21138101.334   -22010497.70649 -17128589.56047  21138100.628    21138109.189
 03  4 11 18 22  0.0000000  0  6G30G24G 5G 6G17G10
  20264469.998   -23761272.58049 -18495532.66248  20264470.389    20264476.961
  22608809.448     8673567.68449   6764823.72946  22608809.397    22608817.785
  20779887.935    -7082384.46849  -5495815.61848  20779887.543    20779895.374
  22071879.122   -18547187.97649 -14435129.40247  22071879.066    22071886.793
  23988723.550   -10146970.50649  -7884166.39645  23988723.243    23988734.848
  21132231.265   -22041344.89349 -17152626.28247  21132230.561    21132239.112
 03  4 11 18 22 30.0000000  0  6G30G24G 5G 6G17G10
  20261622.487   -23776236.31949 -18507192.72648  20261622.890    20261629.483
  22624268.010     8754802.75449   6828123.74346  22624267.915    22624276.318
  20790262.368    -7027866.80849  -5453334.36348  20790261.941    20790269.795
  22060467.275   -18607157.82149 -14481859.12747  22060467.166    22060474.900
  23972656.883   -10231401.39649  -7949956.58745  23972656.496    23972668.070
  21126475.835   -22071589.72049 -17176193.63447  21126475.116    21126483.668
 03  4 11 18 23  0.0000000  0  6G30G24G 5G 6G17G10
  20258883.418   -23790630.39649 -18518408.89848  20258883.797    20258890.403
  22639747.826     8836149.93849   6891511.11146  22639747.769    22639756.199
  20800728.280    -6972868.18349  -5410478.33848  20800727.866    20800735.725
  22049072.928   -18667035.40749 -14528516.95947  22049072.824    22049080.543
  23956625.014   -10315648.57349  -8015603.61745  23956624.684    23956636.257
  21120835.466   -22101229.92849 -17199289.85247  21120834.740    21120843.305
 03  4 11 18 23 30.0000000  0  6G30G24G 5G 6G17G10
  20256252.846   -23804454.22449 -18529180.72248  20256253.228    20256259.832
  22655248.771     8917607.31749   6954984.36346  22655248.667    22655257.062
  20811285.414    -6917390.19949  -5367248.78248  20811284.997    20811292.853
  22037696.282   -18726820.32349 -14575102.58547  22037696.131    22037703.868
  23940628.364   -10399711.35949  -8081106.98645  23940627.969    23940639.484
  21115310.355   -22130264.43349 -17221914.09247  21115309.635    21115318.183
 03  4 11 18 24  0.0000000  0  6G30G24G 5G 6G17G10
  20253730.946   -23817706.92649 -18539507.51248  20253731.323    20253737.911
  22670770.202     8999172.80049   7018541.84246  22670770.112    22670778.529
  20821933.498    -6861434.26149  -5323646.79548  20821933.086    20821940.979
  22026337.305   -18786511.95449 -14621615.51147  22026337.174    22026344.894
  23924666.946   -10483588.76149  -8146465.88645  23924666.568    23924678.047
  21109900.697   -22158692.18849 -17244065.54147  21109899.981    21109908.512
 03  4 11 18 24 30.0000000  0  6G30G24G 5G 6G17G10
  20251318.026   -23830386.98749 -18549388.08848  20251318.394    20251324.988
  22686311.878     9080844.92249   7082182.40846  22686311.813    22686320.305
  20832672.352    -6805001.32149  -5279673.11948  20832671.941    20832679.849
  22014996.332   -18846108.89149 -14668054.66047  22014996.265    22015003.992
  23908740.897   -10567279.70549  -8211679.49745  23908740.583    23908752.055
  21104606.866   -22186511.18949 -17265742.63747  21104606.145    21104614.678
 03  4 11 18 25  0.0000000  0  6G30G24G 5G 6G17G10
  20249014.096   -23842494.34149 -18558822.40048  20249014.449    20249021.059
  22701873.475     9162621.29049   7145904.20646  22701873.400    22701881.920
  20843501.547    -6748093.62849  -5235329.50948  20843501.154    20843509.059
  22003673.399   -18905611.23149 -14714420.09647  22003673.314    22003681.050
  23892850.560   -10650783.96349  -8276747.65445  23892850.204    23892861.557
  21099429.016   -22213720.78949 -17286944.88347  21099428.300    21099436.814
 03  4 11 18 25 30.0000000  0  6G30G24G 5G 6G17G10
  20246819.347   -23854027.87249 -18567809.57848  20246819.718    20246826.326
  22717454.528     9244500.36649   7209706.04446  22717454.513    22717463.026
  20854420.886    -6690712.41549  -5190616.92048  20854420.475    20854428.373
  21992368.658   -18965018.11049 -14760711.14047  21992368.560    21992376.316
  23876995.890   -10734100.31349  -8341669.38546  23876995.520    23877006.849
  21094367.366   -22240319.86549 -17307671.40247  21094366.664    21094375.139
 03  4 11 18 26  0.0000000  0  6G30G24G 5G 6G17G10
  20244733.911   -23864986.86049 -18576349.05848  20244734.282    20244740.905
  22733054.777     9326480.10249   7273586.32446  22733054.764    22733063.256
  20865430.020    -6632859.08249  -5145536.44848  20865429.614    20865437.558
  21981082.183   -19024328.84649 -14806927.26647  21981082.064    21981089.855
  23861177.111   -10817228.30349  -8406444.33746  23861176.731    23861188.086
  21089422.156   -22266306.98149 -17327921.06347  21089421.438    21089429.895
 03  4 11 18 26 30.0000000  0  6G30G24G 5G 6G17G10
  20242758.026   -23875370.32449 -18584440.07948  20242758.400    20242765.004
  22748673.889     9408558.72449   7337543.65446  22748673.861    22748682.341
  20876528.743    -6574535.10049  -5100089.23548  20876528.340    20876536.307
  21969814.212   -19083542.52449 -14853067.77047  21969814.084    21969821.899
  23845394.384   -10900166.88249  -8471071.71346  23845394.037    23845405.295
  21084593.597   -22291680.94749 -17347692.96347  21084592.900    21084601.368
 03  4 11 18 27  0.0000000  0  6G30G24G 5G 6G17G10
  20240891.752   -23885177.75349 -18592082.24248  20240892.112    20240898.722
  22764311.418     9490734.15049   7401576.40846  22764311.345    22764319.860
  20887716.699    -6515742.24149  -5054276.66448  20887716.295    20887724.261
  21958564.673   -19142658.72149 -14899132.31547  21958564.572    21958572.422
  23829647.739   -10982915.59449  -8535551.12546  23829647.329    23829658.646
  21079881.983   -22316440.49449 -17366986.08247  21079881.282    21079889.769
 03  4 11 18 27 30.0000000  0  6G30G24G 5G 6G17G10
  20239135.344   -23894407.78849 -18599274.48848  20239135.718    20239142.306
  22779967.205     9573005.42949   7465683.84746  22779967.127    22779975.596
  20898993.674    -6456481.39849  -5008099.42748  20898993.268    20899001.266
  21947333.983   -19201675.96349 -14945119.74747  21947333.957    21947341.747
  23813937.539   -11065472.95649  -8599881.44446  23813937.154    23813948.426
  21075287.600   -22340584.03149 -17385799.20647  21075286.902    21075295.359
 03  4 11 18 28  0.0000000  0  6G30G24G 5G 6G17G10
  20237488.875   -23903059.95649 -18606016.44848  20237489.268    20237495.848
  22795640.762     9655370.31049   7529864.23646  22795640.687    22795649.156
  20910359.322    -6396754.65849  -4961559.15848  20910358.930    20910366.937
  21936122.327   -19260593.72249 -14991029.67447  21936122.298    21936130.044
  23798263.667   -11147838.83149  -8664062.55246  23798263.276    23798274.543
  21070810.542   -22364110.91349 -17404131.82747  21070809.842    21070818.286
 03  4 11 18 28 30.0000000  0  6G30G24G 5G 6G17G10
  20235952.532   -23911133.51949 -18612307.54648  20235952.921    20235959.532
  22811331.824     9737827.15949   7594116.27946  22811331.714    22811340.213
  20921813.369    -6336563.55449  -4914657.04248  20921812.960    20921820.971
  21924929.655   -19319411.33549 -15036861.55447  21924929.647    21924937.333
  23782626.525   -11230012.29449  -8728093.71946  23782626.091    23782637.332
  21066451.080   -22387020.07449 -17421983.10347  21066450.370    21066458.808
 03  4 11 18 29  0.0000000  0  6G30G24G 5G 6G17G10
  20234526.359   -23918628.15549 -18618147.53648  20234526.759    20234533.381
  22827039.945     9820374.08249   7658438.51346  22827039.849    22827048.383
  20933355.417    -6275909.67649  -4867394.32748  20933355.010    20933363.059
  21913756.197   -19378128.29549 -15082615.00447  21913756.152    21913763.819
  23767026.060   -11311992.89249  -8791974.60746  23767025.641    23767036.879
  21062209.309   -22409310.68449 -17439352.39147  21062208.586    21062217.005
 03  4 11 18 29 30.0000000  0  6G30G24G 5G 6G17G10
  20233210.654   -23925542.41149 -18623535.28248  20233211.049    20233217.675
  22842764.965     9903009.73049   7722829.87346  22842764.913    22842773.469
  20944985.421    -6214793.96449  -4819771.74348  20944985.018    20944993.061
  21902602.164   -19436743.02649 -15128288.80447  21902602.124    21902609.772
  23751462.621   -11393779.08549  -8855704.01646  23751462.195    23751473.430
  21058085.555   -22430981.03449 -17456238.36547  21058084.851    21058093.261
 03  4 11 18 30  0.0000000  0  6G30G24G 5G 6G17G10
  20232005.428   -23931875.97149 -18628470.53748  20232005.804    20232012.422
  22858506.576     9985732.00449   7787288.72746  22858506.485    22858515.095
  20956702.934    -6153218.33149  -4771790.77648  20956702.517    20956710.559
  21891467.627   -19495255.17149 -15173882.66147  21891467.613    21891475.239
  23735936.183   -11475370.59049  -8919281.70246  23735935.734    23735947.024
  21054079.991   -22452030.33349 -17472640.40247  21054079.284    21054087.704
 03  4 11 18 30 30.0000000  0  6G30G24G 5G 6G17G10
  20230910.800   -23937628.35849 -18632952.93148  20230911.182    20230917.793
  22874264.315    10068539.38749   7851813.92946  22874264.276    22874272.863
  20968507.611    -6091184.54749  -4723452.81148  20968507.184    20968515.235
  21880352.764   -19553664.02549 -15219396.03847  21880352.737    21880360.394
  23720446.940   -11556766.53249  -8982707.01046  23720446.537    23720457.768
  21050192.816   -22472457.42149 -17488557.59947  21050192.105    21050200.540
 03  4 11 18 31  0.0000000  0  6G30G24G 5G 6G17G10
  20229926.838   -23942799.07049 -18636982.07448  20229927.223    20229933.865
  22890037.896    10151429.85549   7916403.83846  22890037.876    22890046.477
  20980399.124    -6028694.41149  -4674759.24448  20980398.702    20980406.758
  21869257.770   -19611968.85049 -15264828.35447  21869257.708    21869265.319
  23704995.063   -11637966.53649  -9045979.63246  23704994.694    23705005.855
  21046424.171   -22492261.77549 -17503989.55847  21046423.464    21046431.894
 03  4 11 18 31 30.0000000  0  6G30G24G 5G 6G17G10
  20229053.706   -23947387.44349 -18640557.44348  20229054.097    20229060.754
  22905826.855    10234401.39049   7981056.93946  22905826.866    22905835.494
  20992377.159    -5965749.43549  -4625711.26048  20992376.740    20992384.838
  21858182.743   -19670168.74949 -15310178.90747  21858182.645    21858190.188
  23689580.526   -11718969.93449  -9109099.06646  23689580.115    23689591.256
  21042774.160   -22511442.59049 -17518935.64247  21042773.471    21042781.869
 03  4 11 18 32  0.0000000  0  6G30G24G 5G 6G17G10
  20228291.552   -23951392.62249 -18643678.37948  20228291.945    20228298.622
  22921631.045    10317452.88749   8045772.33846  22921631.095    22921639.740
  21004441.504    -5902351.02749  -4576309.94748  21004441.088    21004449.201
  21847127.829   -19728262.57349 -15355446.80747  21847127.718    21847135.279
  23674203.710   -11799775.34449  -9172064.21246  23674203.320    23674214.314
  21039243.157   -22529998.31349 -17533394.64647  21039242.446    21039250.828
 03  4 11 18 32 30.0000000  0  6G30G24G 5G 6G17G10
  20227640.465   -23954814.13149 -18646344.50648  20227640.865    20227647.533
  22937450.061    10400582.56649   8110548.65046  22937450.134    22937458.831
  21016591.808    -5838501.03549  -4526556.75348  21016591.386    21016599.489
  21836093.191   -19786249.61049 -15400631.49447  21836093.108    21836100.691
  23658864.653   -11880382.54749  -9234874.93046  23658864.279    23658875.151
  21035831.158   -22547928.45249 -17547366.18047  21035830.448    21035838.799
 03  4 11 18 33  0.0000000  0  6G30G24G 5G 6G17G10
  20227100.534   -23957651.64549 -18648555.56848  20227100.929    20227107.557
  22953283.706    10483788.72249   8175384.58146  22953283.763    22953292.473
  21028827.698    -5774201.12549  -4476452.97048  21028827.276    21028835.412
  21825078.943   -19844129.20349 -15445732.46147  21825078.922    21825086.529
  23643563.438   -11960790.60049  -9297530.44646  23643563.002    23643573.964
  21032538.370   -22565232.16949 -17560849.59547  21032537.657    21032546.013
 03  4 11 18 33 30.0000000  0  6G30G24G 5G 6G17G10
  20226671.858   -23959904.57849 -18650311.11748  20226672.246    20226678.872
  22969131.571    10567069.63149   8240278.73946  22969131.591    22969140.300
  21041148.922    -5709452.92849  -4425999.87648  21041148.506    21041156.644
  21814085.385   -19901900.34749 -15490748.91947  21814085.423    21814093.055
  23628300.171   -12040999.05649  -9360030.44446  23628299.729    23628310.764
  21029364.959   -22581908.48349 -17573844.12147  21029364.244    21029372.587
 03  4 11 18 34  0.0000000  0  6G30G24G 5G 6G17G10
  20226354.438   -23961572.64649 -18651610.92648  20226354.836    20226361.453
  22984993.437    10650423.52749   8305229.77846  22984993.380    22985002.009
  21053555.089    -5644258.45749  -4375199.03148  21053554.657    21053562.771
  21803112.663   -19959562.24449 -15535680.25247  21803112.709    21803120.344
  23613074.973   -12121007.38549  -9422374.49646  23613074.559    23613085.551
  21026311.040   -22597956.98549 -17586349.44447  21026310.338    21026318.688
 03  4 11 18 34 30.0000000  0  6G30G24G 5G 6G17G10
  20226148.472   -23962655.06749 -18652454.38848  20226148.869    20226155.501
  23000868.802    10733848.66549   8370236.32546  23000868.730    23000877.359
  21066045.873    -5578619.05449  -4324051.49048  21066045.440    21066053.573
  21792160.976   -20017113.93749 -15580525.70747  21792160.991    21792168.619
  23597888.054   -12200814.41149  -9484561.69346  23597887.612    23597898.653
  21023376.781   -22613376.54749 -17598364.68047  21023376.080    21023384.449
 03  4 11 18 35  0.0000000  0  6G30G24G 5G 6G17G10
  20226053.993   -23963151.49749 -18652841.23548  20226054.384    20226061.023
  23016757.364    10817343.49649   8435297.16246  23016757.291    23016765.968
  21078620.956    -5512536.54849  -4272558.67148  21078620.545    21078628.691
  21781230.416   -20074554.49549 -15625284.57047  21781230.418    21781238.009
  23582739.627   -12280419.61749  -9546591.63646  23582739.179    23582750.180
  21020562.365   -22628166.41049 -17609889.24547  21020561.678    21020570.031
 03  4 11 18 35 30.0000000  0  6G30G24G 5G 6G17G10
  20226071.092   -23963061.85349 -18652771.39748  20226071.482    20226078.092
  23032658.902    10900906.48149   8500411.13246  23032658.822    23032667.539
  21091280.006    -5446013.01449  -4220722.19147  21091279.601    21091287.784
  21770321.161   -20131883.33849 -15669956.37947  21770321.140    21770328.709
  23567629.742   -12359822.40449  -9608463.83946  23567629.340    23567640.241
  21017867.801   -22642326.39849 -17620922.99547  21017867.084    21017875.461
 03  4 11 18 36  0.0000000  0  6G30G24G 5G 6G17G10
  20226199.782   -23962385.59649 -18652244.46648  20226200.163    20226206.780
  23048572.995    10984535.74349   8565576.71546  23048572.935    23048581.709
  21104022.632    -5379050.32949  -4168543.51747  21104022.209    21104030.405
  21759433.270   -20189099.52449 -15714540.40547  21759433.258    21759440.795
  23552558.520   -12439022.58549  -9670178.18346  23552557.994    23552568.841
  21015293.300   -22655855.54849 -17631465.18647  21015292.566    21015300.937
 03  4 11 18 36 30.0000000  0  6G30G24G 5G 6G17G10
  20226440.142   -23961122.49849 -18651260.25348  20226440.547    20226447.163
  23064499.443    11068229.60849   8630792.66346  23064499.419    23064508.166
  21116848.456    -5311650.27449  -4116024.02947  21116848.030    21116856.239
  21748567.027   -20246201.97349 -15759035.80147  21748567.030    21748574.593
  23537525.902   -12518019.22949  -9731733.92346  23537525.421    23537536.150
  21012838.941   -22668753.23449 -17641515.32247  21012838.205    21012846.582
 03  4 11 18 37  0.0000000  0  6G30G24G 5G 6G17G10
  20226792.352   -23959271.81349 -18649818.18148  20226792.743    20226799.367
  23080438.063    11151987.15849   8696058.22446  23080438.025    23080446.764
  21129757.277    -5243814.12449  -4063164.73147  21129756.834    21129765.069
  21737722.696   -20303189.50749 -15803441.66147  21737722.648    21737730.204
  23522532.092   -12596811.43049  -9793130.34546  23522531.610    23522542.408
  21010504.970   -22681018.43849 -17651072.62047  21010504.221    21010512.584
 03  4 11 18 37 30.0000000  0  6G30G24G 5G 6G17G10
  20227256.374   -23956833.32749 -18647918.08248  20227256.771    20227263.392
  23096388.365    11235806.31649   8761371.81246  23096388.353    23096397.071
  21142748.693    -5175543.87349  -4009967.17747  21142748.280    21142756.537
  21726900.335   -20360061.27949 -15847757.31247  21726900.280    21726907.857
  23507577.337   -12675398.52449  -9854366.95446  23507576.913    23507587.704
  21008291.422   -22692650.62049 -17660136.65147  21008290.703    21008299.043
 03  4 11 18 38  0.0000000  0  6G30G24G 5G 6G17G10
  20227832.336   -23953806.79249 -18645559.76148  20227832.743    20227839.351
  23112350.161    11319685.63849   8826732.23846  23112350.172    23112358.884
  21155822.361    -5106841.49349  -3956432.90647  21155821.949    21155830.179
  21716100.147   -20416816.55449 -15891982.19547  21716100.087    21716107.696
  23492661.799   -12753779.87949  -9915443.25746  23492661.429    23492672.169
  21006198.408   -22703649.65749 -17668707.32647  21006197.682    21006205.983
 03  4 11 18 38 30.0000000  0  6G30G24G 5G 6G17G10
  20228520.197   -23950192.23649 -18642743.24548  20228520.587    20228527.194
  23128323.063    11403623.72649   8892138.46946  23128323.065    23128331.799
  21168977.903    -5037708.86749  -3902563.36747  21168977.502    21168985.727
  21705322.327   -20473454.49949 -15936115.64047  21705322.268    21705329.882
  23477785.436   -12831955.24849  -9976359.04446  23477785.078    23477795.753
  21004225.931   -22714014.96149 -17676784.17747  21004225.207    21004233.529
 03  4 11 18 39  0.0000000  0  6G30G24G 5G 6G17G10
  20229319.885   -23945989.68849 -18639468.55348  20229320.293    20229326.915
  23144306.732    11487618.31149   8957588.73946  23144306.770    23144315.503
  21182214.895    -4968148.14949  -3848360.24747  21182214.488    21182222.738
  21694566.934   -20529974.41449 -15980157.11747  21694566.894    21694574.469
  23462948.423   -12909924.15449 -10037113.94946  23462948.039    23462958.701
  21002374.139   -22723746.14449 -17684366.90747  21002373.419    21002381.728
 03  4 11 18 39 30.0000000  0  6G30G24G 5G 6G17G10
  20230231.576   -23941198.81249 -18635735.42348  20230231.972    20230238.638
  23160300.852    11571667.62849   9023081.64446  23160300.837    23160309.610
  21195532.979    -4898161.25249  -3793825.04647  21195532.578    21195540.831
  21683834.167   -20586375.35349 -16024105.88647  21683834.144    21683841.664
  23448150.846   -12987685.91149 -10097707.45946  23448150.463    23448160.995
  21000643.099   -22732842.86649 -17691455.25147  21000642.358    21000650.657
 03  4 11 18 40  0.0000000  0  6G30G24G 5G 6G17G10
  20231255.332   -23935818.97649 -18631543.36548  20231255.723    20231262.421
  23176305.162    11655770.60649   9088616.35746  23176305.158    23176313.886
  21208931.888    -4827749.50449  -3738958.79147  21208931.482    21208939.755
  21673124.349   -20642655.84749 -16067960.80647  21673124.318    21673131.835
  23433392.731   -13065239.68849 -10158138.87446  23433392.360    23433402.969
  20999032.961   -22741304.21749 -17698048.49847  20999032.232    20999040.528
 03  4 11 18 40 30.0000000  0  6G30G24G 5G 6G17G10
  20232391.214   -23929849.98849 -18626892.22848  20232391.607    20232398.313
  23192319.461    11739926.03649   9154191.95146  23192319.431    23192328.237
  21222411.374    -4756914.59649  -3683762.79747  21222410.961    21222419.252
  21662437.604   -20698814.80449 -16111721.01947  21662437.587    21662445.095
  23418674.432   -13142584.45749 -10218407.44146  23418674.029    23418684.707
  20997543.790   -22749129.80149 -17704146.34947  20997543.083    20997551.317
 03  4 11 18 41  0.0000000  0  6G30G24G 5G 6G17G10
  20233639.170   -23923292.02649 -18621782.14948  20233639.583    20233646.286
  23208343.363    11824131.91749   9219806.87546  23208343.328    23208352.141
  21235970.882    -4685659.10649  -3628239.07847  21235970.483    21235978.768
  21651774.122   -20754851.62849 -16155386.06547  21651774.129    21651781.642
  23403995.955   -13219720.33749 -10278513.24046  23403995.511    23404006.085
  20996175.627   -22756319.52849 -17709748.72047  20996174.921    20996183.154
 03  4 11 18 41 30.0000000  0  6G30G24G 5G 6G17G10
  20234999.211   -23916145.00749 -18616213.07248  20234999.621    20235006.351
  23224376.591    11908386.97249   9285460.09046  23224376.568    23224385.408
  21249610.059    -4613984.97049  -3572389.14847  21249609.651    21249617.932
  21641134.085   -20810765.35449 -16198955.19247  21641134.095    21641141.607
  23389357.223   -13296646.62849 -10338455.72246  23389356.845    23389367.411
  20994928.575   -22762872.75749 -17714855.12347  20994927.864    20994936.127
 03  4 11 18 42  0.0000000  0  6G30G24G 5G 6G17G10
  20236471.452   -23908408.41149 -18610184.57448  20236471.852    20236478.581
  23240419.028    11992689.92049   9351150.63446  23240418.983    23240427.823
  21263328.622    -4541893.64149  -3516214.13547  21263328.204    21263336.502
  21630517.727   -20866554.64349 -16242427.35347  21630517.704    21630525.228
  23374758.573   -13373362.59449 -10398234.31946  23374758.182    23374768.740
  20993802.786   -22768788.93549 -17719465.11847  20993802.053    20993810.326
 03  4 11 18 42 30.0000000  0  6G30G24G 5G 6G17G10
  20238055.839   -23900082.60149 -18603696.95348  20238056.225    20238062.932
  23256470.059    12077038.65849   9416876.83346  23256470.011    23256478.889
  21277126.123    -4469387.42049  -3459715.83547  21277125.692    21277134.047
  21619925.107   -20922219.00149 -16285802.16847  21619925.117    21619932.678
  23360200.042   -13449867.81749 -10457848.70246  23360199.611    23360210.238
  20992798.136   -22774068.25749 -17723578.86047  20992797.409    20992805.674
 03  4 11 18 43  0.0000000  0  6G30G24G 5G 6G17G10
  20239752.342   -23891167.34949 -18596750.02648  20239752.731    20239759.456
  23272529.695    12161432.24849   9482638.01146  23272529.653    23272538.561
  21291002.258    -4396467.97749  -3402895.54647  21291001.846    21291010.209
  21609356.584   -20977756.99749 -16329078.52147  21609356.574    21609364.133
  23345681.799   -13526161.60249 -10517298.33446  23345681.371    23345691.921
  20991914.844   -22778709.99249 -17727195.78647  20991914.140    20991922.372
 03  4 11 18 43 30.0000000  0  6G30G24G 5G 6G17G10
  20241561.023   -23881662.78349 -18589343.89348  20241561.419    20241568.155
  23288597.422    12245868.55449   9548432.45146  23288597.359    23288606.291
  21304956.624    -4323137.65649  -3345755.09047  21304956.196    21304964.532
  21598812.260   -21033167.90049 -16372255.84147  21598812.223    21598819.763
  23331203.729   -13602243.79749 -10576583.08846  23331203.314    23331213.864
  20991152.854   -22782714.35049 -17730316.05447  20991152.128    20991160.372
 03  4 11 18 44  0.0000000  0  6G30G24G 5G 6G17G10
  20243481.883   -23871568.82949 -18581478.49148  20243482.259    20243489.017
  23304673.121    12330346.58449   9614259.41946  23304673.090    23304681.988
  21318988.794    -4249398.45749  -3288296.02847  21318988.361    21318996.697
  21588292.305   -21088450.70049 -16415333.33847  21588292.256    21588299.761
  23316766.181   -13678113.30049 -10635702.10646  23316765.789    23316776.358
  20990512.177   -22786081.04249 -17732939.43947  20990511.451    20990519.671
 03  4 11 18 44 30.0000000  0  6G30G24G 5G 6G17G10
  20245514.829   -23860885.44149 -18573153.79848  20245515.221    20245522.001
  23320756.509    12414864.96649   9680117.83846  23320756.476    23320765.369
  21333098.333    -4175252.19549  -3230519.77747  21333097.914    21333106.320
  21577796.945   -21143604.18949 -16458310.07247  21577796.912    21577804.415
  23302369.229   -13753769.83149 -10694655.19546  23302368.836    23302379.322
  20989992.924   -22788809.75649 -17735065.70147  20989992.201    20990000.401
 03  4 11 18 45  0.0000000  0  6G30G24G 5G 6G17G10
  20247659.934   -23849613.02549 -18564370.12148  20247660.336    20247667.099
  23336847.177    12499421.78949   9746006.21146  23336847.107    23336856.063
  21347284.931    -4100701.24849  -3172428.19247  21347284.522    21347292.922
  21567326.322   -21198627.69949 -16501185.53147  21567326.281    21567333.762
  23288012.799   -13829213.06249 -10753442.05546  23288012.345    23288022.856
  20989595.066   -22790900.59949 -17736694.92247  20989594.316    20989602.536
 03  4 11 18 45 30.0000000  0  6G30G24G 5G 6G17G10
  20249917.210   -23837751.14649 -18555127.11848  20249917.604    20249924.368
  23352944.955    12584015.93749   9811923.65646  23352944.902    23352953.848
  21361548.301    -4025747.05749  -3114022.38147  21361547.878    21361556.285
  21556880.709   -21253519.70249 -16543958.51147  21556880.682    21556888.166
  23273697.051   -13904442.23749 -10812062.12046  23273696.645    23273707.133
  20989318.657   -22792353.12049 -17737826.74847  20989317.937    20989326.163
 03  4 11 18 46  0.0000000  0  6G30G24G 5G 6G17G10
  20252286.576   -23825300.12149 -18545425.04648  20252286.974    20252293.751
  23369049.623    12668645.81249   9877868.95146  23369049.544    23369058.451
  21375887.944    -3950391.91149  -3055304.14847  21375887.531    21375895.942
  21546460.322   -21308279.29349 -16586628.31347  21546460.266    21546467.777
  23259422.208   -13979456.84749 -10870515.00046  23259421.807    23259432.225
  20989163.683   -22793167.44449 -17738461.28447  20989162.965    20989171.177
 03  4 11 18 46 30.0000000  0  6G30G24G 5G 6G17G10
  20254767.943   -23812260.56349 -18535264.37348  20254768.346    20254775.106
  23385160.601    12753309.47549   9943840.55746  23385160.580    23385169.510
  21390303.397    -3874638.40549  -2996275.49747  21390303.011    21390311.414
  21536065.220   -21362905.93449 -16629194.51247  21536065.152    21536072.627
  23245188.290   -14054256.88049 -10928800.67846  23245187.831    23245198.222
  20989130.079   -22793343.97349 -17738598.83547  20989129.348    20989137.566
 03  4 11 18 47  0.0000000  0  6G30G24G 5G 6G17G10
  20257361.397   -23798632.16849 -18524644.86748  20257361.790    20257368.554
  23401277.901    12838006.35649  10009838.06146  23401277.893    23401286.892
  21404794.377    -3798487.98249  -2936937.56447  21404793.979    21404802.408
  21525695.723   -21417398.04849 -16671655.88247  21525695.661    21525703.125
  23230995.329   -14128841.24549 -10986918.29546  23230994.857    23231005.218
  20989218.033   -22792881.90449 -17738238.77947  20989217.287    20989225.519
 03  4 11 18 47 30.0000000  0  6G30G24G 5G 6G17G10
  20260066.815   -23784415.15849 -18513566.70148  20260067.217    20260073.991
  23417401.308    12922735.06749  10075860.36146  23417401.300    23417410.347
  21419360.428    -3721943.05849  -2877292.23047  21419360.045    21419368.490
  21515352.030   -21471754.64049 -16714011.65647  21515351.962    21515359.391
  23216843.432   -14203209.82249 -11044867.77346  23216842.984    23216853.309
  20989427.420   -22791781.29849 -17737381.16447  20989426.712    20989434.910
 03  4 11 18 48  0.0000000  0  6G30G24G 5G 6G17G10
  20262884.169   -23769609.83449 -18502030.10948  20262884.577    20262891.365
  23433530.444    13007493.97549  10141906.19146  23433530.454    23433539.453
  21434001.191    -3645005.65749  -2817341.07247  21434000.810    21434009.254
  21505034.337   -21525974.69549 -16756261.03547  21505034.254    21505041.653
  23202732.659   -14277361.84849 -11102648.51246  23202732.233    23202742.626
  20989758.276   -22790042.59449 -17736026.32847  20989757.573    20989765.760
 03  4 11 18 48 30.0000000  0  6G30G24G 5G 6G17G10
  20265813.427   -23754216.60549 -18490035.41148  20265813.809    20265820.619
  23449664.944    13092281.13649  10207974.04746  23449664.955    23449673.952
  21448716.216    -3567678.02149  -2757085.83547  21448715.823    21448724.232
  21494742.750   -21580057.28849 -16798403.30247  21494742.669    21494750.045
  23188663.213   -14351297.06149 -11160260.30746  23188662.793    23188673.164
  20990210.564   -22787665.96849 -17734174.40947  20990209.830    20990218.038
 03  4 11 18 49  0.0000000  0  6G30G24G 5G 6G17G10
  20268854.548   -23738235.59849 -18477582.70648  20268854.944    20268861.744
  23465804.660    13177095.53049  10274063.09746  23465804.651    23465813.620
  21463505.099    -3489962.23149  -2696528.14347  21463504.695    21463513.123
  21484477.609   -21634001.23449 -16840437.53047  21484477.486    21484484.861
  23174635.084   -14425015.22049 -11217702.96246  23174634.644    23174645.000
  20990784.219   -22784651.25949 -17731825.28947  20990783.503    20990791.714
 03  4 11 18 49 30.0000000  0  6G30G24G 5G 6G17G10
  20272007.489   -23721667.02649 -18464672.15548  20272007.881    20272014.668
  23481949.306    13261935.90949  10340172.40646  23481949.255    23481958.289
  21478367.388    -3411860.47449  -2635669.69847  21478366.996    21478375.482
  21474238.999   -21687805.47349 -16882362.89447  21474238.874    21474246.298
  23160648.404   -14498515.37949 -11274975.74746  23160648.027    23160658.305
  20991479.288   -22780998.70449 -17728979.14247  20991478.572    20991486.755
 03  4 11 18 50  0.0000000  0  6G30G24G 5G 6G17G10
  20275272.145   -23704511.17349 -18451303.98348  20275272.531    20275279.318
  23498098.572    13346800.50149  10406300.60746  23498098.505    23498107.610
  21493302.780    -3333374.72249  -2574512.03847  21493302.376    21493310.872
  21464027.141   -21741468.74249 -16924178.41547  21464027.043    21464034.466
  23146703.230   -14571797.33949 -11332078.50546  23146702.821    23146713.100
  20992295.713   -22776708.33049 -17725635.99547  20992294.997    20992303.159
 03  4 11 18 50 30.0000000  0  6G30G24G 5G 6G17G10
  20278648.505   -23686768.40349 -18437478.47448  20278648.893    20278655.703
  23514252.225    13431688.31949  10472446.85446  23514252.172    23514261.278
  21508310.857    -3254506.93449  -2513056.68347  21508310.446    21508318.954
  21453842.439   -21794989.79549 -16965883.11947  21453842.304    21453849.762
  23132799.725   -14644860.68449 -11389010.91946  23132799.327    23132809.562
  20993233.556   -22771779.98349 -17721795.72447  20993232.827    20993241.002
 03  4 11 18 51  0.0000000  0  6G30G24G 5G 6G17G10
  20282136.430   -23668439.23649 -18423196.03248  20282136.819    20282143.655
  23530410.034    13516597.88049  10538610.07846  23530409.976    23530419.123
  21523391.165    -3175259.61849  -2451305.59647  21523390.766    21523399.284
  21443684.896   -21848367.88349 -17007476.42047  21443684.796    21443692.267
  23118937.884   -14717705.11249 -11445772.74846  23118937.473    23118947.711
  20994292.641   -22766214.40749 -17717458.91047  20994291.924    20994300.107
 03  4 11 18 51 30.0000000  0  6G30G24G 5G 6G17G10
  20285735.918   -23649524.00149 -18408456.91248  20285736.307    20285743.129
  23546571.676    13601527.61049  10604789.00746  23546571.597    23546580.797
  21538543.308    -3095634.92449  -2389260.45147  21538542.907    21538551.439
  21433554.777   -21901601.74249 -17048957.33547  21433554.709    21433562.190
  23105117.789   -14790330.18049 -11502363.64846  23105117.370    23105127.557
  20995473.006   -22760011.58249 -17712625.54347  20995472.287    20995480.435
 03  4 11 18 52  0.0000000  0  6G30G24G 5G 6G17G10
  20289446.872   -23630023.03949 -18393261.38348  20289447.238    20289454.079
  23562737.003    13686476.52649  10670982.88346  23562736.897    23562746.027
  21553766.894    -3015635.03749  -2326922.94847  21553766.458    21553774.967
  21423452.383   -21954690.24549 -17090324.98847  21423452.303    21423459.757
  23091339.620   -14862735.08049 -11558782.99546  23091339.159    23091349.256
  20996774.493   -22753172.16049 -17707296.13247  20996773.766    20996781.949
 03  4 11 18 52 30.0000000  0  6G30G24G 5G 6G17G10
  20293269.069   -23609937.13749 -18377610.05648  20293269.452    20293276.317
  23578905.659    13771442.85049  10737190.33446  23578905.533    23578914.699
  21569061.299    -2935262.25349  -2264294.88147  21569060.880    21569069.447
  21413377.814   -22007632.46749 -17131578.65347  21413377.717    21413385.194
  23077603.215   -14934919.86149 -11615030.82246  23077602.758    23077612.934
  20998197.140   -22745696.14249 -17701470.66747  20998196.441    20998204.593
 03  4 11 18 53  0.0000000  0  6G30G24G 5G 6G17G10
  20297202.678   -23589265.89349 -18361502.61748  20297203.079    20297209.944
  23595077.483    13856426.20449  10803411.03846  23595077.408    23595086.596
  21584426.461    -2854517.99049  -2201377.35647  21584426.063    21584434.665
  21403331.444   -22060426.46949 -17172716.82647  21403331.352    21403338.826
  23063908.781   -15006883.69549 -11671106.47646  23063908.378    23063918.610
  20999741.024   -22737583.20349 -17695148.89747  20999740.302    20999748.467
 03  4 11 18 53 30.0000000  0  6G30G24G 5G 6G17G10
  20301247.480   -23568010.54449 -18344940.03448  20301247.859    20301254.742
  23611252.233    13941424.65349  10869643.51046  23611252.120    23611261.388
  21599861.773    -2773405.37749  -2138172.80347  21599861.377    21599869.952
  21393313.328   -22113071.88149 -17213739.21047  21393313.247    21393320.728
  23050256.505   -15078626.69049 -11727010.05846  23050256.080    23050266.360
  21001405.793   -22728834.34749 -17688331.60447  21001405.130    21001413.317
 03  4 11 18 54  0.0000000  0  6G30G24G 5G 6G17G10
  20305403.392   -23546171.07649 -18327922.29748  20305403.762    20305410.680
  23627429.619    14026437.10349  10935886.91246  23627429.512    23627438.840
  21615366.844    -2691926.17649  -2074682.59847  21615366.443    21615375.003
  21383323.783   -22165567.12249 -17254644.57947  21383323.693    21383331.143
  23036646.379   -15150148.31049 -11782741.14046  23036645.932    23036656.192
  21003191.658   -22719449.66749 -17681018.86847  21003190.973    21003199.149
 03  4 11 18 54 30.0000000  0  6G30G24G 5G 6G17G10
  20309670.261   -23523748.57649 -18310450.25048  20309670.638    20309677.570
  23643609.288    14111461.83949  11002139.85746  23643609.230    23643618.568
  21630941.152    -2610082.83549  -2010908.64847  21630940.751    21630949.316
  21373362.978   -22217911.44649 -17295432.35547  21373362.929    21373370.325
  23023078.471   -15221447.99649 -11838299.27446  23023078.015    23023088.237
  21005098.391   -22709429.88249 -17673211.25047  21005097.683    21005105.838
 03  4 11 18 55  0.0000000  0  6G30G24G 5G 6G17G10
  20314048.032   -23500743.43949 -18292524.20348  20314048.417    20314055.320
  23659791.243    14196497.99749  11068401.71846  23659791.157    23659800.489
  21646584.347    -2527877.68849  -1946852.77847  21646583.932    21646592.524
  21363431.208   -22270103.43949 -17336101.42947  21363431.144    21363438.501
  23009552.852   -15292525.53149 -11893684.31646  23009552.388    23009562.559
  21007125.829   -22698775.55049 -17664909.18447  21007125.120    21007133.299
 03  4 11 18 55 30.0000000  0  6G30G24G 5G 6G17G10
  20318536.555   -23477156.31149 -18274144.65348  20318536.930    20318543.818
  23675975.032    14281544.00049  11134671.24746  23675974.954    23675984.270
  21662295.961    -2445313.12149  -1882516.83547  21662295.545    21662304.115
  21353528.594   -22322142.06849 -17376651.00247  21353528.520    21353535.842
  22996069.543   -15363380.63249 -11948896.03146  22996069.073    22996079.208
  21009273.978   -22687487.06349 -17656112.96247  21009273.273    21009281.426
 03  4 11 18 56  0.0000000  0  6G30G24G 5G 6G17G10
  20323135.749   -23452987.47449 -18255311.82448  20323136.146    20323143.022
  23692160.550    14366599.06949  11200947.85646  23692160.409    23692169.770
  21678075.600    -2362390.96249  -1817902.25747  21678075.171    21678083.769
  21343655.437   -22374025.90049 -17417079.95647  21343655.345    21343662.689
  22982628.581   -15434012.81149 -12003934.03846  22982628.138    22982638.267
  21011542.715   -22675564.57549 -17646822.71747  21011542.012    21011550.190
 03  4 11 18 56 30.0000000  0  6G30G24G 5G 6G17G10
  20327845.489   -23428237.84849 -18236026.43248  20327845.875    20327852.756
  23708347.526    14451661.90049  11267230.49346  23708347.432    23708356.791
  21693922.773    -2279113.73749  -1753011.00647  21693922.360    21693931.005
  21333811.897   -22425753.88849 -17457387.47047  21333811.819    21333819.166
  22969230.140   -15504421.65049 -12058798.02146  22969229.713    22969239.839
  21013931.992   -22663008.89049 -17637039.06747  21013931.308    21013939.487
 03  4 11 18 57  0.0000000  0  6G30G24G 5G 6G17G10
  20332665.562   -23402908.22949 -18216289.09948  20332665.948    20332672.852
  23724535.576    14536730.76549  11333517.81846  23724535.555    23724544.956
  21709837.019    -2195484.07249  -1687845.12847  21709836.633    21709845.294
  21323998.244   -22477325.01849 -17497572.76347  21323998.153    21324005.520
  22955874.218   -15574607.17549 -12113487.99046  22955873.789    22955883.933
  21016441.685   -22649820.53449 -17626762.43047  21016440.981    21016449.176
 03  4 11 18 57 30.0000000  0  6G30G24G 5G 6G17G10
  20337595.988   -23376998.76049 -18196099.93248  20337596.385    20337603.298
  23740724.639    14621804.68649  11399809.10446  23740724.678    23740734.035
  21725818.034    -2111503.75349  -1622406.00947  21725817.639    21725826.317
  21314214.703   -22528737.79749 -17537634.65847  21314214.626    21314221.992
  22942560.993   -15644568.42449 -12168003.19646  22942560.586    22942570.671
  21019071.668   -22635999.83649 -17615993.06347  21019070.950    21019079.135
 03  4 11 18 58  0.0000000  0  6G30G24G 5G 6G17G10
  20342636.562   -23350510.61049 -18175459.84448  20342636.935    20342643.821
  23756914.537    14706882.51249  11466103.43246  23756914.590    23756923.960
  21741865.230    -2027175.49349  -1556695.77147  21741864.830    21741873.493
  21304461.442   -22579991.33549 -17577572.46847  21304461.378    21304468.760
  22929290.453   -15714305.49849 -12222343.72046  22929290.023    22929300.055
  21021821.795   -22621547.87949 -17604731.80047  21021821.076    21021829.266
 03  4 11 18 58 30.0000000  0  6G30G24G 5G 6G17G10
  20347787.017   -23323444.71349 -18154369.56748  20347787.400    20347794.303
  23773104.804    14791962.73849  11532399.61246  23773104.872    23773114.282
  21757978.162    -1942501.68149  -1490716.27847  21757977.735    21757986.440
  21294738.754   -22631084.58149 -17617385.37947  21294738.669    21294746.041
  22916062.592   -15783818.49749 -12276509.64246  22916062.150    22916072.140
  21024691.897   -22606465.48849 -17592979.29547  21024691.169    21024699.339
 03  4 11 18 59  0.0000000  0  6G30G24G 5G 6G17G10
  20353047.221   -23295802.19949 -18132829.97748  20353047.628    20353054.517
  23789295.233    14877043.58049  11598696.27546  23789295.303    23789304.684
  21774156.423    -1857484.82449  -1424469.47347  21774155.995    21774164.738
  21285046.691   -22682016.69349 -17657072.73047  21285046.609    21285053.969
  22902877.240   -15853107.27849 -12330500.84646  22902876.849    22902886.872
  21027681.787   -22590753.50949 -17580736.20447  21027681.069    21027689.244
 03  4 11 18 59 30.0000000  0  6G30G24G 5G 6G17G10
  20358417.169   -23267583.24849 -18110841.21448  20358417.571    20358424.471
  23805485.808    14962124.67949  11664993.14645  23805485.765    23805495.223
  21790399.563    -1772126.92549  -1357956.92947  21790399.140    21790407.931
  21275385.654   -22732785.72249 -17696633.00247  21275385.577    21275392.924
  22889734.879   -15922170.77449 -12384316.50546  22889734.487    22889744.474
  21030791.489   -22574412.01749 -17568002.58847  21030790.766    21030798.951
 03  4 11 19  0  0.0000000  0  6G30G24G 5G 6G17G10
  20363896.635   -23238788.43749 -18088403.73348  20363897.037    20363903.958
  23821675.976    15047204.83549  11731289.27345  23821676.017    23821685.515
  21806707.230    -1686430.07249  -1291180.26547  21806706.811    21806715.643
  21265755.918   -22783390.14649 -17736065.01247  21265755.854    21265763.191
  22876635.366   -15991009.02649 -12437956.64646  22876634.985    22876644.923
  21034020.845   -22557441.52849 -17554778.84247  21034020.141    21034028.321
 03  4 11 19  0 30.0000000  0  6G30G24G 5G 6G17G10
  20369485.637   -23209418.10849 -18065517.79348  20369486.048    20369492.998
  23837865.965    15132283.13949  11797583.93945  23837865.938    23837875.451
  21823078.924    -1600396.38049  -1224141.13247  21823078.527    21823087.408
  21256157.825   -22833828.36949 -17775367.51247  21256157.768    21256165.103
  22863578.915   -16059621.12649 -12491420.56046  22863578.504    22863588.402
  21037369.813   -22539842.69549 -17541065.47347  21037369.122    21037377.296
 03  4 11 19  1  0.0000000  0  6G30G24G 5G 6G17G10
  20375183.901   -23179473.81549 -18042184.60848  20375184.293    20375191.261
  23854055.362    15217358.41649  11863876.29645  23854055.341    23854064.840
  21839514.321    -1514028.34049  -1156841.46747  21839513.929    21839522.785
  21246591.494   -22884099.66849 -17814539.94247  21246591.441    21246598.785
  22850565.431   -16128007.44449 -12544708.54846  22850565.033    22850574.909
  21040838.097   -22521616.69549 -17526863.41247  21040837.391    21040845.591
 03  4 11 19  1 30.0000000  0  6G30G24G 5G 6G17G10
  20380991.185   -23148956.35849 -18018404.80848  20380991.583    20380998.532
  23870243.796    15302429.18749  11930165.10845  23870243.824    23870253.305
  21856012.852    -1427328.50149  -1089283.26347  21856012.447    21856021.303
  21237057.136   -22934202.96249 -17853581.46047  21237057.101    21237064.455
  22837594.963   -16196167.30249 -12597820.06846  22837594.582    22837604.463
  21044425.590   -22502764.23549 -17512173.20647  21044424.888    21044433.089
 03  4 11 19  2  0.0000000  0  6G30G24G 5G 6G17G10
  20386907.433   -23117866.65849 -17994179.10148  20386907.817    20386914.751
  23886431.229    15387494.17349  11996449.42845  23886431.227    23886440.738
  21872574.060    -1340299.16249  -1021468.30547  21872573.642    21872582.551
  21227554.951   -22984137.05449 -17892491.13247  21227554.920    21227562.292
  22824667.661   -16264100.66149 -12650755.09046  22824667.252    22824677.109
  21048132.186   -22483286.12349 -17496995.46847  21048131.492    21048139.687
 03  4 11 19  2 30.0000000  0  6G30G24G 5G 6G17G10
  20392932.357   -23086205.56249 -17969508.15448  20392932.746    20392939.721
  23902617.453    15472552.82649  12062728.79345  23902617.412    23902626.869
  21889197.436    -1252942.90149   -953398.59847  21889197.054    21889205.996
  21218085.345   -23033900.33849 -17931267.70447  21218085.295    21218092.653
  22811783.480   -16331807.14949 -12703513.33546  22811783.101    22811792.944
  21051957.710   -22463182.94349 -17481330.67047  21051957.023    21051965.214
 03  4 11 19  3  0.0000000  0  6G30G24G 5G 6G17G10
  20399065.832   -23053974.02749 -17944392.70548  20399066.210    20399073.218
  23918802.141    15557603.47149  12129001.91745  23918802.048    23918811.588
  21905882.625    -1165262.13549   -885076.03847  21905882.243    21905891.196
  21208648.380   -23083491.73849 -17969910.34647  21208648.358    21208655.716
  22798942.586   -16399286.35449 -12756094.48046  22798942.181    22798952.057
  21055901.933   -22442455.97349 -17465179.79447  21055901.253    21055909.436
 03  4 11 19  3 30.0000000  0  6G30G24G 5G 6G17G10
  20405307.615   -23021173.36849 -17918833.78548  20405308.009    20405315.022
  23934985.052    15642645.00549  12195267.94545  23934984.995    23934994.584
  21922629.097    -1077259.39149   -816502.59047  21922628.690    21922637.713
  21199244.331   -23132910.23449 -18008418.25847  21199244.318    21199251.636
  22786144.820   -16466538.62749 -12808498.78946  22786144.421    22786154.307
  21059964.622   -22421106.34349 -17448543.72847  21059963.930    21059972.155
 03  4 11 19  4  0.0000000  0  6G30G24G 5G 6G17G10
  20411657.617   -22987804.06049 -17892831.75748  20411658.013    20411665.015
  23951166.107    15727676.56349  12261526.23645  23951166.023    23951175.545
  21939436.428     -988936.70349   -747679.83047  21939436.024    21939445.085
  21189873.525   -23182154.11549 -18046790.10447  21189873.506    21189880.823
  22773390.448   -16533563.31449 -12860725.76046  22773390.040    22773399.896
  21064145.724   -22399134.52749 -17431422.83947  21064145.026    21064153.292
 03  4 11 19  4 30.0000000  0  6G30G24G 5G 6G17G10
  20418115.592   -22953867.50949 -17866387.72648  20418115.972    20418122.974
  23967345.028    15812696.84049  12327775.68045  23967344.962    23967354.524
  21956304.090     -900296.95749   -678610.01347  21956303.697    21956312.730
  21180536.147   -23231222.38849 -18085025.11547  21180536.100    21180543.437
  22760679.362   -16600360.36649 -12912775.35546  22760678.960    22760688.795
  21068444.998   -22376541.77649 -17413818.10447  21068444.309    21068452.566
 03  4 11 19  5  0.0000000  0  6G30G24G 5G 6G17G10
  20424681.258   -22919364.64149 -17839502.40448  20424681.657    20424688.671
  23983521.532    15897704.77349  12394015.52145  23983521.434    23983531.138
  21973231.680     -811342.43149   -609294.91147  21973231.268    21973240.303
  21171232.408   -23280113.77949 -18123122.29947  21171232.361    21171239.715
  22748011.701   -16666929.44449 -12964647.31146  22748011.279    22748021.074
  21072862.208   -22353329.01949 -17395730.24747  21072861.532    21072869.790
 03  4 11 19  5 30.0000000  0  6G30G24G 5G 6G17G10
  20431354.556   -22884296.43849 -17812176.56148  20431354.947    20431361.967
  23999695.511    15982699.69349  12460245.20545  23999695.495    23999705.261
  21990218.732     -722075.24649   -539736.18747  21990218.338    21990227.423
  21161962.604   -23328826.74949 -18161080.45347  21161962.558    21161969.932
  22735387.372   -16733270.34749 -13016341.46246  22735386.949    22735396.763
  21077397.292   -22329497.18649 -17377159.98847  21077396.602    21077404.851
 03  4 11 19  6  0.0000000  0  6G30G24G 5G 6G17G10
  20438135.225   -22848663.92749 -17784410.99648  20438135.623    20438142.641
  24015866.831    16067680.08249  12526463.58445  24015866.911    24015876.560
  22007264.845     -632497.85949   -469935.74547  22007264.418    22007273.574
  21152726.980   -23377360.17349 -18198898.69147  21152726.972    21152734.379
  22722806.526   -16799382.97749 -13067857.73346  22722806.129    22722815.904
  21082049.993   -22305047.22949 -17358108.07647  21082049.301    21082057.564
 03  4 11 19  6 30.0000000  0  6G30G24G 5G 6G17G10
  20445023.024   -22812468.37749 -17756206.70448  20445023.435    20445030.453
  24032035.239    16152645.15449  12592670.02645  24032035.308    24032044.991
  22024369.426     -542612.98649   -399895.69147  22024369.046    22024378.172
  21143525.842   -23425712.59949 -18236575.90147  21143525.822    21143533.222
  22710269.123   -16865266.94849 -13119195.83946  22710268.748    22710278.521
  21086820.095   -22279980.11649 -17338575.26347  21086819.409    21086827.665
 03  4 11 19  7  0.0000000  0  6G30G24G 5G 6G17G10
  20452017.784   -22775710.88949 -17727564.54648  20452018.172    20452025.204
  24048200.492    16237593.75149  12658863.63945  24048200.557    24048210.246
  22041532.139     -452422.97749   -329617.88047  22041531.735    22041540.888
  21134359.373   -23473882.68549 -18274111.02547  21134359.328    21134366.739
  22697775.275   -16930922.28649 -13170355.78946  22697774.907    22697784.678
  21091707.394   -22254297.23949 -17318562.62947  21091706.705    21091714.958
 03  4 11 19  7 30.0000000  0  6G30G24G 5G 6G17G10
  20459119.246   -22738392.59949 -17698485.39948  20459119.636    20459126.716
  24064362.369    16322524.75449  12725043.51745  24064362.408    24064372.101
  22058752.373     -361930.42649   -259104.32547  22058751.964    22058761.200
  21125227.835   -23521869.10649 -18311503.03547  21125227.819    21125235.210
  22685325.083   -16996348.31649 -13221337.06246  22685324.707    22685334.508
  21096711.650   -22227999.78649 -17298071.10047  21096710.931    21096719.189
 03  4 11 19  8  0.0000000  0  6G30G24G 5G 6G17G10
  20466327.085   -22700515.22949 -17668970.60548  20466327.476    20466334.559
  24080520.797    16407436.84249  12791208.67945  24080520.762    24080530.480
  22076029.630     -271138.24349   -188357.28747  22076029.243    22076038.531
  21116131.389   -23569671.02849 -18348751.27047  21116131.387    21116138.786
  22672918.369   -17061545.80349 -13272140.24546  22672917.976    22672927.765
  21101832.567   -22201089.23449 -17277101.83647  21101831.856    21101840.122
 03  4 11 19  8 30.0000000  0  6G30G24G 5G 6G17G10
  20473641.191   -22662079.48649 -17639020.72648  20473641.583    20473648.677
  24096675.424    16492329.26249  12857358.51245  24096675.379    24096685.088
  22093363.562     -180048.34249   -117378.26647  22093363.153    22093372.429
  21107070.439   -23617286.70849 -18385854.39647  21107070.439    21107077.811
  22660555.241   -17126514.09549 -13322764.84747  22660554.874    22660564.635
  21107070.018   -22173566.21249 -17255655.32347  21107069.300    21107077.541
 03  4 11 19  9  0.0000000  0  6G30G24G 5G 6G17G10
  20481061.268   -22623086.74449 -17608636.81848  20481061.666    20481068.794
  24112826.035    16577201.04949  12923492.26145  24112825.998    24112835.842
  22110753.608      -88663.31849    -46169.28247  22110753.224    22110762.543
  21098045.136   -23664714.92849 -18422811.44347  21098045.137    21098052.494
  22648235.823   -17191252.90549 -13373210.62947  22648235.483    22648245.204
  21112423.769   -22145432.02249 -17233732.56947  21112423.034    21112431.304
 03  4 11 19  9 30.0000000  0  6G30G24G 5G 6G17G10
  20488587.171   -22583538.01149 -17577819.67048  20488587.566    20488594.697
  24128972.591    16662051.14349  12989609.08945  24128972.550    24128982.369
  22128199.480        3014.65049     25267.97047  22128199.056    22128208.414
  21089055.790   -23711954.22049 -18459621.27647  21089055.761    21089063.119
  22635960.168   -17255761.89649 -13423477.33747  22635959.811    22635969.498
  21117893.602   -22116687.98249 -17211334.60947  21117892.887    21117901.141
 03  4 11 19 10  0.0000000  0  6G30G24G 5G 6G17G10
  20496218.616   -22543434.82549 -17546570.47948  20496219.003    20496226.125
  24145114.842    16746878.72349  13055708.38945  24145114.815    24145124.660
  22145700.538       94982.80349     96931.34147  22145700.120    22145709.501
  21080102.598   -23759003.63149 -18496283.14947  21080102.579    21080109.930
  22623728.145   -17320041.45049 -13473565.25747  22623727.789    22623737.479
  21123479.171   -22087335.47449 -17188462.51747  21123478.450    21123486.677
 03  4 11 19 10 30.0000000  0  6G30G24G 5G 6G17G10
  20503955.330   -22502778.28549 -17514890.09948  20503955.717    20503962.867
  24161252.573    16831682.46949  13121789.11045  24161252.493    24161262.292
  22163256.299      187238.59849    168818.84947  22163255.897    22163265.284
  21071185.847   -23805861.49049 -18532795.75948  21071185.812    21071193.170
  22611539.853   -17384091.09649 -13523474.03247  22611539.497    22611549.146
  21129180.375   -22057375.48149 -17165117.06247  21129179.653    21129187.905
 03  4 11 19 11  0.0000000  0  6G30G24G 5G 6G17G10
  20511797.059   -22461569.83749 -17482779.66248  20511797.428    20511804.623
  24177385.552    16916461.37749  13187850.48945  24177385.504    24177395.300
  22180866.400      279779.77649    240928.73447  22180866.016    22180875.385
  21062305.867   -23852526.31049 -18569157.94748  21062305.819    21062313.183
  22599395.236   -17447911.07249 -13573203.83847  22599394.874    22599404.562
  21134996.897   -22026809.38949 -17141299.32147  21134996.167    21135004.423
 03  4 11 19 11 30.0000000  0  6G30G24G 5G 6G17G10
  20519743.632   -22419810.32749 -17450239.82948  20519744.027    20519751.177
  24193513.728    17001215.30649  13253892.38945  24193513.669    24193523.602
  22198530.413      372603.95249    313259.13247  22198529.967    22198539.352
  21053462.940   -23898996.30849 -18605368.33348  21053462.881    21053470.232
  22587294.445   -17511500.69049 -13622754.15247  22587294.082    22587303.826
  21140928.579   -21995638.07449 -17117009.98047  21140927.860    21140936.149
 03  4 11 19 12  0.0000000  0  6G30G24G 5G 6G17G10
  20527794.825   -22377501.48149 -17417271.94448  20527795.203    20527802.335
  24209636.901    17085942.91549  13319913.77945  24209636.887    24209646.889
  22216247.624      465708.35849    385807.88547  22216247.192    22216256.663
  21044657.216   -23945270.65349 -18641426.26448  21044657.177    21044664.506
  22575237.609   -17574859.90449 -13672124.92447  22575237.219    22575246.986
  21146975.069   -21963863.39849 -17092250.49047  21146974.364    21146982.665
 03  4 11 19 12 30.0000000  0  6G30G24G 5G 6G17G10
  20535950.211   -22334644.60749 -17383877.02648  20535950.597    20535957.781
  24225754.880    17170643.06849  13385913.78945  24225754.909    24225764.906
  22234017.769      559090.75849    458573.26547  22234017.400    22234026.897
  21035889.024   -23991347.72849 -18677330.46648  21035888.997    21035896.340
  22563224.699   -17637988.20149 -13721315.76647  22563224.295    22563234.013
  21153136.213   -21931486.47349 -17067021.71047  21153135.489    21153143.788
 03  4 11 19 13  0.0000000  0  6G30G24G 5G 6G17G10
  20544209.481   -22291241.93849 -17350056.80748  20544209.879    20544217.074
  24241867.325    17255314.02949  13451891.03945  24241867.255    24241877.432
  22251840.203      652747.74149    531552.60547  22251839.812    22251849.329
  21027158.467   -24037227.05949 -18713080.59148  21027158.431    21027165.771
  22551255.422   -17700886.90649 -13770327.69947  22551255.011    22551264.739
  21159411.518   -21898509.57849 -17041325.43247  21159410.805    21159419.118
 03  4 11 19 13 30.0000000  0  6G30G24G 5G 6G17G10
  20552572.527   -22247293.87649 -17315811.60648  20552572.920    20552580.145
  24257974.230    17339955.97649  13517845.68445  24257974.203    24257984.444
  22269714.578      746677.67049    604744.62446  22269714.177    22269723.776
  21018466.019   -24082906.23749 -18748674.75048  21018465.979    21018473.325
  22539330.174   -17763554.68449 -13819159.69747  22539329.737    22539339.421
  21165800.907   -21864933.18849 -17015162.01147  21165800.182    21165808.485
 03  4 11 19 14  0.0000000  0  6G30G24G 5G 6G17G10
  20561039.023   -22202802.31849 -17281142.90248  20561039.409    20561046.654
  24274075.343    17424567.37249  13583776.51245  24274075.326    24274085.503
  22287640.270      840877.49449    678146.95346  22287639.868    22287649.517
  21009811.845   -24128384.29149 -18784112.18748  21009811.810    21009819.148
  22527448.688   -17825992.15449 -13867812.22047  22527448.242    22527457.885
  21172303.986   -21830759.22349 -16988532.94847  21172303.259    21172311.568
 03  4 11 19 14 30.0000000  0  6G30G24G 5G 6G17G10
  20569608.765   -22157768.27749 -17246051.49048  20569609.156    20569616.403
  24290170.615    17509147.94349  13649683.34845  24290170.554    24290180.848
  22305617.051      935345.18549    751758.02146  22305616.633    22305626.259
  21001196.318   -24173659.32049 -18819391.42348  21001196.274    21001203.607
  22515611.095   -17888198.61949 -13916284.75147  22515610.687    22515620.317
  21178920.625   -21795988.51649 -16961438.90047  21178919.889    21178928.201
 03  4 11 19 15  0.0000000  0  6G30G24G 5G 6G17G10
  20578281.397   -22112193.67249 -17210538.85848  20578281.782    20578289.038
  24306259.741    17593696.60849  13715565.29045  24306259.687    24306270.024
  22323644.152     1030077.89949    825575.59046  22323643.753    22323653.359
  20992619.595   -24218730.30349 -18854511.66548  20992619.542    20992626.878
  22503817.589   -17950173.92849 -13964577.15547  22503817.172    22503826.759
  21185650.444   -21760623.00249 -16933881.36347  21185649.720    21185658.011
 03  4 11 19 15 30.0000000  0  6G30G24G 5G 6G17G10
  20587056.550   -22066079.91049 -17174606.10948  20587056.947    20587064.221
  24322342.712    17678212.61349  13781421.80145  24322342.633    24322352.964
  22341721.208     1125072.99449    899597.61046  22341720.808    22341730.504
  20984081.912   -24263595.81949 -18889471.80148  20984081.883    20984089.234
  22492067.943   -18011918.50849 -14012689.76047  22492067.526    22492077.130
  21192493.170   -21724664.12649 -16905861.46647  21192492.453    21192500.766
 03  4 11 19 16  0.0000000  0  6G30G24G 5G 6G17G10
  20595934.060   -22019428.63449 -17138254.51648  20595934.451    20595941.740
  24338419.111    17762694.51449  13847251.75945  24338419.142    24338429.410
  22359847.710     1220327.95549    973822.12346  22359847.300    22359857.072
  20975583.631   -24308254.52149 -18924270.78648  20975583.596    20975590.967
  22480362.250   -18073432.02849 -14060622.32347  22480361.860    22480371.460
  21199448.538   -21688113.48049 -16877380.45147  21199447.828    21199456.122
 03  4 11 19 16 30.0000000  0  6G30G24G 5G 6G17G10
  20604913.572   -21972241.22249 -17101485.15448  20604913.945    20604921.237
  24354488.861    17847141.52449  13913054.48145  24354488.878    24354499.285
  22378023.200     1315840.25649   1048247.14946  22378022.787    22378032.559
  20967125.007   -24352705.00849 -18958907.52948  20967124.971    20967132.334
  22468700.594   -18134714.44349 -14108374.80647  22468700.222    22468709.797
  21206516.186   -21650972.72749 -16848439.61747  21206515.495    21206523.764
 03  4 11 19 17  0.0000000  0  6G30G24G 5G 6G17G10
  20613994.792   -21924519.28849 -17064299.28148  20613995.178    20614002.461
  24370551.937    17931553.09449  13978829.59545  24370551.898    24370562.353
  22396247.222     1411607.50049   1122870.84046  22396246.781    22396256.541
  20958706.313   -24396945.63449 -18993380.74448  20958706.269    20958713.633
  22457082.951   -18195765.62949 -14155947.10947  22457082.525    22457092.084
  21213695.845   -21613243.47749 -16819040.21147  21213695.134    21213703.370
 03  4 11 19 17 30.0000000  0  6G30G24G 5G 6G17G10
  20623177.408   -21876264.50649 -17026698.19448  20623177.781    20623185.067
  24386608.063    18015928.11049  14044576.24145  24386607.913    24386618.591
  22414519.195     1507626.77949   1197690.92146  22414518.761    22414528.574
  20950327.777   -24440975.19849 -19027689.48748  20950327.710    20950335.059
  22445509.216   -18256585.97149 -14203339.52847  22445508.778    22445518.330
  21220987.181   -21574927.41449 -16789183.55147  21220986.447    21220994.710
 03  4 11 19 18  0.0000000  0  6G30G24G 5G 6G17G10
  20632461.098   -21827478.52949 -16988683.19848  20632461.484    20632468.760
  24402657.182    18100266.04449  14110293.97745  24402656.982    24402667.654
  22432838.690     1603895.83249   1272705.62446  22432838.249    22432848.130
  20941989.706   -24484792.03649 -19061832.47848  20941989.642    20941996.994
  22433979.489   -18317174.74449 -14250551.50947  22433979.069    22433988.619
  21228389.880   -21536025.91149 -16758870.70647  21228389.172    21228397.422
 03  4 11 19 18 30.0000000  0  6G30G24G 5G 6G17G10
  20641845.508   -21778163.30249 -16950255.79548  20641845.897    20641853.209
  24418698.866    18184565.56149  14175981.78745  24418698.816    24418709.351
  22451205.055     1700411.50249   1347912.49246  22451204.644    22451214.579
  20933692.261   -24528395.25249 -19095809.00948  20933692.207    20933699.570
  22422493.733   -18377532.50449 -14297583.47947  22422493.341    22422502.866
  21235903.633   -21496540.93849 -16728103.20747  21235902.940    21235911.168
 03  4 11 19 19  0.0000000  0  7G30G24G29G 5G 6G17G10
  20651329.698   -21728323.69749 -16911419.79048  20651330.092    20651337.445
  24434732.531    18268822.49049  14241636.41445  24434732.506    24434743.046
  24642202.512    -2692801.75349  -2086019.23945  24642202.459    24642216.700
  22469617.371     1797168.04949   1423307.05746  22469616.967    22469626.897
  20925435.165   -24571786.61849 -19129620.45948  20925435.093    20925442.452
  22411051.319   -18437662.65849 -14344438.08847  22411050.912    22411060.452
  21243527.479   -21456477.55449 -16696885.00547  21243526.752    21243535.000
 03  4 11 19 19 30.0000000  0  7G30G24G29G 5G 6G17G10
  20660914.039   -21677957.77349 -16872173.66848  20660914.436    20660921.808
  24450758.601    18353039.53449  14307259.94745  24450758.473    24450769.154
  24628891.213    -2762751.78049  -2140525.55345  24628891.124    24628905.388
  22488075.650     1894166.55349   1498890.15446  22488075.259    22488085.199
  20917219.366   -24614961.09749 -19163262.91048  20917219.320    20917226.634
  22399652.839   -18497561.67449 -14391112.59547  22399652.453    22399661.992
  21251261.696   -21415834.10049 -16665214.79947  21251260.968    21251269.211
 03  4 11 19 20  0.0000000  0  7G30G24G29G 5G 6G17G10
  20670598.603   -21627065.33949 -16832517.27548  20670598.992    20670606.345
  24466777.313    18437217.95949  14372853.39345  24466777.152    24466787.982
  24615597.150    -2832611.69249  -2194961.67945  24615597.107    24615611.263
  22506579.818     1991406.29349   1574661.22446  22506579.419    22506589.423
  20909045.461   -24657915.25549 -19196733.68248  20909045.399    20909052.701
  22388298.833   -18557227.33649 -14437605.26647  22388298.414    22388307.926
  21259106.379   -21374609.96749 -16633092.11647  21259105.647    21259113.899
 03  4 11 19 20 30.0000000  0  7G30G24G29G 5G 6G17G10
  20680382.891   -21575648.92149 -16792452.58648  20680383.279    20680390.622
  24482788.361    18521356.21849  14438415.52945  24482788.239    24482799.024
  24602320.612    -2902379.29049  -2249325.87745  24602320.608    24602334.805
  22525129.299     2088883.72649   1650617.51846  22525128.877    22525138.954
  20900913.625   -24700648.38749 -19230032.22648  20900913.559    20900920.873
  22376988.998   -18616660.31549 -14483916.62747  22376988.643    22376998.161
  21267061.100   -21332807.86949 -16600519.07347  21267060.360    21267068.598
 03  4 11 19 21  0.0000000  0  7G30G24G29G 5G 6G17G10
  20690266.409   -21523710.78649 -16751981.36148  20690266.806    20690274.176
  24498791.508    18605452.83049  14503945.20145  24498791.390    24498802.273
  24589062.052    -2972052.31349  -2303616.40545  24589062.057    24589076.301
  22543723.395     2186595.72949   1726756.59346  22543722.965    22543733.062
  20892823.913   -24743159.70749 -19263157.93348  20892823.869    20892831.219
  22365723.405   -18675861.38049 -14530047.27747  22365723.042    22365732.527
  21275125.317   -21290430.13749 -16567497.48747  21275124.578    21275132.813
 03  4 11 19 21 30.0000000  0  7G30G24G29G 5G 6G17G10
  20700248.796   -21471253.28749 -16711105.44248  20700249.186    20700256.554
  24514786.589    18689506.79149  14569441.68145  24514786.436    24514797.255
  24575822.084    -3041628.08749  -2357831.15345  24575822.172    24575836.275
  22562361.546     2284539.32749   1803076.12146  22562361.123    22562371.304
  20884776.670   -24785448.22349 -19296110.02248  20884776.630    20884783.973
  22354501.809   -18734831.09649 -14575997.64647  22354501.431    22354510.872
  21283298.654   -21247478.88949 -16534028.99947  21283297.929    21283306.185
 03  4 11 19 22  0.0000000  0  7G30G24G29G 5G 6G17G10
  20710329.642   -21418278.24649 -16669826.24048  20710330.037    20710337.400
  24530773.298    18773516.89949  14634903.97745  24530773.198    24530783.888
  24562601.214    -3111103.98449  -2411968.07445  24562601.165    24562615.206
  22581043.260     2382711.73649   1879573.95046  22581042.839    22581053.047
  20876772.063   -24827512.66149 -19328887.50448  20876772.031    20876779.358
  22343324.234   -18793569.46649 -14621767.75647  22343323.859    22343333.268
  21291580.708   -21203956.31949 -16500115.32847  21291579.996    21291588.265
 03  4 11 19 22 30.0000000  0  7G30G24G29G 5G 6G17G10
  20720508.650   -21364787.33749 -16628145.06848  20720509.040    20720516.403
  24546751.587    18857482.60249  14700331.64045  24546751.458    24546762.170
  24549399.978    -3180476.69849  -2466024.59345  24549399.985    24549413.838
  22599768.068     2481110.48249   1956248.14246  22599767.636    22599777.906
  20868810.437   -24869351.38749 -19361489.10748  20868810.403    20868817.702
  22332190.664   -18852076.58949 -14667357.67447  22332190.286    22332199.700
  21299971.213   -21159864.05349 -16465757.74547  21299970.487    21299978.764
 03  4 11 19 23  0.0000000  0  7G30G24G29G 5G 6G17G10
  20730785.562   -21310782.03649 -16586063.06648  20730785.946    20730793.334
  24562721.308    18941403.60849  14765724.51645  24562721.162    24562731.963
  24536218.775    -3249742.99549  -2519998.18845  24536218.699    24536232.681
  22618535.492     2579733.42749   2033097.03446  22618535.044    22618545.367
  20860892.138   -24910962.45249 -19393913.31048  20860892.085    20860899.417
  22321101.129   -18910352.10549 -14712767.12447  22321100.774    22321110.177
  21308469.868   -21115203.42949 -16430957.27847  21308469.134    21308477.432
 03  4 11 19 23 30.0000000  0  7G30G24G29G 5G 6G17G10
  20741159.887   -21256264.79049 -16543582.14648  20741160.283    20741167.687
  24578682.261    19025278.44149  14831081.40645  24578682.152    24578692.764
  24523058.371    -3318900.77049  -2573887.24145  24523058.231    24523072.114
  22637344.922     2678577.16649   2110117.97146  22637344.522    22637354.852
  20853017.262   -24952345.18149 -19426159.58348  20853017.217    20853024.552
  22310055.650   -18968396.34549 -14757996.35447  22310055.261    22310064.660
  21317076.155   -21069977.04949 -16395715.96247  21317075.436    21317083.789
 03  4 11 19 24  0.0000000  0  7G30G24G29G 5G 6G17G10
  20751631.269   -21201237.43949 -16500703.75148  20751631.664    20751639.091
  24594634.261    19109106.36349  14896401.71445  24594634.229    24594644.979
  24509919.312    -3387946.37249  -2627688.81445  24509919.226    24509933.115
  22656196.014     2777639.24649   2187309.04546  22656195.612    22656205.902
  20845186.156   -24993497.82149 -19458226.57448  20845186.118    20845193.467
  22299054.197   -19026209.04749 -14803045.16947  22299053.817    22299063.214
  21325789.768   -21024186.67449 -16360035.17547  21325789.043    21325797.411
 03  4 11 19 24 30.0000000  0  7G30G24G29G 5G 6G17G10
  20762199.476   -21145701.50049 -16457429.04748  20762199.858    20762207.264
  24610577.256    19192886.85249  14961685.08045  24610577.231    24610588.000
  24496801.866    -3456877.03749  -2681400.88645  24496801.878    24496815.992
  22675088.149     2876917.47449   2264668.54346  22675087.713    22675098.050
  20837399.178   -25034418.61549 -19490112.90248  20837399.149    20837406.487
  22288096.797   -19083790.27449 -14847913.61747  22288096.432    22288105.808
  21334610.468   -20977833.82749 -16323916.09647  21334609.747    21334618.080
 03  4 11 19 25  0.0000000  0  7G30G24G29G 5G 6G17G10
  20772864.072   -21089659.02249 -16413759.63648  20772864.455    20772871.860
  24626511.158    19276619.32749  15026931.01045  24626511.111    24626521.949
  24483707.041    -3525689.89849  -2735021.13345  24483707.032    24483721.128
  22694020.762     2976408.86749   2342194.14646  22694020.366    22694030.735
  20829656.537   -25075106.42049 -19521817.67648  20829656.489    20829663.818
  22277183.349   -19141140.73649 -14892602.24347  22277182.977    22277192.364
  21343537.691   -20930920.98249 -16287360.65347  21343536.987    21343545.320
 03  4 11 19 25 30.0000000  0  7G30G24G29G 5G 6G17G10
  20783624.623   -21033112.12549 -16369697.17348  20783625.006    20783632.441
  24642435.776    19360303.10949  15092139.00445  24642435.716    24642446.583
  24470635.242    -3594382.01949  -2788547.29645  24470635.312    24470649.229
  22712993.465     3076110.63549   2419883.68346  22712993.062    22713003.521
  20821958.537   -25115559.73449 -19553339.73248  20821958.498    20821965.819
  22266313.864   -19198260.29549 -14937110.94747  22266313.482    22266322.843
  21352571.079   -20883450.08349 -16250370.35647  21352570.403    21352578.749
 03  4 11 19 26  0.0000000  0  7G30G24G29G 5G 6G17G10
  20794480.769   -20976062.72149 -16325243.14748  20794481.170    20794488.614
  24658350.950    19443937.04549  15157308.15045  24658350.899    24658361.838
  24457586.910    -3662950.45649  -2841977.05945  24457587.025    24457600.841
  22732005.831     3176020.40649   2497735.28246  22732005.400    22732015.913
  20814305.433   -25155776.91649 -19584677.79248  20814305.406    20814312.745
  22255488.319   -19255148.53049 -14981439.40047  22255487.976    22255497.315
  21361710.381   -20835422.83649 -16212946.54647  21361709.686    21361718.042
 03  4 11 19 26 30.0000000  0  7G30G24G29G 5G 6G17G10
  20805432.185   -20918512.87649 -16280399.16848  20805432.589    20805440.027
  24674256.465    19527520.29449  15222437.78445  24674256.397    24674267.293
  24444562.753    -3731392.47349  -2895308.36045  24444562.852    24444576.492
  22751057.117     3276135.21349   2575746.65846  22751056.651    22751067.328
  20806697.470   -25195756.98649 -19615831.09248  20806697.453    20806704.769
  22244706.778   -19311805.98249 -15025588.01247  22244706.380    22244715.724
  21370955.131   -20786841.57349 -16175091.04147  21370954.416    21370962.797
 03  4 11 19 27  0.0000000  0  7G30G24G29G 5G 6G17G10
  20816478.496   -20860464.43349 -16235166.66948  20816478.901    20816486.368
  24690152.141    19611052.26249  15287527.50645  24690152.133    24690162.997
  24431563.351    -3799704.88149  -2948538.59745  24431563.360    24431577.024
  22770147.038     3376452.54149   2653915.84646  22770146.595    22770157.239
  20799134.933   -25235498.42449 -19646798.44548  20799134.899    20799142.232
  22233969.161   -19368232.53749 -15069556.71047  22233968.744    22233978.073
  21380304.928   -20737708.10749 -16136805.23947  21380304.223    21380312.562
 03  4 11 19 27 30.0000000  0  7G30G24G29G 5G 6G17G10
  20827619.340   -20801919.24349 -16189547.09348  20827619.729    20827627.205
  24706038.091    19694532.60849  15352576.96045  24706038.095    24706048.930
  24418589.021    -3867884.72749  -3001665.61845  24418589.123    24418602.754
  22789275.047     3476969.96849   2732240.96446  22789274.593    22789285.177
  20791618.152   -25274999.43649 -19677578.44548  20791618.112    20791625.454
  22223275.423   -19424428.20949 -15113345.49547  22223275.007    22223284.331
  21389759.420   -20688024.38149 -16098090.66347  21389758.718    21389767.053
 03  4 11 19 28  0.0000000  0  7G30G24G29G 5G 6G17G10
  20838854.306   -20742879.19649 -16143541.91448  20838854.691    20838862.189
  24721914.069    19777960.65849  15417585.67345  24721913.975    24721925.031
  24405640.391    -3935928.88349  -3054686.84645  24405640.497    24405654.237
  22808440.567     3577684.95949   2810720.01146  22808440.095    22808450.783
  20784147.411   -25314258.23649 -19708169.71748  20784147.394    20784154.731
  22212625.635   -19480393.08949 -15156954.44847  22212625.210    22212634.527
  21399318.240   -20637792.49649 -16058948.95447  21399317.551    21399325.887
 03  4 11 19 28 30.0000000  0  7G30G24G29G 5G 6G17G10
  20850183.056   -20683346.26649 -16097152.67648  20850183.458    20850190.998
  24737779.967    19861335.84849  15482553.22445  24737779.821    24737790.954
  24392718.426    -4003834.37949  -3107600.07545  24392718.523    24392732.018
  22827643.129     3678594.81049   2889350.88746  22827642.692    22827653.496
  20776723.112   -25353273.30949 -19738571.07048  20776723.094    20776730.458
  22202019.750   -19536127.36049 -15200383.70747  22202019.322    22202028.593
  21408981.079   -20587014.12049 -16019381.40747  21408980.381    21408988.705
 03  4 11 19 29  0.0000000  0  7G30G24G29G 5G 6G17G10
  20861605.236   -20623322.45749 -16050380.93048  20861605.631    20861613.216
  24753635.715    19944658.00149  15547479.41745  24753635.674    24753646.644
  24379823.273    -4071598.04749  -3160402.74645  24379823.221    24379836.777
  22846882.338     3779696.98049   2968131.64046  22846881.903    22846892.742
  20769345.452   -25392043.07249 -19768781.27348  20769345.431    20769352.815
  22191457.750   -19591630.72549 -15243633.03747  22191457.334    22191466.610
  21418747.492   -20535691.64749 -15979389.87647  21418746.760    21418755.104
 03  4 11 19 29 30.0000000  0  7G30G24G29G 5G 6G17G10
  20873120.418   -20562810.12249 -16003228.51748  20873120.809    20873128.381
  24769481.106    20027925.62049  15612363.09745  24769481.035    24769492.096
  24366955.822    -4139217.09949  -3213092.77645  24366955.907    24366969.247
  22866157.731     3880988.73149   3047060.11046  22866157.249    22866168.110
  20762014.762   -25430566.33649 -19798799.40248  20762014.726    20762022.095
  22180939.660   -19646903.32049 -15286702.54647  22180939.226    22180948.558
  21428616.926   -20483827.30649 -15938976.12147  21428616.218    21428624.549
 03  4 11 19 30  0.0000000  0  7G30G24G29G 5G 6G17G10
  20884728.133   -20501811.38249 -15955697.09348  20884728.503    20884736.113
  24785316.045    20111138.07149  15677203.80745  24785315.992    24785327.056
  24354116.186    -4206688.75549  -3265667.91445  24354116.336    24354129.613
  22885468.488     3982467.12049   3126134.01946  22885468.030    22885478.948
  20754731.228   -25468841.72649 -19828624.38648  20754731.179    20754738.515
  22170465.441   -19701945.49849 -15329592.51347  22170465.036    22170474.350
  21438589.181   -20431422.92749 -15898141.56047  21438588.464    21438596.807
 03  4 11 19 30 30.0000000  0  7G30G24G29G 5G 6G17G10
  20896428.014   -20440328.15749 -15907788.13748  20896428.394    20896436.060
  24801140.441    20194295.04349  15742001.27645  24801140.317    24801151.497
  24341305.371    -4274009.88249  -3318125.78845  24341305.415    24341318.866
  22904814.287     4084129.76149   3205351.48546  22904813.887    22904824.862
  20747495.196   -25506867.30849 -19858254.71248  20747495.138    20747502.477
  22160035.038   -19756757.43349 -15372303.06947  22160034.637    22160043.915
  21448663.713   -20378480.91149 -15856888.05547  21448662.990    21448671.337
 03  4 11 19 31  0.0000000  0  7G30G24G29G 5G 6G17G10
  20908219.712   -20378362.52049 -15859503.28247  20908220.100    20908227.771
  24816954.108    20277395.75349  15806754.88145  24816953.940    24816965.116
  24328523.565    -4341177.69549  -3370464.15645  24328523.564    24328537.117
  22924194.760     4185973.98749   3284710.46646  22924194.390    22924205.307
  20740306.920   -25544641.70049 -19887689.30348  20740306.894    20740314.232
  22149648.437   -19811339.09249 -15414834.18947  22149648.048    22149657.312
  21458840.150   -20325003.32649 -15815217.22547  21458839.425    21458847.809
 03  4 11 19 31 30.0000000  0  7G30G24G29G 5G 6G17G10
  20920102.774   -20315916.74749 -15810844.29647  20920103.174    20920110.863
  24832756.891    20360439.61049  15871464.20345  24832756.820    24832768.074
  24315771.608    -4408189.20649  -3422680.80745  24315771.691    24315784.908
  22943609.289     4287997.05249   3364208.78446  22943608.900    22943619.803
  20733166.785   -25582163.46449 -19916927.04048  20733166.757    20733174.072
  22139305.688   -19865690.62849 -15457185.99247  22139305.298    22139314.531
  21469118.137   -20270992.14349 -15773130.60547  21469117.429    21469125.832
 03  4 11 19 32  0.0000000  0  7G30G24G29G 5G 6G17G10
  20932076.876   -20252992.77249 -15761812.68447  20932077.264    20932084.958
  24848548.824    20443426.29949  15936128.99645  24848548.817    24848559.900
  24303049.951    -4475041.22349  -3474773.14945  24303049.910    24303063.066
  22963057.250     4390196.53149   3443844.57246  22963056.877    22963067.883
  20726075.031   -25619430.82649 -19945966.54248  20726074.997    20726082.305
  22129006.617   -19919812.20849 -15499358.60947  22129006.248    22129015.481
  21479497.282   -20216449.71949 -15730630.03347  21479496.554    21479504.946
 03  4 11 19 32 30.0000000  0  7G30G24G29G 5G 6G17G10
  20944141.607   -20189592.48349 -15712409.91947  20944141.982    20944149.690
  24864329.726    20526355.10249  16000748.65745  24864329.802    24864340.919
  24290359.390    -4541730.58449  -3526738.76245  24290359.254    24290372.335
  22982538.431     4492570.24149   3523616.12046  22982538.030    22982549.088
  20719032.065   -25656442.11049 -19974806.50348  20719032.023    20719039.314
  22118751.482   -19973703.15149 -15541351.50747  22118751.127    22118760.337
  21489977.120   -20161377.96149 -15687716.99347  21489976.389    21489984.747
 03  4 11 19 33  0.0000000  0  7G30G24G29G 5G 6G17G10
  20956296.402   -20125718.71949 -15662638.21347  20956296.788    20956304.530
  24880099.505    20609225.10849  16065322.53845  24880099.575    24880110.811
  24277700.086    -4608254.90749  -3578575.78845  24277700.038    24277713.207
  23002052.146     4595114.76849   3603520.77346  23002051.751    23002062.856
  20712037.944   -25693196.44149 -20003446.23748  20712037.905    20712045.219
  22108540.015   -20027364.47949 -15583165.48847  22108539.676    22108548.889
  21500557.123   -20105779.68849 -15644393.67347  21500556.395    21500564.745
 03  4 11 19 33 30.0000000  0  7G30G24G29G 5G 6G17G10
  20968540.903   -20061373.60849 -15612499.22247  20968541.291    20968549.012
  24895857.976    20692035.78449  16129850.16545  24895857.986    24895869.253
  24265072.853    -4674611.18449  -3630281.86445  24265072.770    24265085.885
  23021597.817     4697827.16849   3683556.23946  23021597.380    23021608.510
  20705092.988   -25729692.28949 -20031884.55848  20705092.952    20705100.264
  22098372.230   -20080796.54149 -15624800.81447  22098371.836    22098381.036
  21511236.893   -20049657.17349 -15600661.86047  21511236.191    21511244.538
 03  4 11 19 34  0.0000000  0  6G30G29G 5G 6G17G10
  20980874.198   -19996562.12749 -15561996.83047  20980874.583    20980882.335
  24252477.555    -4740799.14649  -3681856.77845  24252477.659    24252490.792
  23041174.390     4800702.37249   3763718.55846  23041173.997    23041185.176
  20698197.030   -25765930.78749 -20060122.34848  20698197.006    20698204.314
  22088247.603   -20134001.85849 -15666259.46347  22088247.195    22088256.361
  21522015.520   -19993015.20549 -15556525.27347  21522014.789    21522023.142
 03  4 11 19 34 30.0000000  0  6G30G29G 5G 6G17G10
  20993296.359   -19931283.33549 -15511130.30247  20993296.743    20993304.500
  24239915.585    -4806812.82849  -3733295.89245  24239915.586    24239928.642
  23060782.067     4903740.95049   3844008.17646  23060781.703    23060792.930
  20691350.917   -25801907.28949 -20088155.98548  20691350.906    20691358.216
  22078166.608   -20186977.54749 -15707539.18247  22078166.213    22078175.338
  21532893.133   -19935853.03949 -15511983.34347  21532892.399    21532900.762
 03  4 11 19 35  0.0000000  0  6G30G29G 5G 6G17G10
  21005807.316   -19865538.11749 -15459900.31647  21005807.692    21005815.454
  24227387.436    -4872647.83549  -3784595.79445  24227387.389    24227400.570
  23080420.663     5006941.32149   3924423.86946  23080420.267    23080431.464
  20684555.229   -25837618.83749 -20115983.16148  20684555.210    20684562.548
  22068129.528   -20239722.59249 -15748639.17647  22068129.152    22068138.277
  21543869.562   -19878171.67349 -15467036.84147  21543868.830    21543877.227
 03  4 11 19 35 30.0000000  0  6G30G29G 5G 6G17G10
  21018406.409   -19799329.57849 -15408309.30547  21018406.790    21018414.581
  24214893.797    -4938302.11049  -3835754.84445  24214893.708    24214906.859
  23100089.334     5110300.08849   4004962.98646  23100088.951    23100100.138
  20677810.095   -25873064.80549 -20143603.39648  20677810.070    20677817.409
  22058136.183   -20292238.16349 -15789560.36347  22058135.770    22058144.894
  21554944.181   -19819974.16049 -15421688.14347  21554943.453    21554951.856
 03  4 11 19 36  0.0000000  0  6G30G29G 5G 6G17G10
  21031093.207   -19732660.11649 -15356359.13047  21031093.597    21031101.392
  24202434.958    -5003772.88249  -3886770.90945  24202434.943    24202448.063
  23119787.540     5213814.46249   4085623.35246  23119787.214    23119798.466
  20671115.760   -25908243.85549 -20171015.64248  20671115.734    20671123.088
  22048186.438   -20344524.21949 -15830302.70447  22048186.019    22048195.151
  21566116.568   -19761262.95049 -15375939.16347  21566115.849    21566124.236
 03  4 11 19 36 30.0000000  0  6G30G29G 5G 6G17G10
  21043867.384   -19665531.78249 -15304051.39447  21043867.763    21043875.573
  24190011.834    -5069056.91549  -3937641.43145  24190011.753    24190024.828
  23139514.967     5317481.98349   4166403.06546  23139514.627    23139525.885
  20664472.528   -25943154.24849 -20198218.54248  20664472.493    20664479.832
  22038280.320   -20396581.11549 -15870866.47447  22038279.906    22038288.999
  21577386.261   -19702040.19549 -15329791.57547  21577385.537    21577393.950
 03  4 11 19 37  0.0000000  0  6G30G29G 5G 6G17G10
  21056728.250   -19597947.47049 -15251388.35147  21056728.620    21056736.465
  24177624.572    -5134151.77449  -3988364.54545  24177624.619    24177637.511
  23159270.955     5421299.51149   4247299.66146  23159270.590    23159281.847
  20657880.643   -25977794.82249 -20225211.19648  20657880.627    20657887.931
  22028417.715   -20448409.27549 -15911252.01547  22028417.304    22028426.362
  21588752.763   -19642308.76549 -15283247.61947  21588752.058    21588760.471
 03  4 11 19 37 30.0000000  0  6G30G29G 5G 6G17G10
  21069675.553   -19529909.44049 -15198371.75947  21069675.927    21069683.758
  24165273.812    -5199054.40449  -4038937.87645  24165273.750    24165286.622
  23179055.006     5525264.36349   4328311.05846  23179054.634    23179065.869
  20651340.423   -26012163.93149 -20251992.31748  20651340.385    20651347.701
  22018598.615   -20500008.61949 -15951459.25647  22018598.212    22018607.294
  21600215.650   -19582070.97449 -15236309.09147  21600214.922    21600223.347
 03  4 11 19 38  0.0000000  0  6G30G29G 5G 6G17G10
  21082708.646   -19461420.24849 -15145003.61647  21082709.024    21082716.864
  24152960.131    -5263762.31049  -4089359.42245  24152960.134    24152973.198
  23198866.518     5629373.71849   4409435.03746  23198866.069    23198877.420
  20644852.067   -26046260.51849 -20278561.08048  20644852.016    20644859.329
  22008823.102   -20551379.36049 -15991488.36447  22008822.679    22008831.740
  21611774.393   -19521329.36949 -15188977.98547  21611773.690    21611782.129
 03  4 11 19 38 30.0000000  0  7G30G29G 5G 6G17G15G10
  21095827.010   -19392483.01249 -15091286.34447  21095827.382    21095835.209
  24140683.907    -5328273.26549  -4139627.51545  24140683.823    24140697.029
  23218704.903     5733624.18249   4490668.97746  23218704.435    23218715.867
  20638415.706   -26080083.73549 -20304916.83348  20638415.652    20638422.957
  21999090.751   -20602522.94849 -16031340.46847  21999090.317    21999099.367
  24770677.661    -3925505.79049  -3044488.38645  24770677.267    24770691.623
  21623428.366   -19460087.25149 -15141256.87047  21623427.672    21623436.095
 03  4 11 19 39  0.0000000  0  8G30G29G 5G 6G17G15G23G10
  21109029.856   -19323102.04749 -15037223.31347  21109030.222    21109038.017
  24128445.389    -5392586.27649  -4189741.34545  24128445.385    24128458.439
  23238569.174     5838011.06849   4572009.22346  23238568.663    23238580.188
  20632031.346   -26113633.80349 -20331059.74448  20632031.292    20632038.615
  21989401.257   -20653441.45149 -16071017.18347  21989400.835    21989409.854
  24754331.953    -4011402.33449  -3111420.55945  24754331.593    24754346.034
  24489767.831    -3634715.39149  -2512534.60145  24489767.337    24489783.681
  21635176.810   -19398348.84449 -15093149.03747  21635176.129    21635184.565
 03  4 11 19 39 30.0000000  0  8G30G29G 5G 6G17G15G23G10
  21122316.595   -19253280.02649 -14982816.60747  21122316.964    21122324.790
  24116245.144    -5456698.59449  -4239698.78445  24116245.082    24116258.216
  23258458.844     5942531.39149   4653453.45746  23258458.394    23258469.945
  20625699.118   -26146909.66649 -20356988.98448  20625699.086    20625706.405
  21979754.412   -20704135.73849 -16110519.18347  21979753.983    21979763.019
  24738008.453    -4097183.42449  -3178262.86545  24738008.154    24738022.098
  24469114.744    -3743247.18749  -2597104.53145  24469114.424    24469130.916
  21647019.210   -19336116.90549 -15044656.62947  21647018.511    21647026.926
 03  4 11 19 40  0.0000000  0  9G30G29G 5G 6G17G26G15G23G10
  21135687.802   -19183013.90949 -14928063.84747  21135688.187    21135696.049
  24104084.629    -5520601.83549  -4289493.29145  24104084.590    24104097.620
  23278374.477     6047188.09249   4735003.92846  23278373.997    23278385.623
  20619420.484   -26179904.27849 -20382699.06948  20619420.452    20619427.759
  21970151.344   -20754599.78449 -16149841.77447  21970150.941    21970160.006
  24265173.600    -5844128.61649  -4518212.97245  24265173.730    24265189.285
  24721707.838    -4182843.35649  -3245010.73945  24721707.618    24721721.123
  24448477.610    -3851695.01149  -2681609.14445  24448477.431    24448493.853
  21658956.071   -19273388.32549 -14995777.23847  21658955.367    21658963.771
 03  4 11 19 40 30.0000000  0  9G30G29G 5G 6G17G26G15G23G10
  21149142.979   -19112306.57349 -14872967.27447  21149143.363    21149151.253
  24091964.385    -5584293.79049  -4339123.16645  24091964.400    24091977.246
  23298315.439     6151977.88149   4816658.12946  23298315.032    23298326.648
  20613195.568   -26212616.42349 -20408189.04948  20613195.512    20613202.817
  21960592.011   -20804834.27349 -16188985.48747  21960591.599    21960600.667
  24248248.641    -5933068.93149  -4587516.84045  24248248.807    24248264.377
  24705430.242    -4268382.11149  -3311664.11545  24705429.847    24705443.693
  24427856.782    -3960057.26849  -2766047.11945  24427856.447    24427872.742
  21670986.915   -19210166.07149 -14946513.15747  21670986.159    21670994.567
 03  4 11 19 41  0.0000000  0  9G30G29G 5G 6G17G26G15G23G10
  21162681.548   -19041161.06749 -14817529.27547  21162681.950    21162689.846
  24079884.775    -5647772.07649  -4388586.53545  24079884.683    24079897.429
  23318281.174     6256897.47449   4898413.46346  23318280.760    23318292.416
  20607024.559   -26245045.38449 -20433458.36648  20607024.514    20607031.791
  21951076.068   -20854840.57449 -16227951.39447  21951075.677    21951084.744
  24231330.920    -6021971.20749  -4656791.07645  24231331.109    24231346.653
  24689175.643    -4353799.92849  -3378223.26545  24689175.240    24689189.165
  24407252.688    -4068331.98149  -2850416.76045  24407252.111    24407268.736
  21683110.979   -19146453.41549 -14896866.94547  21683110.275    21683118.721
 03  4 11 19 41 30.0000000  0  9G30G29G 5G 6G17G26G15G23G10
  21176303.021   -18969580.27449 -14761752.08547  21176303.420    21176311.319
  24067846.298    -5711034.18649  -4437881.46645  24067846.227    24067858.837
  23338270.942     6361943.69649   4980267.46346  23338270.511    23338282.254
  20600907.625   -26277190.08249 -20458506.18148  20600907.578    20600914.856
  21941603.414   -20904619.43049 -16266740.06947  21941603.034    21941612.116
  24214421.065    -6110832.27349  -4726033.23945  24214421.275    24214436.682
  24672944.037    -4439096.96649  -3444688.33745  24672943.686    24672957.551
  24386665.546    -4176517.17749  -2934716.76345  24386665.114    24386681.683
  21695327.843   -19082253.25949 -14846840.86747  21695327.148    21695335.613
 03  4 11 19 42  0.0000000  0  9G30G29G 5G 6G17G26G15G23G10
  21190006.802   -18897566.69449 -14705637.66347  21190007.173    21190015.095
  24055849.448    -5774077.36049  -4487005.78245  24055849.442    24055861.865
  23358284.357     6467114.05849   5062218.22546  23358283.986    23358295.655
  20594845.094   -26309048.97449 -20483331.29348  20594845.035    20594852.307
  21932174.019   -20954171.04749 -16305351.67847  21932173.652    21932182.731
  24197519.536    -6199649.04949  -4795240.87145  24197519.765    24197535.048
  24656735.367    -4524272.90649  -3511059.04945  24656735.019    24656748.964
  24366095.796    -4284610.49649  -3018945.12245  24366095.523    24366112.056
  21707637.038   -19017567.84449 -14796436.66847  21707636.346    21707644.857
 03  4 11 19 42 30.0000000  0  9G30G29G 5G 6G17G26G15G23G10
  21203792.300   -18825123.32549 -14649188.34347  21203792.700    21203800.625
  24043894.619    -5836899.22849  -4535957.65645  24043894.629    24043906.983
  23378320.713     6572405.05749   5144262.96346  23378320.325    23378332.015
  20588837.156   -26340621.07249 -20507932.93248  20588837.095    20588844.357
  21922787.719   -21003496.34149 -16343786.93547  21922787.340    21922796.385
  24180627.087    -6288418.73049  -4864411.83545  24180627.300    24180642.316
  24640549.691    -4609328.13949  -3577335.71245  24640549.203    24640563.127
  24345544.176    -4392610.16249  -3103100.45345  24345543.831    24345560.442
  21720038.047   -18952400.25249 -14745656.74447  21720037.361    21720045.854
 03  4 11 19 43  0.0000000  0  9G30G29G 5G 6G17G26G15G23G10
  21217659.160   -18752252.88849 -14592406.24147  21217659.550    21217667.500
  24031982.481    -5899497.18049  -4584735.05845  24031982.445    24031994.800
  23398379.505     6677813.96249   5226399.56746  23398379.049    23398390.902
  20582884.035   -26371904.90149 -20532309.94048  20582883.966    20582891.243
  21913444.443   -21052595.50549 -16382045.98547  21913444.039    21913453.091
  24163744.182    -6377138.35549  -4933543.78545  24163744.378    24163759.389
  24624387.268    -4694262.13949  -3643517.87945  24624386.802    24624400.784
  24325010.621    -4500513.92349  -3187181.10945  24325010.276    24325026.808
  21732530.255   -18886753.45549 -14694503.41347  21732529.553    21732538.052
 03  4 11 19 43 30.0000000  0 10G30G29G 5G 6G17G26G15G23G10G18
  21231606.533   -18678959.37749 -14535294.47247  21231606.904    21231614.858
  24020113.177    -5961869.55449  -4633336.68645  24020113.162    24020125.401
  23418459.988     6783336.74749   5308624.92346  23418459.468    23418471.378
  20576985.728   -26402900.66349 -20556462.48048  20576985.649    20576992.942
  21904143.820   -21101470.19949 -16420130.11647  21904143.427    21904152.500
  24146871.176    -6465805.94349  -5002635.18745  24146871.259    24146886.311
  24608247.498    -4779076.29349  -3709606.63945  24608247.036    24608261.120
  24304495.457    -4608320.94849  -3271186.38945  24304495.308    24304511.478
  21745112.860   -18820631.47449 -14642979.80947  21745112.162    21745120.648
  24767213.845    -5082650.14049  -3931109.53745  24767213.736    24767228.662
 03  4 11 19 44  0.0000000  0 10G30G29G 5G 6G17G26G15G23G10G18
  21245634.059   -18605244.27349 -14477854.19247  21245634.423    21245642.386
  24008287.587    -6024012.66349  -4681759.64545  24008287.579    24008299.774
  23438561.804     6888971.77049   5390937.72646  23438561.301    23438573.151
  20571142.725   -26433605.70149 -20580388.48648  20571142.654    20571149.957
  21894886.133   -21150119.49149 -16458038.62047  21894885.746    21894894.829
  24130008.810    -6554417.14749  -5071682.72445  24130008.973    24130023.638
  24592130.745    -4863769.25149  -3775600.99745  24592130.253    24592144.397
  24283999.443    -4716027.78849  -3355113.51045  24283999.188    24284015.476
  21757785.561   -18754035.82949 -14591087.11847  21757784.889    21757793.357
  24745995.682    -5194151.22949  -4017993.23045  24745995.544    24746010.805
 03  4 11 19 44 30.0000000  0 10G30G29G 5G 6G17G26G15G23G10G18
  21259741.637   -18531108.51049 -14420086.12747  21259742.037    21259750.039
  23996506.378    -6085921.97449  -4730000.45345  23996506.355    23996518.566
  23458684.789     6994717.78949   5473337.04146  23458684.341    23458696.102
  20565355.610   -26464017.02749 -20604085.62548  20565355.551    20565362.842
  21885671.554   -21198542.27149 -16495770.61647  21885671.155    21885680.219
  24113158.044    -6642967.17749  -5140682.51245  24113158.298    24113173.161
  24576037.655    -4948339.29949  -3841499.62645  24576037.163    24576051.023
  24263523.230    -4823630.30849  -3438959.33645  24263522.823    24263539.180
  21770548.267   -18686967.64849 -14538826.21047  21770547.574    21770556.042
  24724785.421    -5305611.44449  -4104845.16945  24724785.298    24724800.576
 03  4 11 19 45  0.0000000  0 10G30G29G 5G 6G17G26G15G23G10G18
  21273928.768   -18456554.93749 -14361992.49447  21273929.145    21273937.147
  23984770.276    -6147595.11949  -4778057.23245  23984770.230    23984782.409
  23478828.221     7100571.80649   5555820.49546  23478827.765    23478839.720
  20559624.681   -26494133.32049 -20627552.86948  20559624.638    20559631.935
  21876499.918   -21246739.12849 -16533326.56447  21876499.565    21876508.604
  24096319.643    -6731452.84349  -5209632.20845  24096319.925    24096334.668
  24559967.836    -5032786.22949  -3907302.24345  24559967.379    24559981.247
  24243067.229    -4931126.59249  -3522722.48345  24243066.815    24243082.783
  21783400.332   -18619429.89649 -14486199.40747  21783399.626    21783408.095
  24703582.948    -5417029.05149  -4191663.90445  24703582.876    24703598.122
 03  4 11 19 45 30.0000000  0 10G30G29G 5G 6G17G26G15G23G10G18
  21288194.919   -18381586.06749 -14303575.25847  21288195.299    21288203.307
  23973079.643    -6209028.97049  -4825927.55645  23973079.543    23973091.709
  23498991.690     7206531.34049   5638386.15246  23498991.267    23499003.414
  20553950.210   -26523952.98149 -20650788.96848  20553950.156    20553957.437
  21867371.356   -21294710.16849 -16570706.55347  21867370.974    21867379.996
  24079494.118    -6819870.79849  -5278529.16745  24079494.334    24079509.152
  24543921.352    -5117109.60849  -3973008.58845  24543920.958    24543934.769
  24222631.671    -5038513.98749  -3606400.63045  24222631.192    24222647.572
  21796341.290   -18551424.69149 -14433208.36247  21796340.587    21796349.065
  24682389.450    -5528401.42549  -4278447.30745  24682389.357    24682404.582
 03  4 11 19 46  0.0000000  0 10G30G29G 5G 6G17G26G15G23G10G18
  21302539.470   -18306205.02549 -14244836.84147  21302539.868    21302547.872
  23961434.977    -6270221.41349  -4873609.74745  23961434.874    23961447.052
  23519174.688     7312592.90549   5721031.32446  23519174.264    23519186.441
  20548332.326   -26553475.14149 -20673793.24948  20548332.256    20548339.565
  21858285.500   -21342456.47649 -16607911.43447  21858285.134    21858294.103
  24062681.859    -6908218.34549  -5347371.21545  24062682.272    24062696.860
  24527898.411    -5201309.66049  -4038618.86245  24527898.129    24527911.730
  24202217.462    -5145790.84049  -3689992.70845  24202216.985    24202233.202
  21809370.611   -18482955.31549 -14379855.61747  21809369.917    21809378.392
  24661204.933    -5639727.09849  -4365194.38045  24661204.793    24661219.776
 03  4 11 19 46 30.0000000  0 10G30G29G 5G 6G17G26G15G23G10G18
  21316961.955   -18230414.54349 -14185779.39147  21316962.354    21316970.407
  23949836.809    -6331169.51949  -4921101.56645  23949836.733    23949848.786
  23539376.576     7418753.66449   5803753.81146  23539376.268    23539388.404
  20542771.353   -26582698.30549 -20696564.54648  20542771.285    20542778.583
  21849242.503   -21389977.94349 -16644941.10547  21849242.105    21849251.054
  24045883.812    -6996492.14049  -5416155.82345  24045884.172    24045898.555
  24511899.202    -5285386.28349  -4104132.98645  24511898.876    24511912.239
  24181824.553    -5252954.86849  -3773496.87845  24181824.052    24181840.153
  21822487.688   -18414024.54449 -14326143.34847  21822486.997    21822495.508
  24640029.363    -5751003.62449  -4451903.09645  24640029.193    24640044.377
 03  4 11 19 47  0.0000000  0 10G30G29G 5G 6G17G26G15G23G10G18
  21331461.849   -18154217.18949 -14126404.89647  21331462.246    21331470.329
  23938285.613    -6391870.69749  -4968400.96245  23938285.570    23938297.651
  23559596.926     7525010.95149   5886551.48646  23559596.470    23559608.697
  20537267.512   -26611621.17349 -20719101.85148  20537267.436    20537274.734
  21840241.979   -21437275.72549 -16681796.48347  21840241.586    21840250.517
  24029100.339    -7084688.95049  -5484880.40545  24029100.640    24029115.154
  24495923.297    -5369339.52649  -4169550.92245  24495922.896    24495936.469
  24161453.734    -5360003.74249  -3856911.27745  24161453.274    24161469.137
  21835692.100   -18344635.08349 -14272073.66047  21835691.395    21835699.890
  24618863.787    -5862229.07349  -4538571.96245  24618863.546    24618878.776
 03  4 11 19 47 30.0000000  0 10G30G29G 5G 6G17G26G15G23G10G18
  21346038.748   -18077615.28949 -14066715.16647  21346039.144    21346047.229
  23926782.100    -6452321.48449  -5015505.29245  23926782.114    23926794.002
  23579835.113     7631362.65049   5969422.73545  23579834.670    23579846.896
  20531821.245   -26640241.65349 -20741403.52248  20531821.166    20531828.435
  21831284.211   -21484349.21649 -16718477.08247  21831283.807    21831292.707
  24012332.297    -7172805.05749  -5553542.12745  24012332.589    24012346.956
  24479971.057    -5453168.60249  -4234872.10145  24479970.560    24479984.388
  24141105.261    -5466934.69549  -3940233.80845  24141104.841    24141120.571
  21848983.373   -18274789.13649 -14217648.26847  21848982.644    21848991.145
  24597708.281    -5973400.89249  -4625199.05745  24597707.952    24597723.032
 03  4 11 19 48  0.0000000  0 10G30G29G 5G 6G17G26G15G23G10G18
  21360692.187   -18000611.44849 -14006712.23947  21360692.580    21360700.657
  23915326.652    -6512519.45349  -5062412.60145  23915326.684    23915338.519
  23600090.725     7737805.99749   6052365.39445  23600090.337    23600102.556
  20526432.752   -26668558.28049 -20763468.42448  20526432.666    20526439.956
  21822369.001   -21531198.91549 -16754983.31047  21822368.579    21822377.470
  23995580.191    -7260837.05549  -5622138.28345  23995580.586    23995594.913
  24464042.467    -5536873.17949  -4300096.27045  24464041.936    24464055.698
  24120779.628    -5573745.32049  -4023462.53245  24120779.182    24120794.971
  21862360.978   -18204489.37549 -14162869.25447  21862360.253    21862368.764
  24576563.411    -6084516.72749  -4711782.53145  24576563.100    24576577.847
 03  4 11 19 48 30.0000000  0 10G30G29G 5G 6G17G26G15G23G10G18
  21375421.593   -17923208.02949 -13946397.95347  21375421.993    21375430.085
  23903919.796    -6572461.41349  -5109120.43845  23903919.811    23903931.611
  23620363.379     7844338.70449   6135377.68545  23620362.983    23620375.354
  20521102.373   -26696569.35749 -20785295.23948  20521102.316    20521109.591
  21813496.326   -21577824.90249 -16791315.21147  21813495.931    21813504.825
  23978844.767    -7348781.14949  -5690665.92845  23978845.172    23978859.448
  24448137.642    -5620452.81549  -4365223.11945  24448137.177    24448150.631
  24100477.428    -5680432.99149  -4106595.45545  24100477.077    24100492.788
  21875824.488   -18133738.16149 -14107738.46247  21875823.772    21875832.305
  24555429.691    -6195574.01249  -4798320.31945  24555429.380    24555444.155
 03  4 11 19 49  0.0000000  0 10G30G29G 5G 6G17G26G15G23G10G18
  21390226.547   -17845407.53949 -13885774.26447  21390226.954    21390235.085
  23892562.338    -6632144.24149  -5155626.33345  23892562.373    23892574.191
  23640652.527     7950958.00949   6218457.44545  23640652.067    23640664.550
  20515830.484   -26724273.38549 -20806882.79448  20515830.426    20515837.704
  21804666.291   -21624227.14049 -16827472.76547  21804665.874    21804674.718
  23962126.694    -7436634.19149  -5759122.63545  23962127.025    23962141.341
  24432256.625    -5703906.94349  -4430252.14645  24432256.092    24432269.671
  24080198.986    -5786995.45049  -4189630.78345  24080198.685    24080214.278
  21889373.333   -18062538.28349 -14052258.05747  21889372.653    21889381.209
  24534307.544    -6306570.54649  -4884810.76045  24534307.362    24534322.080
 03  4 11 19 49 30.0000000  0 10G30G29G 5G 6G17G26G15G23G10G18
  21405106.490   -17767213.38649 -13824843.82547  21405106.893    21405115.016
  23881254.707    -6691566.10349  -5201928.91845  23881254.712    23881266.282
  23660957.608     8057660.72449   6301602.21445  23660957.140    23660969.459
  20510617.191   -26751669.44149 -20828230.37248  20510617.145    20510624.417
  21795878.529   -21670406.89949 -16863456.95847  21795878.118    21795886.968
  23945426.616    -7524393.37549  -5827506.18845  23945426.856    23945441.217
  24416399.560    -5787236.02049  -4495183.73045  24416399.029    24416412.723
  24059944.759    -5893430.86849  -4272567.20145  24059944.388    24059959.862
  21903007.030   -17990892.91549 -13996430.52447  21903006.304    21903014.880
  24513197.370    -6417504.80649  -4971252.80345  24513197.287    24513211.115
 03  4 11 19 50  0.0000000  0 10G30G29G 5G 6G17G26G15G23G10G18
  21420060.919   -17688627.63249 -13763608.23847  21420061.320    21420069.449
  23869997.297    -6750723.26349  -5248025.22645  23869997.335    23870008.953
  23681278.017     8164444.64549   6384810.24645  23681277.522    23681289.898
  20505462.925   -26778755.36549 -20849336.28948  20505462.873    20505470.147
  21787133.245   -21716363.57749 -16899267.31547  21787132.822    21787141.688
  23928745.022    -7612054.71749  -5895813.46145  23928745.195    23928759.572
  24400566.389    -5870439.22949  -4560017.24345  24400565.929    24400579.470
  24039715.275    -5999736.40849  -4355402.30045  24039714.822    24039730.442
  21916725.117   -17918804.12949 -13940257.47047  21916724.417    21916732.945
  24492099.268    -6528373.84949  -5057643.88545  24492099.033    24492113.333
 03  4 11 19 50 30.0000000  0 10G30G29G 5G 6G17G26G15G23G10G18
  21435089.273   -17609653.44049 -13702069.97947  21435089.656    21435097.814
  23858790.664    -6809613.81349  -5293913.79645  23858790.694    23858802.350
  23701613.434     8271306.94949   6468079.35345  23701612.954    23701625.458
  20500367.813   -26805530.21149 -20870199.81048  20500367.761    20500375.032
  21778430.191   -21762098.13049 -16934904.58847  21778429.757    21778438.644
  23912082.702    -7699615.26049  -5964042.23445  23912082.860    23912097.082
  24384757.281    -5953516.88649  -4624752.93445  24384756.795    24384770.241
  24019510.830    -6105910.02449  -4438134.67345  24019510.370    24019525.946
  21930526.970   -17846275.06549 -13883741.34147  21930526.253    21930534.797
  24471014.138    -6639175.91549  -5143982.78845  24471013.910    24471028.517
 03  4 11 19 51  0.0000000  0 10G30G29G 5G 6G17G26G15G23G10G18
  21450191.086   -17530293.04949 -13640230.78447  21450191.481    21450199.630
  23847635.384    -6868234.20649  -5339591.87045  23847635.367    23847647.117
  23721963.260     8378245.26349   6551407.69845  23721962.816    23721975.401
  20495332.262   -26831992.14749 -20890819.49948  20495332.207    20495339.512
  21769769.420   -21807610.65749 -16970368.86147  21769769.003    21769777.864
  23895440.275    -7787071.28249  -6032189.50145  23895440.471    23895454.525
  24368971.928    -6036468.50549  -4689390.37945  24368971.352    24368984.736
  23999332.019    -6211949.07349  -4520762.21445  23999331.549    23999347.003
  21944412.120   -17773308.24949 -13826884.10747  21944411.390    21944419.937
  24449942.333    -6749908.55349  -5230267.71545  24449942.168    24449956.305
 03  4 11 19 51 30.0000000  0 10G30G29G 5G 6G17G26G15G23G10G18
  21465365.952   -17450548.77449 -13578092.46247  21465366.346    21465374.522
  23836532.130    -6926581.39149  -5385057.04045  23836532.103    23836543.767
  23742327.108     8485257.33549   6634793.50645  23742326.639    23742339.283
  20490356.655   -26858139.16549 -20911193.80348  20490356.611    20490363.912
  21761150.898   -21852900.93249 -17005659.94347  21761150.489    21761159.351
  23878818.334    -7874418.86549  -6100252.27245  23878818.508    23878832.610
  24353210.890    -6119293.10549  -4753928.88645  24353210.293    24353223.636
  23979179.354    -6317850.80249  -4603282.74845  23979178.831    23979194.434
  21958380.138   -17699905.87049 -13769687.48147  21958379.410    21958387.963
  24428884.057    -6860568.70749  -5316496.08345  24428883.806    24428898.036
 03  4 11 19 52  0.0000000  0 10G30G29G 5G 6G17G26G15G23G10G18
  21480613.210   -17370424.05149 -13515657.68747  21480613.631    21480621.808
  23825481.329    -6984653.35049  -5430307.77945  23825481.362    23825492.854
  23762704.306     8592339.55849   6718233.97445  23762703.932    23762716.601
  20485441.123   -26883970.50049 -20931322.11748  20485441.074    20485448.379
  21752574.551   -21897969.62749 -17040778.36547  21752574.156    21752583.012
  23862217.588    -7961655.45649  -6168228.55445  23862217.751    23862231.901
  24337473.706    -6201991.44749  -4818368.98145  24337473.189    24337486.654
  23959053.082    -6423613.75149  -4685695.11545  23959052.523    23959068.107
  21972430.377   -17626071.23949 -13712154.02947  21972429.653    21972438.244
  24407839.910    -6971155.29949  -5402667.13545  24407839.735    24407853.877
 03  4 11 19 52 30.0000000  0 10G30G29G 5G 6G17G26G15G23G10G18
  21495932.644   -17289920.47749 -13452927.70347  21495933.045    21495941.219
  23814483.488    -7042446.39349  -5475341.15345  23814483.487    23814495.102
  23783094.600     8699490.32349   6801727.86645  23783094.206    23783106.915
  20480586.122   -26909483.56349 -20951202.42648  20480586.065    20480593.373
  21744040.476   -21942816.43549 -17075723.88847  21744040.084    21744048.939
  23845638.617    -8048776.59949  -6236114.87745  23845638.777    23845653.018
  24321760.821    -6284561.92149  -4882709.44745  24321760.376    24321773.732
  23938953.808    -6529234.31249  -4767996.59445  23938953.378    23938968.707
  21986562.543   -17551806.21449 -13654285.19547  21986561.840    21986570.420
  24386810.295    -7081664.72749  -5488778.10245  24386810.103    24386824.141
 03  4 11 19 53  0.0000000  0 10G30G29G 5G 6G17G26G15G23G10G18
  21511323.425   -17209041.50749 -13389905.20747  21511323.810    21511332.048
  23803539.191    -7099958.25749  -5520155.44445  23803539.163    23803550.817
  23803497.304     8806706.33449   6885272.59045  23803496.892    23803509.627
  20475791.846   -26934677.64149 -20970834.18048  20475791.804    20475799.103
  21735548.460   -21987442.18449 -17110497.16547  21735548.053    21735556.896
  23829082.368    -8135779.49549  -6303909.03945  23829082.500    23829096.684
  24306072.327    -6367005.07049  -4946950.69545  24306071.857    24306085.049
  23918882.187    -6634710.77549  -4850185.75445  23918881.713    23918897.037
  22000775.960   -17477114.23349 -13596083.67647  22000775.220    22000783.796
  24365795.858    -7192095.52449  -5574827.84245  24365795.681    24365809.503
 03  4 11 19 53 30.0000000  0 10G30G29G 5G 6G17G26G15G23G10G18
  21526785.025   -17127790.42049 -13326592.75447  21526785.446    21526793.715
  23792648.843    -7157186.66049  -5564748.85645  23792648.852    23792660.420
  23823911.745     8913984.59149   6968865.82445  23823911.409    23823924.201
  20471058.431   -26959551.71649 -20990216.58048  20471058.401    20471065.710
  21727098.366   -22031847.66449 -17145098.80447  21727097.953    21727106.801
  23812549.161    -8222661.29049  -6371608.84645  23812549.295    23812563.457
  24290408.037    -6449321.34649  -5011093.08545  24290407.481    24290420.511
  23898838.225    -6740041.39449  -4932261.29045  23898837.779    23898853.107
  22015070.041   -17401998.55349 -13537552.01147  22015069.294    22015077.900
  24344796.637    -7302445.95249  -5660814.87445  24344796.479    24344810.465
 03  4 11 19 54  0.0000000  0 10G30G29G 5G 6G17G26G15G23G10G18
  21542317.154   -17046168.96049 -13262991.69747  21542317.564    21542325.802
  23781813.181    -7214127.97349  -5609118.57745  23781813.144    23781824.663
  23844337.773     9021323.19649   7052506.07345  23844337.348    23844350.259
  20466386.454   -26984103.31249 -21009347.69748  20466386.415    20466393.718
  21718690.254   -22076032.67049 -17179528.65047  21718689.804    21718698.637
  23796039.837    -8309417.57249  -6439210.85645  23796040.015    23796053.903
  24274767.987    -6531509.49349  -5075135.61845  24274767.379    24274780.463
  23878822.736    -6845222.81449  -5014220.59545  23878822.205    23878837.233
  22029444.442   -17326460.92549 -13478691.54947  22029443.703    22029452.293
  24323813.240    -7412712.75349  -5746736.78745  24323813.105    24323827.187
 03  4 11 19 54 30.0000000  0 10G30G29G 5G 6G17G26G15G23G10G18
  21557919.221   -16964179.95949 -13199104.24447  21557919.633    21557927.868
  23771032.624    -7270779.69149  -5653262.63845  23771032.567    23771044.020
  23864774.786     9128719.48949   7136191.27545  23864774.360    23864787.307
  20461776.098   -27008330.90849 -21028226.34948  20461776.047    20461783.361
  21710323.924   -22119997.63349 -17213787.02847  21710323.516    21710332.317
  23779554.991    -8396045.02249  -6506712.43945  23779555.127    23779568.842
  24259152.196    -6613569.51249  -5139078.31045  24259151.699    24259164.896
  23858836.068    -6950252.84549  -5096061.92945  23858835.543    23858850.317
  22043898.549   -17250504.19949 -13419504.51147  22043897.817    22043906.405
  24302846.364    -7522893.80649  -5832591.95845  24302846.150    24302859.988
 03  4 11 19 55  0.0000000  0 10G30G29G 5G 6G17G26G15G23G10G18
  21573590.660   -16881826.19549 -13134932.56547  21573591.074    21573599.326
  23760307.701    -7327138.60049  -5697178.54845  23760307.692    23760319.154
  23885222.286     9236171.13849   7219919.60145  23885221.935    23885234.902
  20457227.695   -27032232.93649 -21046851.31348  20457227.646    20457234.959
  21701999.523   -22163742.32949 -17247873.77347  21701999.099    21702007.937
  23763095.224    -8482540.09149  -6574110.91145  23763095.462    23763108.999
  24243561.132    -6695500.75749  -5202920.66245  24243560.632    24243573.794
  23838878.480    -7055129.07549  -5177783.36445  23838877.889    23838892.903
  22058431.934   -17174130.88549 -13359992.87247  22058431.186    22058439.773
  24281896.158    -7632986.71149  -5918378.35345  24281895.964    24281909.798
 03  4 11 19 55 30.0000000  0 10G30G29G 5G 6G17G26G15G23G10G18
  21589330.926   -16799110.88049 -13070479.15847  21589331.327    21589339.604
  23749638.968    -7383202.86549  -5740864.85945  23749638.987    23749650.328
  23905679.795     9343674.81749   7303688.48645  23905679.402    23905692.445
  20452741.410   -27055808.57249 -21065221.94748  20452741.372    20452748.675
  21693716.969   -22207267.52749 -17281789.48247  21693716.533    21693725.355
  23746661.271    -8568899.96349  -6641404.05345  23746661.489    23746674.934
  24227994.505    -6777303.65649  -5266663.02345  24227993.989    24228007.005
  23818950.674    -7159849.56949  -5259383.55145  23818950.105    23818964.725
  22073043.941   -17097344.41549 -13300159.28447  22073043.190    22073051.812
  24260963.160    -7742989.89749  -6004094.96045  24260963.055    24260976.531
 03  4 11 19 56  0.0000000  0 10G30G29G 5G 6G17G26G15G23G10G18
  21605139.515   -16716036.43849 -13005745.90947  21605139.923    21605148.225
  23739026.868    -7438969.37249  -5784319.14845  23739026.913    23739038.118
  23926146.722     9451228.15349   7387496.06445  23926146.283    23926159.468
  20448317.608   -27079055.98149 -21083336.81848  20448317.554    20448324.839
  21685476.042   -22250573.68649 -17315534.51347  21685475.628    21685484.416
  23730253.832    -8655120.97149  -6708588.97045  23730254.057    23730267.424
  24212452.247    -6858977.75149  -5330304.97145  24212451.729    24212464.877
  23799052.887    -7264411.74649  -5340860.29845  23799052.360    23799067.083
  22087734.098   -17020147.14449 -13240005.59747  22087733.370    22087741.981
  24240047.647    -7852900.67749  -6089739.46345  24240047.445    24240061.007
